GFSNGP_850_thetae_000.txt.gz
Theta_e
318 317 316 316 316 317 317 318 318 319 317 318 318 317 316 315 315 315 314 313 311 310 309 307 305 304 303 302 303 304 304 303 301 300 298 296 296 294 293 291 290 289 289 289
320 317 316 317 316 316 316 316 317 317 317 317 316 316 315 314 314 314 312 310 309 308 305 304 303 301 300 300 300 302 302 301 301 300 298 296 295 293 292 290 290 289 289 289
323 318 318 322 320 317 317 317 317 319 317 317 316 315 314 314 313 311 309 308 306 305 304 302 300 299 298 298 298 300 300 300 300 299 297 296 295 293 292 290 289 289 289 289
321 318 325 319 316 317 316 316 316 316 317 316 315 313 313 312 310 308 307 306 304 302 301 300 299 298 297 296 296 297 297 298 298 298 296 295 295 293 291 290 289 289 289 289
322 319 317 317 317 316 316 316 316 318 316 315 313 312 311 309 307 306 305 303 301 300 300 299 297 296 296 295 296 296 296 298 297 295 295 294 294 293 291 289 289 289 289 288
317 318 318 319 316 315 315 318 317 316 314 312 311 312 310 308 306 304 302 301 300 299 298 297 296 295 295 295 294 295 296 296 295 294 294 294 293 292 289 289 289 289 288 288
318 317 317 315 315 314 317 319 316 314 312 311 311 309 308 306 304 301 301 300 299 297 296 296 295 295 294 294 294 295 295 294 294 294 293 292 292 290 289 289 289 288 288 287
318 317 318 315 315 316 317 315 314 312 311 310 309 309 305 304 301 301 300 299 297 297 296 295 295 294 294 294 294 294 294 294 293 293 292 292 290 290 289 289 288 288 287 285
319 319 316 315 315 315 315 314 312 310 309 308 308 306 304 301 301 300 299 298 297 296 295 295 295 294 294 294 293 293 292 292 292 292 291 290 290 289 289 288 288 287 285 283
319 317 315 315 314 314 313 312 311 310 308 308 305 303 301 301 300 299 298 297 296 295 295 295 294 294 294 293 293 292 291 291 291 290 290 289 289 289 288 288 287 286 284 282
317 316 315 315 314 313 312 310 310 309 308 305 303 302 301 299 298 298 297 296 295 295 294 294 294 294 293 293 291 291 290 290 289 289 290 289 289 288 288 287 286 285 283 282
319 316 316 315 312 310 310 310 309 308 304 302 302 300 298 298 297 296 295 294 294 294 294 294 294 294 293 292 290 290 289 288 288 289 288 288 288 288 287 286 285 284 284 283
314 315 314 313 311 310 308 307 305 303 302 301 299 297 297 295 295 294 294 294 294 294 294 294 293 293 292 292 290 289 288 288 287 287 289 288 288 287 286 285 284 284 284 282
313 313 312 310 310 309 305 304 302 301 299 297 297 296 295 294 294 293 293 293 293 293 293 293 291 293 292 291 290 289 289 288 287 287 287 287 286 285 285 284 284 284 283 283
310 310 309 309 308 305 303 301 299 298 297 296 295 294 294 293 293 292 291 291 292 291 291 291 291 291 290 290 290 289 289 288 287 285 286 286 286 285 284 284 284 283 283 283
309 308 307 305 303 302 300 298 297 297 296 294 293 292 293 291 291 291 291 290 290 290 290 290 290 291 290 289 289 288 288 288 287 285 286 285 285 285 284 284 283 283 283 283
308 306 304 302 300 298 297 297 297 296 292 291 291 291 291 291 290 291 291 290 290 289 290 290 290 290 290 288 288 288 288 288 286 285 285 285 285 284 284 284 283 283 283 282
306 305 302 298 297 297 296 296 294 292 292 291 291 291 291 290 291 291 291 290 290 289 289 291 291 290 289 289 288 287 287 285 285 285 285 285 284 284 283 283 283 283 282 282
300 298 297 296 296 295 294 291 291 292 292 291 292 291 291 290 290 291 290 290 290 290 290 290 290 290 289 289 286 285 285 285 285 284 285 285 284 284 283 283 283 283 282 282
297 296 295 294 292 291 290 291 292 292 292 292 292 291 291 290 290 290 288 289 290 290 290 290 291 289 289 288 286 285 284 285 284 284 284 285 284 284 284 283 283 283 283 282
294 294 294 293 291 290 290 292 292 292 292 292 292 291 291 290 290 289 289 289 290 290 291 290 290 289 289 288 287 286 285 284 284 284 284 284 284 284 283 283 283 283 283 282
294 293 291 290 290 291 291 292 292 292 292 291 291 291 291 290 289 289 289 289 290 290 290 290 290 289 289 288 287 286 285 284 284 284 284 284 284 284 284 283 283 283 282 282
293 291 291 291 291 291 291 291 292 292 291 292 292 292 290 290 290 289 288 289 289 291 289 289 289 289 288 288 286 285 285 285 284 283 283 283 283 283 283 283 283 282 281 281
292 291 291 291 291 292 292 292 293 293 293 293 293 292 291 290 289 289 288 288 289 288 289 289 289 289 289 288 287 286 286 285 284 284 283 284 283 283 283 282 282 282 281 281
291 291 291 292 293 293 293 294 294 293 292 292 292 291 290 290 289 288 288 288 288 288 289 289 289 289 288 289 288 287 287 285 284 283 283 283 283 283 283 283 282 282 281 281
293 293 293 293 293 293 293 293 292 292 292 292 291 290 289 289 288 288 288 288 287 288 288 288 288 288 289 289 288 288 287 286 285 284 283 283 283 283 283 283 283 282 282 281
293 294 294 294 294 293 292 292 292 292 292 291 290 289 288 287 287 287 287 287 287 288 288 289 288 289 288 288 288 288 287 287 285 284 283 283 283 283 283 282 282 282 282 281

GFSNGP_850_thetae_003.txt.gz
Theta_e
316 315 316 316 316 315 316 314 313 314 317 316 314 314 314 314 314 312 311 310 308 306 305 304 301 300 299 298 298 297 297 297 299 301 301 298 299 296 295 294 290 289 289 288
316 317 316 315 314 314 314 315 315 315 317 315 315 314 314 313 311 309 308 307 306 305 304 301 300 299 298 297 296 296 295 295 296 297 299 299 298 297 293 292 290 290 289 289
316 315 313 312 315 317 316 316 316 314 316 313 312 312 311 310 308 307 306 304 303 303 301 300 298 297 296 296 295 294 294 294 296 297 297 296 295 294 293 293 290 289 289 289
308 307 311 318 315 315 316 315 315 316 314 312 311 311 310 308 307 306 304 303 302 300 299 298 296 296 295 295 294 294 293 294 294 295 295 295 294 294 293 292 290 289 289 289
310 309 311 314 316 315 315 315 316 314 312 312 311 310 308 307 305 304 302 301 300 299 297 296 296 295 295 294 294 293 293 294 294 294 294 294 294 293 292 290 289 289 289 288
305 307 306 311 316 316 315 312 315 313 312 311 310 303 307 306 305 303 301 301 299 298 297 296 295 295 294 294 294 293 293 293 293 292 294 293 292 292 291 289 289 289 288 288
309 303 308 312 315 315 312 311 315 313 311 310 308 308 308 307 304 302 301 300 299 298 297 296 295 295 295 294 294 293 293 292 291 292 293 292 292 290 290 289 289 288 288 288
309 309 309 313 314 311 312 315 314 312 310 310 309 308 307 303 302 301 300 299 298 297 296 296 295 295 294 293 293 293 293 292 292 291 291 291 291 290 289 289 289 288 288 286
310 309 311 315 315 316 316 314 313 311 310 308 308 307 303 303 301 299 298 298 297 296 295 295 294 294 293 293 293 293 292 291 291 291 290 290 290 289 289 289 288 288 287 285
311 315 316 315 315 315 315 314 311 310 309 307 307 303 302 300 298 297 296 296 295 294 294 294 294 294 293 293 293 292 291 290 289 290 289 290 290 289 289 288 288 287 286 284
311 314 315 315 315 313 313 311 311 310 307 308 303 301 298 297 297 296 295 294 294 293 293 292 293 294 294 293 293 292 291 289 288 287 288 289 289 289 289 288 287 286 285 284
309 315 315 314 313 312 311 310 310 309 305 302 300 298 297 296 295 295 294 293 292 291 291 291 293 293 293 292 293 292 291 289 288 287 288 289 289 289 288 287 286 284 284 284
314 315 315 314 312 311 310 308 305 304 301 298 297 297 296 296 295 292 291 290 290 291 291 291 290 291 291 292 292 292 291 289 289 288 287 288 288 288 287 285 285 284 284 284
313 314 312 311 310 309 306 305 303 300 297 297 296 296 295 293 290 290 290 290 290 290 290 290 290 290 290 291 291 291 290 289 289 289 288 287 286 286 285 285 285 284 284 284
313 312 310 309 309 307 304 301 299 297 297 296 296 294 291 290 290 290 290 290 290 290 290 290 289 290 290 290 290 290 289 289 289 289 288 286 286 285 285 285 284 284 284 283
310 309 309 308 304 301 300 298 297 297 296 296 292 291 290 291 291 290 290 290 290 290 290 290 289 290 290 290 289 289 289 288 288 288 287 285 285 285 285 284 284 284 283 283
309 307 305 303 301 299 298 297 297 296 295 292 291 291 291 291 290 290 290 290 290 290 290 290 290 290 290 290 288 288 288 288 288 287 286 285 285 285 284 284 284 283 283 283
308 305 303 300 298 297 297 296 295 292 291 291 292 291 292 291 291 291 290 290 290 289 290 290 290 290 290 290 289 288 287 287 286 285 284 285 285 285 284 284 284 284 283 283
303 300 298 297 297 296 294 292 291 291 291 292 292 291 291 292 291 291 290 289 289 289 289 290 290 290 291 290 289 288 286 285 285 285 284 284 285 285 284 284 284 284 283 283
297 297 296 295 294 292 291 290 290 291 292 292 292 291 291 291 291 290 289 288 289 289 289 290 290 290 290 290 289 287 286 285 284 284 284 284 285 284 284 284 284 284 284 284
296 295 294 293 292 290 291 291 291 291 291 291 291 291 291 291 291 290 289 289 289 289 290 289 289 290 289 290 289 288 287 287 286 285 284 284 284 284 284 284 284 283 283 283
295 294 293 291 291 291 291 291 291 291 291 291 291 292 292 292 291 290 290 289 289 288 288 288 289 288 289 289 288 288 287 287 286 284 284 284 284 284 284 284 284 283 283 282
295 294 292 291 291 291 291 291 292 293 292 293 293 292 292 292 292 290 290 289 288 288 288 288 288 288 289 289 288 288 287 287 285 285 284 283 283 284 284 283 283 282 282 282
293 292 291 291 291 291 292 292 293 294 294 293 293 292 292 292 291 290 289 289 288 288 287 287 288 288 288 289 288 289 288 287 287 286 285 284 284 284 284 284 284 283 282 282
291 292 292 292 292 292 293 292 293 292 292 292 292 292 292 290 289 288 288 287 287 287 287 287 288 288 288 288 288 288 288 288 288 288 287 286 284 283 283 283 283 283 283 282
292 293 293 293 294 293 293 293 293 292 292 292 293 292 291 289 288 287 287 287 287 287 287 287 287 288 288 288 288 288 288 288 288 288 287 286 285 284 283 283 282 282 282 282
293 294 293 292 291 291 291 292 292 292 292 292 291 290 289 288 287 287 287 286 286 287 287 287 287 287 287 288 288 288 288 288 288 288 287 287 286 285 283 283 283 282 282 282

GFSNGP_850_thetae_006.txt.gz
Theta_e
314 314 315 315 314 314 315 314 314 313 314 316 313 312 313 312 312 311 309 306 304 305 303 301 300 300 299 298 297 296 295 294 293 292 294 294 295 295 296 293 292 291 289 289
315 316 315 314 313 313 313 313 313 315 315 312 312 313 311 310 310 308 305 303 303 303 301 299 299 298 297 297 296 295 294 293 293 292 292 293 293 295 294 293 290 291 290 288
311 310 310 309 313 316 315 314 314 312 313 311 311 311 309 308 308 306 303 302 302 301 299 298 298 297 296 295 295 294 294 293 293 293 292 292 293 295 294 293 293 290 289 289
304 302 306 315 313 314 316 316 313 312 310 310 311 310 309 308 306 304 303 302 301 300 298 298 297 296 296 295 295 294 294 293 293 293 292 292 293 293 293 292 291 289 289 288
304 306 306 311 314 314 313 316 313 312 311 310 310 308 307 307 305 304 302 301 300 299 298 297 296 296 295 295 295 294 293 293 293 292 291 292 292 292 292 292 289 289 289 288
306 302 302 307 314 315 313 312 313 312 311 310 309 302 305 306 307 304 301 301 300 298 297 297 296 295 295 295 294 293 293 293 292 292 291 291 292 292 291 289 289 288 288 288
303 299 305 307 312 314 312 309 313 313 312 310 306 307 306 306 305 302 301 300 298 297 296 296 295 295 294 294 293 293 293 293 292 291 291 291 291 290 290 290 289 288 287 287
301 302 309 310 313 311 310 315 315 314 312 309 309 308 307 306 302 300 299 298 297 297 296 294 294 294 293 293 293 293 293 293 290 290 290 290 290 290 290 289 288 287 287 286
309 309 309 312 314 314 314 315 314 313 311 310 307 308 306 302 300 299 298 297 296 295 294 293 293 291 292 293 293 293 292 292 290 289 290 289 290 289 289 288 288 288 287 285
310 313 312 314 314 315 315 315 314 313 310 307 307 305 301 299 298 297 296 295 293 292 291 290 290 291 293 293 293 292 292 292 291 288 287 287 289 289 288 288 288 286 285 284
308 312 314 315 315 315 314 313 312 311 310 308 306 301 300 297 296 296 294 292 291 290 290 290 290 290 290 290 290 291 292 292 290 288 287 287 288 288 288 288 287 285 284 284
311 313 313 313 315 314 313 312 311 311 308 304 302 299 297 296 295 293 292 290 290 290 290 290 290 290 290 290 290 290 291 291 290 289 287 287 288 288 287 287 285 284 284 284
314 315 314 314 314 313 311 310 309 310 303 300 297 296 296 294 293 291 290 290 290 290 290 290 290 290 290 289 289 290 290 291 290 289 289 288 287 287 285 285 284 284 284 283
314 313 314 313 312 311 309 305 303 301 299 297 296 296 295 293 291 290 290 290 290 290 290 290 290 290 289 289 289 290 290 290 289 289 289 288 286 285 285 285 284 284 283 283
313 314 314 313 309 309 303 301 299 297 297 296 296 295 294 291 290 290 290 290 290 290 290 289 290 290 289 289 290 289 289 289 289 289 288 287 286 285 285 284 284 284 283 283
313 312 310 309 306 303 302 301 299 297 297 296 295 293 291 290 290 291 291 290 290 290 290 289 290 289 289 289 290 289 288 288 288 288 287 286 285 285 284 284 284 283 283 283
311 309 308 306 304 300 298 297 297 296 295 294 292 291 291 291 291 291 291 291 291 290 289 289 289 289 289 289 289 289 288 287 287 286 286 285 285 284 284 284 283 283 284 283
309 307 305 301 300 297 299 297 295 295 293 291 291 291 291 291 291 291 291 291 290 289 288 288 289 289 289 290 289 289 288 287 287 286 285 284 284 285 285 284 284 283 283 283
305 303 298 298 299 297 295 295 294 291 290 290 292 291 291 291 291 291 291 290 289 289 289 288 289 289 289 289 289 289 289 287 286 285 284 284 284 284 284 284 284 283 283 283
298 301 298 294 294 295 293 291 291 291 291 291 291 291 291 291 291 291 291 290 289 289 289 288 289 288 289 289 289 289 289 288 286 286 284 283 284 284 284 284 284 283 283 283
296 295 294 294 292 291 291 291 291 291 291 291 291 291 291 291 291 292 291 291 290 289 288 288 287 287 288 287 288 288 288 288 287 286 286 284 284 284 284 284 284 283 283 283
295 295 294 293 291 291 291 291 291 291 292 292 292 292 292 292 292 291 291 290 290 289 288 287 287 287 287 287 288 288 288 287 287 287 286 286 285 284 283 283 284 284 283 282
294 295 294 292 291 291 291 291 292 292 293 293 294 293 293 293 292 292 291 290 289 288 288 287 287 287 287 287 288 288 288 287 288 288 287 286 285 285 284 283 283 283 283 282
293 292 291 292 292 291 292 292 293 293 293 292 292 292 292 293 292 291 289 289 287 287 287 287 287 287 287 287 287 288 288 288 288 288 288 288 287 287 285 284 283 283 283 283
292 292 292 292 293 293 292 292 292 292 291 291 292 292 292 292 291 289 288 287 287 286 286 286 286 286 287 287 287 288 288 288 288 288 288 288 288 287 287 286 284 283 283 283
293 293 293 293 292 291 291 291 291 291 291 291 291 289 290 290 289 288 287 286 286 286 286 286 286 286 286 286 286 286 286 287 287 287 287 287 288 288 287 287 285 284 282 282
292 292 292 292 291 291 291 291 291 291 291 291 289 289 289 289 288 287 286 286 285 285 284 284 284 285 285 285 285 285 284 284 285 286 286 287 287 287 287 286 286 284 283 282

GFSNGP_850_thetae_009.txt.gz
Theta_e
313 313 314 314 314 314 315 313 313 313 312 313 311 310 311 311 310 310 309 306 304 304 303 301 300 300 299 298 297 296 296 295 294 293 292 292 291 291 293 295 295 293 291 289
315 313 313 313 311 310 311 312 313 314 315 312 312 312 311 311 310 309 308 305 303 303 303 301 299 298 297 297 296 296 295 294 293 292 292 292 291 292 293 294 294 291 291 290
306 308 309 306 310 313 313 314 312 313 312 310 310 311 311 310 310 309 306 303 302 302 300 299 298 297 296 296 296 295 294 294 293 292 292 292 291 291 293 293 293 292 291 289
303 301 304 309 310 312 313 314 312 311 310 310 311 312 311 310 309 307 305 302 301 300 299 299 297 296 295 295 295 294 294 293 292 292 292 292 291 292 292 292 292 292 289 288
302 304 305 309 313 314 313 313 311 310 309 310 311 310 309 309 307 305 303 301 301 300 299 297 296 295 295 295 294 294 293 292 292 292 292 291 291 291 291 292 291 288 288 288
303 300 301 305 312 313 312 310 313 311 309 309 307 303 305 309 306 306 304 301 300 299 297 296 295 295 295 294 294 293 292 292 293 292 290 290 291 290 290 289 289 289 289 288
298 298 304 304 312 312 312 309 313 313 312 309 306 308 307 307 306 305 301 300 298 297 296 296 295 294 294 293 291 292 293 293 292 291 290 290 290 290 290 290 290 289 287 287
303 302 308 308 310 311 311 311 314 314 313 311 311 309 307 306 303 301 300 298 297 297 296 294 292 291 290 290 291 292 293 292 292 292 290 289 289 289 289 289 288 287 287 286
307 308 308 310 313 314 313 313 314 314 313 312 310 309 307 305 301 299 298 297 296 295 292 290 290 290 290 290 290 290 290 290 291 291 290 288 287 288 288 288 287 287 286 285
309 311 310 311 312 312 314 314 314 315 314 312 309 307 306 301 298 297 296 295 293 291 290 290 290 289 289 290 289 289 289 290 291 291 288 287 287 287 288 287 287 287 285 284
307 309 312 315 315 314 314 315 315 314 313 309 307 306 302 298 298 296 294 292 290 290 290 290 289 289 290 289 289 289 289 290 290 290 288 287 287 288 288 287 286 285 284 284
308 311 313 313 314 314 314 314 314 312 310 308 308 303 298 297 295 293 291 290 290 290 290 289 289 289 289 289 289 289 289 289 290 290 289 288 287 287 287 286 285 284 284 284
312 313 313 313 314 314 314 314 312 311 310 308 301 298 297 295 293 291 290 290 290 290 290 290 289 289 289 289 289 289 288 290 290 290 288 288 288 287 285 284 284 284 284 283
313 314 314 314 314 314 313 312 310 309 303 301 297 298 295 293 292 290 290 290 290 290 290 290 290 289 289 289 289 288 289 289 289 289 288 288 287 286 285 285 284 283 284 283
314 314 313 313 313 312 311 309 304 300 299 296 298 295 293 292 291 290 290 290 290 290 290 290 289 289 289 289 289 289 289 288 288 287 288 287 286 285 285 285 284 283 283 283
313 313 313 313 310 304 300 299 303 297 298 298 294 293 292 291 290 290 290 290 290 290 290 289 289 289 288 288 289 289 288 288 287 287 287 286 286 285 285 284 284 283 283 283
312 309 308 302 298 297 300 300 298 297 298 294 292 291 290 291 290 290 290 290 290 290 289 289 288 288 288 288 288 289 288 287 287 287 286 285 285 284 284 284 284 283 283 283
310 308 303 302 302 300 297 299 300 296 292 291 290 290 291 291 290 290 290 291 290 290 290 289 289 288 288 288 288 288 288 288 287 287 286 286 285 284 284 284 285 283 283 283
303 302 300 298 298 299 298 293 291 290 290 291 291 291 291 290 290 290 291 291 291 291 290 289 289 287 287 287 288 288 287 288 289 288 286 285 285 284 283 284 284 284 283 283
299 298 298 295 293 292 291 291 291 291 290 291 291 290 291 290 290 291 291 291 291 290 290 289 288 287 287 286 287 287 287 287 288 288 286 286 285 284 284 284 284 284 284 283
293 293 293 293 292 291 291 291 290 290 290 291 291 291 291 291 291 292 292 291 291 290 289 288 288 287 287 286 286 287 287 287 287 287 287 286 286 285 285 284 284 284 283 283
294 294 294 293 291 291 291 291 291 291 291 291 292 293 293 293 293 293 292 292 291 290 289 288 287 287 286 286 286 286 287 287 287 287 287 287 286 286 286 285 285 284 283 283
295 294 292 291 291 291 291 291 292 292 292 292 292 292 292 292 292 292 292 291 290 289 287 287 286 286 286 286 286 286 287 287 288 288 287 287 287 287 287 286 286 285 283 283
292 292 292 292 292 292 292 291 291 291 291 291 291 291 291 291 291 290 291 290 288 287 286 286 286 286 286 286 286 286 287 287 287 287 287 287 287 287 288 287 287 287 285 283
293 293 293 292 292 291 291 291 291 290 290 290 291 291 290 290 289 289 289 288 287 286 286 286 285 285 285 285 285 285 285 285 285 285 285 286 286 286 287 287 287 287 287 286
293 292 291 291 291 291 291 291 291 291 291 291 291 291 290 289 289 289 288 287 287 286 286 285 284 284 283 284 284 284 284 284 283 284 284 284 284 284 285 286 286 286 286 286
291 291 290 290 290 290 290 291 291 291 291 291 291 290 289 288 287 287 287 287 286 286 285 284 284 284 284 283 283 283 283 283 283 283 283 284 283 283 284 285 286 286 286 285

GFSNGP_850_thetae_012.txt.gz
Theta_e
313 312 313 313 313 313 313 311 312 311 309 310 311 309 310 311 310 309 309 308 306 305 304 303 304 302 299 298 297 296 295 295 294 293 292 291 291 291 290 292 292 293 293 291
315 311 310 313 311 310 311 311 311 312 311 309 311 311 310 310 310 309 309 307 305 304 304 302 301 300 299 297 296 295 295 294 294 293 291 291 291 291 291 292 292 291 292 291
304 306 305 306 308 309 309 309 309 312 310 309 309 310 310 310 310 311 310 307 304 303 301 301 300 299 297 296 295 295 295 294 293 291 292 291 291 291 291 292 292 291 291 291
303 300 303 308 308 309 311 312 310 311 310 310 311 311 312 312 312 311 309 306 303 301 301 300 299 297 296 295 295 295 294 293 292 292 292 291 290 290 290 291 291 291 291 289
303 302 304 307 311 312 312 311 310 310 309 310 311 311 311 312 311 310 307 304 302 301 300 298 297 296 295 295 294 294 293 291 292 292 292 291 290 290 290 290 290 289 288 288
298 300 301 305 308 312 311 311 311 310 308 309 309 305 309 312 310 309 306 303 301 300 299 297 296 295 295 294 293 291 291 292 292 292 291 291 289 290 290 290 290 290 289 288
298 297 302 303 311 312 312 310 311 312 312 309 307 310 311 311 310 307 306 304 301 299 297 296 296 293 292 290 290 290 290 290 290 291 291 291 289 289 289 289 289 289 288 287
299 298 306 306 311 311 311 310 312 313 313 312 312 310 309 308 307 306 305 300 298 297 296 294 291 290 290 289 289 289 289 289 289 289 291 291 289 287 287 289 288 287 287 287
304 306 306 308 310 313 312 311 312 313 314 314 312 310 309 307 306 303 299 298 297 296 293 291 290 290 289 289 289 289 289 289 289 290 291 290 288 287 287 288 287 287 287 286
307 309 308 310 311 312 312 313 313 313 314 314 313 311 308 306 301 299 297 297 297 292 291 290 290 289 289 289 289 289 289 289 289 290 290 290 288 287 287 287 287 287 286 285
306 308 310 312 312 313 314 313 313 313 314 313 312 310 308 304 301 297 299 295 292 291 290 290 289 289 289 289 289 289 289 289 289 289 289 289 288 287 287 287 286 285 284 284
307 311 309 310 311 312 314 314 314 314 314 312 310 308 302 299 296 299 293 291 291 290 290 290 289 289 289 289 289 289 288 289 288 289 289 289 288 287 287 286 285 284 284 284
311 312 312 312 313 313 314 314 314 313 312 311 307 303 302 296 300 292 291 290 290 290 290 290 290 289 289 289 289 288 288 288 288 288 289 288 288 287 287 285 285 284 284 283
313 312 312 313 313 313 313 313 312 311 308 304 297 297 299 301 292 292 291 290 290 290 290 290 290 290 289 289 288 288 288 288 288 288 288 288 287 287 286 284 284 284 283 283
314 313 313 312 312 312 311 311 307 300 297 299 299 300 297 292 291 291 290 290 290 290 290 290 290 289 289 288 288 288 288 288 288 288 287 286 287 286 285 285 284 284 283 283
312 312 312 311 307 304 304 300 300 298 299 299 299 294 292 291 291 290 290 290 290 290 290 290 290 289 288 287 287 288 288 288 288 288 287 286 286 285 285 284 284 284 283 283
310 306 304 300 299 298 299 300 299 297 299 298 294 292 291 290 291 290 290 290 290 290 290 290 290 289 289 288 288 287 287 287 287 288 288 286 286 285 285 284 283 284 283 283
306 302 300 299 299 299 297 297 299 297 294 292 290 290 290 291 291 290 290 290 290 290 290 290 290 289 288 287 286 286 287 287 287 287 287 287 286 285 285 284 284 283 283 283
299 298 298 297 296 296 296 295 292 291 290 290 290 290 291 290 290 290 290 290 291 291 291 290 290 289 288 287 287 286 286 286 286 287 287 287 287 285 284 284 284 283 284 284
295 294 294 294 294 294 292 291 291 290 290 290 290 290 291 291 291 290 291 291 291 292 291 291 290 289 288 287 286 286 286 286 286 286 287 287 287 286 286 285 285 284 283 283
294 294 294 293 292 291 291 290 290 291 291 291 291 291 292 292 292 292 292 292 292 292 291 290 289 288 287 286 286 286 286 286 286 287 287 287 287 286 286 286 286 285 285 284
295 295 294 292 291 291 291 291 291 291 291 292 292 292 291 291 291 291 291 291 291 291 290 289 288 286 286 285 286 285 286 286 286 287 287 287 287 287 287 287 287 287 286 286
294 292 292 292 292 292 292 292 291 291 291 290 290 290 290 290 291 291 290 289 289 289 288 287 286 285 285 285 285 286 286 285 285 285 286 286 286 286 286 286 286 287 287 287
293 293 293 293 293 292 291 291 291 291 290 290 290 290 290 291 290 290 289 289 288 288 287 287 286 286 285 284 283 284 284 284 285 284 284 284 284 284 284 285 285 286 286 286
292 293 292 291 291 291 290 290 290 290 290 290 290 291 291 291 290 290 289 288 288 288 287 287 286 285 285 284 283 283 283 283 283 283 283 283 283 283 283 283 283 283 284 285
292 291 291 290 290 289 288 287 286 286 286 287 288 288 289 289 289 289 287 287 287 287 287 286 286 285 284 284 283 283 283 282 282 282 282 282 282 282 283 283 283 283 283 283
290 290 290 289 288 286 285 285 285 285 284 284 284 285 286 286 287 287 287 286 286 286 286 286 285 284 284 283 282 281 281 281 281 281 281 281 281 281 282 283 284 285 283 283

GFSNGP_850_thetae_015.txt.gz
Theta_e
313 312 313 313 314 313 314 314 318 315 313 313 314 315 312 310 310 310 309 309 309 309 306 304 305 304 300 299 298 297 296 295 295 294 293 292 291 290 290 290 291 292 292 292
315 312 311 313 312 312 313 313 312 312 314 312 311 311 310 310 309 308 309 309 309 307 305 308 303 301 300 298 297 296 295 295 294 294 293 291 291 290 290 290 290 291 291 291
311 307 308 312 311 312 311 311 314 315 315 312 312 311 311 310 309 309 310 310 309 307 305 302 301 300 299 298 296 295 295 295 294 293 292 291 291 290 290 290 290 291 291 291
311 305 313 312 310 310 311 311 310 311 312 312 312 311 311 311 312 311 311 310 308 305 302 301 300 300 298 297 296 295 295 293 293 291 291 292 291 290 290 290 290 290 290 289
314 310 308 310 308 312 314 314 312 312 311 310 310 311 311 312 312 312 312 310 307 303 301 300 300 298 297 296 296 294 292 290 290 291 291 292 291 291 289 289 290 290 290 289
306 311 311 310 306 312 311 317 311 312 310 309 310 316 315 313 313 312 310 308 304 302 301 300 298 297 296 295 292 290 290 289 289 289 290 290 290 291 289 289 289 289 289 289
302 312 309 306 309 311 315 315 309 312 312 309 312 314 312 312 312 311 309 306 303 303 299 297 297 296 293 291 290 289 289 289 289 289 289 289 290 291 289 287 288 289 288 288
302 308 313 305 311 315 314 311 310 313 313 313 312 312 311 311 311 309 306 305 305 299 297 297 295 292 290 290 289 289 289 289 289 289 289 290 290 290 288 287 287 288 287 286
309 312 307 307 311 312 312 311 311 312 312 312 312 310 310 309 308 306 305 301 298 297 301 294 291 290 290 289 289 289 289 289 289 289 289 289 290 290 288 287 287 287 287 287
309 309 307 308 310 310 310 311 311 312 312 312 312 311 308 307 306 302 298 297 297 301 294 291 290 290 289 289 289 289 289 289 289 289 289 289 289 289 288 287 287 287 286 285
308 309 309 311 311 310 311 312 312 313 313 312 313 311 309 307 302 298 298 298 299 292 291 290 290 289 289 289 289 289 289 289 288 288 289 289 289 289 288 287 287 286 284 284
314 311 310 310 311 311 312 313 313 313 313 313 312 310 307 302 296 297 298 299 291 291 290 290 290 289 289 290 289 289 289 287 288 288 288 289 289 288 288 287 286 285 285 284
311 310 310 311 312 312 313 313 313 312 312 310 307 305 299 296 299 300 298 291 291 290 290 290 290 290 290 290 289 289 288 288 288 288 288 288 288 288 287 286 286 285 284 284
312 311 312 312 311 312 312 312 311 309 307 305 298 298 298 299 297 293 293 291 290 290 290 290 290 290 290 289 288 288 287 288 288 288 288 287 287 287 287 287 286 285 284 284
311 311 311 310 309 308 306 305 303 298 296 297 298 297 295 294 294 292 291 290 290 290 290 290 290 290 290 289 289 288 288 287 288 288 288 287 287 286 286 286 285 284 284 284
306 307 306 304 300 299 299 298 298 298 297 295 295 295 294 292 291 291 290 290 290 290 290 290 290 290 290 289 289 288 287 287 287 287 287 287 287 287 286 285 285 284 283 284
304 299 299 297 297 298 297 297 296 296 295 295 295 294 292 291 290 291 291 290 290 290 290 290 290 290 290 289 288 287 286 286 286 287 288 286 286 287 287 285 284 284 284 283
301 299 298 298 297 296 296 295 295 295 294 292 291 290 290 290 291 291 291 290 290 290 290 291 291 290 290 289 288 287 287 286 286 286 286 286 286 287 287 286 285 285 284 284
298 298 297 296 295 295 295 294 293 292 290 290 290 290 290 290 291 291 291 290 290 290 291 291 291 291 290 289 288 288 287 286 286 285 285 286 286 287 287 287 286 285 284 284
295 295 294 294 294 292 291 290 290 290 290 290 290 291 291 291 291 292 292 291 291 292 292 292 291 290 289 288 287 286 286 286 285 285 285 286 287 287 287 287 286 286 285 285
293 293 293 291 291 291 291 291 291 291 291 291 291 291 291 291 291 291 291 291 291 291 291 291 290 289 287 286 285 285 285 285 285 285 286 286 286 287 287 287 287 286 286 286
294 295 292 291 292 292 292 292 291 291 291 290 290 290 290 290 290 290 290 290 290 289 289 289 288 287 286 286 285 285 284 285 286 285 285 285 285 285 285 286 286 286 286 286
292 292 292 293 292 292 291 291 291 291 290 290 290 291 291 291 291 291 291 290 290 289 289 288 288 287 286 286 285 284 284 284 284 284 284 284 284 284 284 284 284 284 284 284
293 293 293 292 291 291 290 290 289 288 287 286 286 286 286 287 288 289 289 289 289 289 288 287 288 287 286 286 285 284 284 283 283 283 283 283 282 282 282 282 282 282 283 283
292 291 291 290 290 289 288 286 285 285 285 285 285 284 285 285 285 286 286 286 287 287 287 286 286 286 286 285 284 284 283 283 282 282 281 281 281 281 281 281 281 282 282 282
291 291 290 289 287 285 284 284 284 283 283 283 283 283 282 283 283 284 284 285 285 285 285 286 285 285 284 284 284 283 282 281 281 280 280 280 280 280 280 280 281 281 282 283
289 288 287 285 284 284 283 282 282 282 281 280 280 280 281 281 281 281 282 283 284 285 285 284 283 283 282 282 282 281 280 280 279 279 279 278 278 279 279 279 280 281 282 283

GFSNGP_850_thetae_018.txt.gz
Theta_e
317 317 317 318 319 319 318 319 319 317 317 315 317 317 317 318 318 317 315 313 312 310 308 305 302 302 308 303 301 299 297 297 297 296 296 295 295 294 293 293 293 293 293 293
319 317 316 317 318 318 319 319 318 318 318 318 317 316 317 317 316 315 314 313 311 310 309 306 303 306 303 302 299 298 297 297 296 296 295 295 294 294 293 292 292 292 292 293
318 314 315 319 317 317 317 318 318 319 318 317 316 316 316 316 315 314 314 312 311 310 309 306 305 303 302 301 299 298 296 296 295 294 294 294 293 293 293 292 292 292 292 292
319 312 326 315 314 314 316 316 316 316 316 315 316 316 315 315 315 314 313 312 312 311 308 305 303 302 301 300 298 297 296 295 293 293 293 293 293 293 293 292 292 292 291 291
325 317 315 313 312 312 315 315 316 316 316 315 314 315 316 314 314 315 313 312 312 310 307 304 301 301 300 298 297 296 295 292 292 291 292 292 292 292 292 292 291 291 290 290
315 329 329 315 312 314 315 317 314 315 317 315 315 320 315 312 313 313 313 312 309 306 304 302 301 301 299 296 296 294 291 290 289 290 291 292 291 292 292 291 290 289 289 289
317 324 317 313 311 314 316 315 315 315 316 315 317 316 315 312 313 313 312 310 306 305 301 301 303 297 296 295 292 291 290 289 289 290 290 290 291 292 291 291 290 289 288 288
314 323 322 310 314 318 317 316 314 314 316 316 316 315 312 311 312 311 309 304 302 300 301 303 297 299 293 292 291 290 289 289 289 290 290 290 291 291 291 290 289 289 287 287
316 318 313 311 314 315 313 313 314 314 314 314 314 314 311 310 308 306 302 300 300 300 298 299 300 292 291 291 290 289 289 289 290 291 290 290 291 291 291 290 289 289 288 288
314 315 313 312 311 311 311 312 312 313 313 313 313 313 312 308 304 302 298 296 294 296 300 294 291 291 290 290 289 289 289 290 290 289 289 288 289 290 290 290 289 288 288 288
315 314 313 313 313 312 312 313 313 314 314 314 313 313 311 305 301 297 295 295 298 299 292 291 291 290 290 289 290 290 290 290 290 290 289 288 288 288 289 289 289 288 288 287
318 314 314 314 312 312 313 313 313 313 314 311 311 311 306 299 295 295 297 299 294 292 291 290 290 290 290 290 290 289 289 290 290 289 289 289 288 288 289 288 288 287 286 285
313 312 312 313 313 311 311 308 307 307 305 302 300 298 296 296 296 298 296 294 293 291 290 290 290 290 290 290 289 289 289 289 289 289 289 289 289 289 288 289 288 287 286 285
311 312 314 307 307 304 304 302 303 300 299 298 297 296 299 297 296 295 294 294 292 291 290 290 290 290 290 290 289 289 289 289 288 289 289 288 288 288 288 288 287 287 287 286
305 308 305 303 302 301 301 301 299 298 298 298 297 297 296 294 294 293 292 291 290 290 290 290 290 290 290 290 290 289 289 288 288 287 287 287 287 287 287 287 287 286 286 286
302 302 302 301 300 299 299 298 297 297 296 295 295 294 294 293 292 291 291 290 290 290 290 290 290 290 290 290 290 289 289 288 287 287 287 286 288 287 287 287 287 286 286 286
302 300 300 299 298 297 297 296 296 296 296 296 294 293 293 292 291 290 291 291 291 290 290 290 290 290 291 291 290 289 289 289 288 287 287 287 287 287 286 286 287 287 287 286
301 299 298 298 297 296 296 296 295 295 294 292 290 290 290 290 291 291 291 291 291 290 290 290 290 291 291 291 290 289 288 288 288 287 287 286 286 286 286 286 287 287 286 286
298 298 297 297 296 296 294 292 290 290 290 290 290 291 291 291 291 291 291 291 291 291 291 291 291 291 291 291 290 288 287 287 286 286 286 286 286 286 286 286 287 287 287 287
295 295 294 292 291 291 291 291 291 291 291 291 291 291 291 291 291 291 291 291 290 291 291 291 291 291 291 290 288 287 286 286 285 285 286 286 286 286 286 286 287 287 287 287
294 293 292 291 291 291 291 291 291 291 291 290 290 290 290 290 290 290 290 290 290 290 290 290 289 289 289 288 287 286 286 285 285 285 286 286 286 286 286 286 286 286 286 286
294 293 292 292 292 291 291 291 291 290 290 289 289 288 288 288 287 288 288 289 289 290 290 289 289 289 288 288 288 287 286 285 285 285 286 285 285 285 285 285 285 285 285 285
292 292 293 292 292 291 291 290 289 287 286 285 285 285 285 285 285 285 286 286 286 286 287 287 287 287 287 287 287 286 285 285 284 283 283 283 283 284 283 282 282 283 283 283
293 293 292 291 291 290 289 288 286 285 284 284 284 283 283 284 284 284 284 284 284 284 285 285 285 286 286 286 286 286 285 284 283 283 282 282 282 281 281 281 281 281 281 281
292 291 290 289 288 287 286 285 284 283 283 282 282 281 280 280 280 281 281 281 281 282 283 284 285 285 285 285 284 284 283 283 282 281 281 280 280 280 280 279 279 279 280 280
290 289 288 287 286 284 283 283 282 281 280 279 279 278 278 278 278 278 278 279 279 280 281 281 283 282 281 281 281 281 281 280 280 280 279 279 279 279 278 278 278 278 279 280
288 287 286 284 283 282 281 280 279 278 278 277 277 277 276 276 276 277 277 277 277 277 277 277 278 278 278 278 278 278 278 278 278 278 278 277 277 276 276 276 277 277 278 279

GFSNGP_850_thetae_021.txt.gz
Theta_e
322 322 320 321 320 321 321 320 323 320 318 317 317 318 318 318 319 319 321 321 321 320 316 314 313 309 307 306 307 303 301 300 299 299 299 299 297 297 296 295 295 294 294 294
323 321 320 320 320 319 319 319 319 319 319 318 318 318 318 317 318 318 319 320 320 318 316 314 311 308 305 307 306 304 301 300 299 299 299 298 296 296 295 295 294 294 294 293
319 318 319 321 320 320 319 319 319 320 319 318 319 318 317 317 317 318 318 318 318 317 315 313 311 307 305 307 304 302 300 299 299 298 298 296 295 294 294 295 294 294 293 293
320 316 323 316 317 316 317 317 318 318 317 317 317 317 317 317 317 317 317 317 317 316 314 314 311 307 306 304 303 301 299 298 298 297 295 294 294 294 294 294 294 293 293 292
326 318 317 316 315 315 316 316 317 317 316 316 317 317 317 317 316 316 316 316 316 315 314 313 309 307 304 303 301 299 299 297 296 294 294 293 293 293 293 294 294 293 292 292
318 326 326 319 315 316 316 316 315 314 315 315 316 319 316 317 315 315 315 315 315 315 314 311 308 304 301 300 300 298 297 295 293 292 293 293 293 293 293 293 293 292 291 291
321 324 320 316 314 316 316 319 316 315 315 316 317 316 318 316 314 315 315 315 315 314 310 307 302 300 300 298 297 295 293 291 292 292 293 293 292 292 293 293 293 292 291 290
322 323 323 313 316 317 319 315 315 315 315 317 317 316 316 316 314 315 315 314 312 308 304 300 297 297 300 297 294 292 291 290 292 292 293 292 292 292 293 293 292 292 291 290
319 320 316 314 314 314 315 315 314 314 314 315 315 315 315 315 314 313 313 309 305 302 297 296 298 300 294 293 293 290 290 291 292 292 292 292 291 291 292 292 292 291 291 290
317 316 315 314 314 314 314 314 315 315 315 315 315 315 316 315 311 309 305 300 298 297 297 299 294 292 292 292 292 290 291 292 292 291 291 291 291 290 290 291 292 291 290 290
317 316 315 315 315 315 315 315 316 316 316 316 315 315 315 313 307 304 298 297 298 298 295 293 294 293 293 291 290 290 290 290 290 290 291 291 291 290 289 290 290 290 290 289
319 317 316 316 315 315 316 315 314 314 315 310 311 312 310 302 298 297 297 298 296 295 293 293 293 293 291 290 290 290 290 289 290 291 291 291 290 290 289 289 289 289 289 288
316 315 316 315 311 310 308 307 306 306 304 303 302 300 300 299 298 297 297 296 295 293 293 293 293 291 290 290 290 290 290 290 290 290 291 291 290 289 290 290 289 289 288 288
311 313 316 310 309 307 306 305 302 301 299 299 299 298 297 297 297 298 298 297 295 293 293 291 290 290 290 290 290 290 290 290 290 291 290 289 289 289 289 289 289 289 288 288
308 309 308 307 306 304 303 301 299 298 297 297 297 296 296 296 295 295 294 294 292 291 290 290 290 290 291 291 290 290 291 291 290 289 288 288 287 287 287 288 288 288 288 287
307 306 306 304 301 300 300 299 298 297 297 297 297 297 297 296 295 294 293 292 291 291 292 291 290 290 290 290 291 292 292 291 290 289 289 288 288 287 288 288 288 287 288 288
305 304 301 300 300 299 299 299 299 299 299 296 294 291 291 290 290 291 291 291 291 291 291 291 290 290 290 290 291 292 291 291 290 290 289 288 288 288 287 287 287 287 287 288
303 300 300 300 299 299 298 297 295 292 290 290 290 290 290 291 291 291 291 291 291 291 291 291 291 291 291 290 291 291 291 290 289 288 288 288 288 288 287 286 286 287 287 287
300 299 299 298 297 295 292 291 291 291 291 291 291 291 291 291 290 290 290 290 290 290 292 291 291 290 290 290 291 291 290 289 288 287 287 286 286 286 287 287 287 287 287 287
297 295 294 292 291 291 291 291 291 291 291 290 290 290 290 290 289 289 289 289 289 290 290 290 290 290 290 290 289 289 289 288 287 287 286 286 286 286 287 286 286 286 286 287
295 292 291 291 291 291 291 291 291 290 290 289 289 287 286 286 286 285 285 286 287 288 288 288 288 288 288 288 289 289 289 288 287 286 286 286 286 287 286 286 286 286 286 286
295 292 292 292 292 291 291 290 290 289 288 287 286 285 285 286 285 286 285 286 286 285 284 284 285 285 285 286 287 287 287 287 287 286 285 285 284 284 284 285 285 284 284 284
293 292 292 292 292 291 290 289 288 287 286 285 285 284 283 284 284 284 284 284 282 282 281 282 282 283 284 285 285 285 286 286 287 285 284 284 283 282 282 282 282 282 281 281
292 292 293 292 291 290 288 288 286 285 284 283 283 282 281 281 281 282 281 280 280 279 280 280 281 281 282 283 283 284 284 284 283 282 282 281 281 280 280 280 280 280 280 279
292 292 291 290 288 287 286 285 284 284 282 282 281 281 280 280 279 279 278 277 277 277 277 278 278 278 279 279 279 279 279 278 279 279 278 278 279 278 278 278 279 279 278 278
290 289 288 288 286 284 283 282 281 281 280 280 279 279 278 278 277 276 275 275 275 275 275 276 276 277 277 276 276 276 276 276 276 276 276 276 276 276 276 276 276 276 276 276
288 286 285 284 283 282 281 280 279 279 279 278 277 278 277 276 275 275 274 274 273 273 273 273 273 273 274 275 274 274 274 274 274 274 274 274 274 273 274 274 274 275 275 276

GFSNGP_850_thetae_024.txt.gz
Theta_e
321 321 322 323 322 321 321 322 323 323 320 319 319 319 318 318 319 319 319 322 322 323 321 319 318 316 313 310 308 307 306 302 301 300 300 300 300 299 298 297 296 295 295 294
325 323 322 321 321 321 319 319 320 319 320 319 318 319 318 317 317 318 318 318 320 322 322 320 318 316 314 310 308 308 305 302 301 300 300 299 299 298 297 295 295 295 295 294
323 319 319 319 321 319 319 319 319 320 321 320 319 318 318 318 317 317 317 317 318 320 321 320 318 316 314 310 307 307 305 302 301 300 299 298 297 295 295 294 295 295 294 294
327 317 322 317 318 317 317 317 317 316 318 317 318 318 317 316 317 317 318 317 317 318 319 318 317 314 311 308 306 306 303 301 299 299 298 295 294 293 294 294 294 294 294 293
327 322 319 317 317 316 316 317 317 316 316 315 316 316 317 317 317 316 315 315 315 316 317 317 315 314 310 307 306 303 301 299 298 296 295 293 293 293 293 293 293 294 294 293
322 328 327 321 317 316 316 319 316 316 316 316 315 322 319 317 316 315 315 315 315 315 316 315 314 311 307 305 302 300 300 296 296 294 294 293 293 293 293 293 293 293 293 292
324 325 325 318 316 316 318 322 317 316 316 316 318 318 318 317 316 315 315 315 315 315 313 311 308 304 302 300 299 296 297 295 293 293 292 292 292 292 293 292 293 293 293 292
327 323 323 315 316 318 321 316 315 315 315 315 316 316 317 316 316 315 314 315 313 310 306 301 300 300 299 298 296 296 293 293 294 291 291 292 293 292 291 292 293 293 293 292
322 324 318 315 315 314 315 315 315 315 315 315 316 315 315 316 316 313 311 308 304 304 301 298 298 298 300 295 294 293 294 293 290 291 292 292 291 290 290 290 292 292 292 292
321 316 316 315 315 315 315 316 316 316 316 317 317 317 316 316 312 308 303 300 300 299 298 298 296 294 294 296 294 294 292 290 291 291 290 290 291 291 291 291 289 291 292 291
319 318 316 316 317 317 317 317 317 316 316 313 314 315 314 308 305 301 299 299 299 298 298 298 298 297 295 294 293 290 290 290 290 290 290 291 291 291 291 290 289 289 290 290
324 318 318 317 315 314 313 311 310 310 307 305 305 303 303 301 300 299 298 298 298 298 298 298 295 293 292 292 290 290 290 290 290 290 290 290 291 291 290 290 289 290 289 289
318 316 317 314 311 309 308 307 306 305 304 304 303 303 303 302 301 299 298 298 298 297 294 294 293 292 290 290 290 290 290 290 290 290 290 290 290 289 289 289 289 289 289 289
313 314 313 313 309 308 305 303 303 302 301 300 299 298 297 297 297 297 297 296 295 294 293 292 291 291 292 291 291 291 291 290 290 291 291 290 289 288 288 287 287 288 288 288
310 311 310 308 306 303 302 301 300 299 298 297 297 297 297 297 296 296 295 295 293 291 293 293 293 292 291 291 292 292 291 291 292 291 291 290 289 289 288 288 287 288 288 288
309 308 306 304 303 302 300 299 298 298 298 298 298 297 296 294 294 293 293 293 291 291 291 291 291 291 291 290 291 291 292 292 292 291 291 290 290 289 288 288 288 288 287 287
306 303 302 301 301 300 300 299 298 297 295 292 290 290 290 290 291 291 291 291 291 291 290 290 291 292 291 291 291 291 292 292 291 291 291 290 289 288 288 288 288 288 287 286
305 302 301 301 300 299 297 295 293 291 290 291 291 291 290 290 290 290 290 290 289 289 290 292 291 291 290 290 290 290 290 291 290 291 289 289 288 287 287 286 286 287 287 287
301 300 299 298 297 296 292 291 291 291 291 290 290 290 290 289 288 287 286 286 286 288 289 288 287 287 287 288 289 289 289 288 289 289 289 289 288 287 286 286 287 287 287 287
297 296 296 294 292 291 291 291 292 291 290 289 289 288 287 286 286 286 286 286 287 287 287 285 285 284 285 286 286 286 286 287 287 289 289 288 287 286 286 286 286 287 287 286
295 292 291 291 291 291 291 290 290 289 289 288 287 286 285 285 285 285 285 285 286 285 284 283 281 282 282 282 282 283 284 285 285 285 286 288 287 286 285 285 285 285 285 285
292 292 292 291 291 291 290 290 289 288 287 286 286 285 284 283 283 283 283 284 283 282 280 280 280 280 280 280 281 282 284 284 285 285 286 287 286 285 284 283 282 282 282 282
292 292 292 292 291 290 289 289 288 288 286 285 285 284 282 281 282 281 282 281 279 278 278 278 278 278 278 279 279 279 280 280 281 281 281 281 281 281 280 280 280 279 279 279
292 292 292 292 290 289 288 288 286 286 285 283 283 282 281 280 280 280 279 278 277 277 277 276 276 277 277 277 277 277 277 276 277 277 278 278 277 277 277 277 277 277 278 278
292 292 291 290 288 287 286 285 284 284 283 282 282 280 280 279 279 278 277 276 275 275 274 274 273 274 275 275 275 275 274 274 274 275 275 275 275 275 275 274 275 275 276 275
291 290 289 288 286 285 285 283 282 282 281 281 280 279 279 278 277 276 275 275 274 273 273 272 272 271 271 272 271 271 271 271 272 272 272 272 272 272 273 273 273 273 273 274
289 287 286 285 284 283 282 281 280 279 279 279 278 277 278 277 276 275 274 273 273 272 271 271 270 270 270 269 269 268 268 269 270 269 270 270 271 271 271 271 271 271 272 272

GFSNGP_850_thetae_027.txt.gz
Theta_e
321 322 322 321 322 321 319 319 318 318 320 318 317 315 316 318 318 318 320 323 323 322 320 320 319 318 318 317 315 312 308 308 306 303 301 301 300 300 299 298 297 296 295 295
321 320 318 318 319 318 318 318 317 318 318 316 317 317 316 317 316 318 317 317 317 322 321 321 319 318 317 317 314 310 308 307 306 302 300 300 299 299 298 297 295 294 295 295
319 315 314 310 313 316 318 317 317 315 315 313 315 315 316 317 317 317 317 317 317 319 321 321 320 318 317 316 312 309 308 307 302 301 300 299 298 297 295 294 293 294 294 294
313 311 308 313 315 314 316 314 313 313 313 314 314 316 316 316 316 315 316 316 316 316 317 319 319 318 317 314 310 307 307 304 301 300 298 297 296 294 294 293 294 293 293 293
312 313 313 315 316 317 315 314 314 313 313 314 315 315 317 315 315 315 315 314 314 315 316 317 317 316 315 309 307 306 303 301 300 297 296 295 295 294 293 293 293 292 293 294
311 313 311 315 315 315 315 313 315 315 314 315 315 309 314 316 316 315 315 315 315 315 315 316 314 312 310 306 304 301 299 297 296 296 297 295 293 293 293 292 292 293 293 293
308 309 313 318 315 315 311 312 316 315 315 315 314 316 317 316 316 315 314 315 314 314 313 309 306 307 304 300 299 297 297 298 299 299 294 293 292 292 293 292 292 291 292 293
313 314 316 315 315 311 315 315 315 314 314 315 315 315 315 316 314 314 313 312 311 311 308 303 302 303 302 301 299 299 300 300 298 294 293 291 292 292 292 291 290 290 292 292
315 313 315 314 314 314 314 314 315 316 316 316 317 317 316 312 312 310 309 309 306 306 304 302 301 300 300 301 301 299 297 294 294 290 291 292 292 290 290 290 291 290 290 291
314 316 315 314 315 316 315 316 316 317 316 316 316 315 312 309 306 305 304 304 302 302 301 300 299 300 299 298 297 295 294 291 290 290 290 290 290 290 291 291 291 291 289 289
314 315 317 316 316 316 316 316 314 314 312 310 313 309 308 304 302 301 301 300 299 299 298 298 298 298 297 295 293 291 290 290 290 290 289 290 290 290 290 291 291 290 289 289
309 317 314 312 312 313 313 310 308 310 308 305 305 304 304 302 300 299 299 298 298 298 298 296 295 294 292 291 290 290 289 290 290 290 290 290 290 290 290 290 288 288 289 289
316 316 313 310 311 309 309 308 307 307 306 305 303 302 301 299 297 297 298 298 297 295 294 293 293 291 291 291 291 291 291 291 290 290 290 290 291 291 290 290 289 288 287 288
314 312 310 310 305 307 307 305 304 302 300 299 298 298 298 297 297 296 295 294 294 293 292 292 293 293 293 292 292 292 292 292 292 291 291 291 291 291 290 289 289 288 288 288
312 314 308 306 305 303 302 301 299 298 297 297 297 297 296 296 295 294 294 294 294 292 291 291 291 291 291 291 290 290 291 292 292 292 291 291 291 291 290 290 289 288 288 288
308 307 306 304 302 301 299 298 298 298 298 298 297 296 295 293 293 292 292 291 290 290 290 290 291 291 291 291 290 290 290 291 291 291 291 291 291 291 290 290 288 288 287 287
306 303 302 301 300 299 299 298 298 298 294 292 290 290 290 290 290 290 290 289 288 287 289 289 288 288 287 286 287 287 288 288 288 288 289 289 289 290 289 289 288 287 286 286
307 304 302 300 299 299 298 296 293 291 291 290 290 290 290 289 288 287 286 286 286 286 288 287 286 286 284 283 284 285 286 286 286 286 287 287 287 288 289 289 288 286 286 286
302 301 300 300 299 297 292 291 291 290 290 290 289 288 287 286 286 286 285 285 285 286 285 284 284 282 281 281 281 280 281 281 282 282 283 285 285 285 287 289 287 286 286 286
299 299 299 298 294 292 291 291 290 290 289 288 287 287 286 286 285 284 284 284 285 284 283 281 280 279 279 279 279 280 280 281 281 282 283 284 285 285 287 287 286 285 285 285
298 297 294 292 291 291 291 290 290 289 288 288 287 286 285 284 283 282 282 283 282 281 279 278 278 278 278 278 278 278 279 279 280 280 281 281 281 283 283 283 283 283 283 283
292 291 291 291 291 290 290 289 288 288 287 287 286 285 283 282 281 281 281 281 280 279 278 277 277 277 277 277 277 277 277 277 277 277 278 278 278 278 279 279 279 280 280 280
292 291 291 291 290 290 289 288 287 287 286 285 285 283 282 281 280 280 280 279 278 277 277 276 276 276 276 276 275 275 275 275 275 275 275 275 275 275 275 275 276 276 277 277
292 292 292 291 289 289 288 286 286 285 284 283 283 282 281 280 279 279 278 277 277 276 275 274 274 274 274 274 273 273 273 272 273 273 273 273 273 273 273 273 274 274 274 275
292 292 290 289 288 287 286 285 284 284 283 282 281 280 279 279 278 278 277 276 275 274 273 273 272 272 272 272 271 271 270 270 270 270 271 271 271 271 271 271 272 272 272 273
291 289 289 288 287 286 285 284 283 282 281 280 279 278 278 278 277 277 276 275 274 273 272 271 271 271 270 270 269 269 269 269 269 270 270 269 269 270 270 270 270 271 271 271
289 288 287 286 285 285 282 282 281 280 279 279 278 277 277 277 276 275 274 273 273 271 271 270 270 270 269 269 268 268 269 269 269 269 269 268 268 269 269 269 269 269 270 270

GFSNGP_850_thetae_030.txt.gz
Theta_e
316 320 321 319 321 321 318 317 316 316 317 316 316 314 314 317 317 321 325 326 324 323 323 322 320 319 319 318 318 317 315 312 310 308 307 303 301 301 300 298 298 297 295 294
320 317 316 317 316 316 317 317 317 317 317 311 313 315 315 315 317 316 318 318 319 322 321 320 319 319 318 318 317 316 314 310 308 306 303 301 301 299 298 298 296 294 295 293
317 312 311 312 313 314 316 317 316 314 314 312 312 313 313 315 316 316 316 317 317 318 320 320 320 319 319 318 317 315 310 307 305 304 301 300 298 297 297 298 296 295 293 294
311 308 310 314 313 313 313 312 311 312 312 312 314 314 314 314 314 314 314 314 315 316 317 319 319 319 318 317 315 310 307 306 305 301 300 298 297 298 299 298 295 293 293 293
310 310 312 314 315 312 313 314 313 312 312 313 315 316 316 314 314 315 314 314 314 314 314 315 319 318 317 314 310 307 306 301 298 297 297 298 299 300 297 294 293 292 292 292
310 311 309 311 314 314 312 313 314 313 313 314 313 308 313 314 315 315 314 314 314 314 315 315 316 316 315 311 307 305 299 297 297 298 301 300 299 295 293 292 292 291 291 292
303 306 309 311 314 313 310 309 314 314 314 314 312 314 315 314 314 314 314 313 312 312 313 312 310 309 309 303 300 298 299 300 300 301 300 296 294 292 291 292 291 291 290 289
311 309 313 314 313 312 310 314 314 314 314 315 316 315 314 313 313 311 311 310 309 309 307 304 303 303 303 303 302 301 300 301 300 297 293 291 291 291 291 290 290 290 290 290
311 311 313 313 314 315 314 314 315 315 316 316 316 314 312 310 309 307 306 305 304 304 303 301 300 300 300 301 301 300 298 294 293 291 290 290 290 290 290 290 290 290 290 290
313 314 313 314 313 314 315 315 315 316 316 316 314 310 308 306 304 303 301 300 300 299 299 299 299 299 298 297 296 294 292 290 290 290 290 290 289 289 289 289 289 290 290 290
312 315 315 314 313 313 313 313 313 313 313 313 312 306 304 302 301 300 299 299 299 298 298 298 297 294 293 292 291 290 290 289 289 289 289 289 289 290 290 289 290 290 290 289
310 315 313 312 310 312 312 311 310 311 308 306 307 304 302 300 299 299 298 298 298 297 295 294 293 292 291 291 291 290 290 290 290 290 290 290 290 290 290 290 290 290 289 288
315 315 314 310 309 309 311 308 307 307 305 304 302 302 300 299 298 298 296 295 294 293 292 292 292 292 292 292 291 291 290 291 291 291 291 291 291 291 291 290 290 290 289 290
316 314 307 308 306 306 307 305 304 302 300 300 299 298 297 295 295 295 294 294 293 291 291 291 291 291 291 291 290 290 290 290 290 291 291 291 291 291 291 291 290 290 290 290
312 314 312 307 305 304 303 301 300 298 297 297 296 296 295 295 294 294 294 293 292 290 290 290 290 290 290 290 289 289 288 288 288 288 288 289 289 289 290 290 290 291 289 289
309 309 306 305 303 301 300 298 298 297 297 296 296 295 294 294 293 292 290 290 289 289 289 288 287 287 286 286 285 284 283 284 285 284 285 285 286 287 287 287 288 288 289 288
305 302 302 300 300 298 298 298 298 297 297 295 293 290 291 290 290 289 287 286 286 287 287 287 286 285 284 282 282 281 281 280 280 280 281 281 282 283 284 284 285 286 286 287
308 305 303 303 300 299 298 298 296 293 291 290 290 290 289 288 287 286 286 286 286 286 286 285 283 282 280 280 280 279 279 279 280 280 281 281 282 283 283 284 284 285 286 287
305 303 301 300 299 298 297 293 291 291 290 290 289 288 287 287 286 286 285 284 284 284 283 282 280 279 279 279 278 278 278 278 279 279 279 280 280 281 281 281 283 285 286 286
301 301 300 299 296 296 292 291 290 290 288 287 287 287 287 286 285 284 283 283 283 282 281 279 279 278 278 277 277 277 277 277 277 277 278 278 278 279 279 280 280 281 281 282
300 299 298 296 292 292 291 290 289 288 287 286 286 286 285 285 283 282 282 281 281 280 279 278 277 277 277 276 276 276 276 276 276 276 276 276 276 276 276 276 277 278 278 278
297 295 293 293 293 291 290 289 288 288 287 287 286 285 284 283 282 281 280 279 278 278 277 276 276 276 276 276 275 275 275 275 274 274 274 274 274 274 274 274 274 275 275 276
292 293 292 291 290 289 288 287 287 287 287 286 285 284 283 281 280 279 279 278 277 276 276 275 275 274 275 275 275 274 274 273 273 273 272 272 272 272 272 272 272 273 273 273
293 291 290 289 289 288 288 286 286 286 285 284 283 282 281 280 279 278 278 277 276 275 274 274 274 274 274 274 273 273 272 272 272 271 271 271 270 270 270 271 271 271 271 271
291 291 290 288 287 287 286 286 285 284 283 282 281 280 279 278 278 278 277 276 275 274 274 274 273 273 273 272 272 272 271 271 270 270 270 270 270 270 270 270 270 270 270 270
291 290 288 287 286 285 285 284 284 282 281 280 279 279 278 277 277 276 276 275 274 273 273 273 273 272 271 271 271 270 270 270 270 270 269 269 269 269 269 269 269 269 269 269
289 288 287 285 284 283 282 281 280 280 279 278 278 278 277 276 276 275 274 273 272 272 272 271 271 271 270 270 270 270 269 269 269 269 268 268 268 268 268 268 268 268 268 269

GFSNGP_850_thetae_033.txt.gz
Theta_e
314 314 319 318 319 318 317 316 316 316 315 315 315 313 312 314 316 318 322 325 327 327 328 328 328 327 325 324 322 321 318 317 317 315 313 310 307 303 301 300 298 297 296 295
318 316 315 316 315 314 315 316 315 315 315 312 312 313 313 313 315 317 320 322 324 325 325 325 325 324 323 322 321 319 317 317 315 310 306 304 302 301 299 297 296 295 299 299
316 311 311 312 312 313 314 314 315 314 312 311 312 311 311 314 316 316 317 317 317 318 319 319 319 319 319 319 319 317 316 314 310 307 305 303 301 299 297 297 299 299 299 296
310 308 311 314 312 311 312 311 310 311 311 312 311 312 313 313 313 313 314 314 315 315 316 317 318 318 318 317 316 314 312 309 307 305 302 298 297 297 298 298 299 300 295 293
311 311 312 314 311 312 312 313 312 310 310 313 313 314 314 314 314 314 314 314 314 314 314 315 317 318 317 316 314 311 307 305 301 298 297 297 298 298 299 300 298 294 292 291
307 310 312 312 311 313 311 312 312 311 311 312 311 307 311 313 314 314 314 314 314 314 314 314 314 315 314 311 309 306 302 299 298 298 298 299 299 300 299 296 293 291 291 290
303 306 308 308 312 311 312 311 313 313 314 312 310 311 315 313 313 313 312 312 312 311 311 310 309 309 309 306 303 300 299 299 300 300 300 300 297 293 292 291 291 290 290 289
305 305 312 311 312 310 309 312 314 314 314 314 314 314 313 311 310 310 309 307 307 307 306 303 302 303 302 302 302 302 301 301 301 298 294 292 291 291 291 291 290 289 289 289
311 311 310 312 312 313 315 314 313 313 314 314 313 310 309 308 307 305 305 305 303 304 302 301 300 300 300 300 300 299 296 294 292 290 290 290 290 290 290 289 289 289 289 289
311 313 313 313 314 314 314 314 314 314 315 314 313 308 307 305 304 303 302 301 301 300 300 300 299 298 297 294 293 292 290 290 289 289 289 289 289 289 289 289 289 289 289 289
312 313 313 313 313 313 314 314 315 315 315 314 313 307 306 303 301 300 300 299 299 299 298 296 293 292 291 291 291 290 290 290 290 290 290 290 290 289 290 290 290 290 290 290
311 314 312 313 312 312 313 312 313 313 310 308 309 307 303 301 299 299 298 298 296 294 293 292 292 292 292 291 291 291 290 290 290 290 290 290 290 290 291 291 291 291 291 290
313 315 313 312 310 310 311 310 309 309 308 306 303 302 300 299 298 297 295 294 293 293 292 292 292 292 291 291 290 290 290 290 290 290 290 289 289 289 289 287 289 290 290 291
315 314 307 309 307 308 308 306 305 304 303 302 301 299 298 297 295 294 294 293 292 291 291 291 290 290 290 290 289 288 287 286 285 284 284 284 284 285 286 287 287 287 286 287
312 313 313 309 307 305 305 304 303 301 299 298 298 297 296 295 294 294 293 293 292 290 290 290 289 288 287 287 286 284 283 282 282 281 281 281 280 280 281 282 283 284 285 285
309 310 308 307 304 302 302 300 300 297 297 296 296 295 294 293 293 292 291 290 289 289 288 287 287 286 285 284 283 282 281 281 280 280 280 280 280 280 281 282 282 283 283 284
305 300 302 301 301 299 299 298 298 297 296 295 295 294 293 291 290 289 287 287 287 287 286 286 285 283 282 281 281 281 280 280 279 279 279 279 279 280 280 280 281 281 281 282
310 307 305 306 302 299 297 297 297 296 295 294 291 290 290 289 288 287 287 286 286 285 284 284 283 281 280 280 280 279 279 278 278 277 277 277 278 278 278 279 279 280 280 281
308 307 304 303 300 299 298 297 295 293 291 290 289 288 287 287 287 286 285 284 284 283 283 282 281 280 279 279 278 278 277 277 277 277 276 276 277 277 277 277 277 277 278 279
303 303 302 300 298 298 296 293 291 290 290 288 288 288 288 287 285 284 284 283 283 282 281 280 279 279 278 278 277 277 276 276 276 276 275 275 275 275 275 275 275 275 275 276
300 300 299 298 297 295 292 291 291 289 288 287 287 288 286 285 284 283 282 282 281 280 279 279 278 277 277 277 276 276 275 275 275 275 274 274 274 274 273 273 273 273 274 274
299 298 296 294 291 292 292 290 289 288 287 287 286 285 284 283 282 281 281 280 279 279 278 277 276 276 276 276 275 275 274 274 274 273 273 273 273 272 272 272 272 272 272 272
297 294 292 294 293 291 289 287 287 287 286 285 284 284 283 282 281 280 280 279 278 277 276 275 275 274 274 274 274 274 273 273 273 273 272 272 271 271 271 271 271 271 271 271
293 294 292 292 291 289 287 285 285 285 285 284 284 283 282 281 280 279 278 278 276 275 274 274 273 273 273 273 273 273 272 272 272 271 271 271 271 270 270 270 270 270 270 270
293 291 290 288 287 286 286 285 285 284 284 283 282 281 280 279 278 278 277 276 275 274 273 273 273 272 272 272 272 272 272 271 271 270 270 270 270 270 269 269 269 269 269 269
290 289 287 287 286 286 285 284 284 283 282 281 280 279 278 277 277 276 275 274 274 273 272 272 272 271 271 271 271 271 271 270 269 269 269 269 269 269 269 269 269 269 269 269
289 288 286 285 284 284 284 283 282 281 280 279 278 277 277 276 275 274 274 273 272 272 272 271 271 270 270 270 270 270 269 269 268 268 269 269 268 268 268 268 268 268 268 268

GFSNGP_850_thetae_036.txt.gz
Theta_e
314 314 315 316 318 315 316 315 316 316 313 314 313 312 311 313 313 315 317 322 323 325 327 327 328 328 327 326 326 325 323 320 318 317 315 312 311 309 304 301 300 299 297 296
317 315 315 317 315 314 315 315 314 313 314 311 311 312 312 311 315 318 320 321 323 323 323 323 324 325 325 325 324 322 320 318 316 314 311 310 308 306 302 301 299 298 296 297
316 311 313 313 311 313 313 312 314 315 313 310 311 311 311 313 315 315 316 317 317 317 318 318 318 318 318 318 318 318 317 316 313 310 308 307 303 301 300 299 298 296 297 299
309 308 312 313 311 311 311 310 310 309 310 309 310 311 311 312 313 313 314 314 314 314 314 314 314 315 317 317 316 315 314 311 309 308 306 303 300 298 298 297 297 298 299 299
312 311 311 313 311 311 311 311 309 309 309 310 312 313 310 311 312 312 312 313 313 313 313 314 314 315 316 315 313 311 309 307 305 303 301 298 297 298 297 299 299 299 298 294
305 310 312 312 311 311 310 311 309 310 309 310 311 305 309 309 310 312 313 313 313 313 313 313 313 312 312 311 309 307 305 303 300 299 298 298 299 299 300 299 298 293 292 291
302 306 310 309 310 311 312 311 311 312 312 312 309 308 311 310 311 311 311 311 310 310 310 309 308 307 308 305 303 301 300 300 299 299 300 300 299 296 291 291 291 291 291 290
305 306 316 310 311 311 310 310 312 313 313 312 312 313 312 311 310 309 309 307 307 307 305 303 302 303 302 301 300 300 301 301 300 296 293 291 290 290 290 290 290 290 290 289
312 313 311 311 311 312 312 312 312 313 313 313 313 312 311 309 307 306 305 305 303 303 302 300 300 300 300 299 298 296 294 292 290 290 289 289 289 289 289 289 289 289 289 289
310 311 309 313 312 313 313 314 313 314 313 313 313 311 309 307 305 304 302 302 301 300 300 299 298 298 297 294 293 291 290 290 290 290 290 290 290 289 289 289 289 289 290 290
309 312 312 313 312 313 313 313 313 313 313 313 312 308 308 305 303 301 300 299 299 299 298 296 294 293 292 291 291 290 290 290 290 290 290 290 290 289 290 290 290 290 290 290
313 312 313 313 313 312 312 313 313 314 313 311 310 309 305 302 300 299 299 298 298 296 295 294 292 292 291 291 291 290 290 290 289 289 288 287 286 286 285 284 284 284 284 286
314 314 313 313 312 311 312 312 313 313 312 310 307 306 303 300 299 298 298 296 295 293 292 292 291 291 290 290 289 288 287 286 286 285 284 283 283 282 282 282 281 281 281 283
315 314 309 310 309 310 311 310 309 309 308 307 305 302 300 299 297 296 295 293 292 291 291 291 290 290 289 287 287 286 284 284 283 282 282 281 281 280 280 280 281 281 281 282
311 313 314 311 308 307 308 307 306 304 303 301 300 300 299 297 295 294 292 292 291 290 290 289 288 287 286 285 284 283 283 282 282 281 280 280 279 279 279 279 280 280 280 281
310 310 309 309 306 305 305 304 305 301 300 299 298 297 296 295 294 293 292 291 290 289 288 287 286 285 284 283 283 282 281 281 280 279 279 279 278 278 278 278 278 278 279 279
307 301 303 302 304 303 304 303 303 301 299 298 296 295 294 293 292 291 289 288 287 287 286 285 284 283 282 282 281 280 280 279 279 278 278 278 277 277 277 277 277 277 277 277
311 310 307 308 305 303 300 300 300 298 297 295 294 293 292 290 289 288 287 287 286 285 284 284 283 282 281 280 280 279 279 278 278 277 277 276 276 276 275 275 275 275 276 276
309 308 305 304 303 301 299 297 297 296 295 294 292 290 289 288 287 287 286 285 284 284 283 282 281 280 280 279 279 278 278 277 277 276 276 276 275 275 275 274 274 274 274 274
304 304 303 302 300 300 298 296 294 294 292 290 290 289 287 287 286 285 284 283 283 283 282 281 280 279 279 278 277 277 277 276 276 275 275 275 274 274 274 273 273 273 273 273
301 301 300 300 298 296 295 293 292 290 291 290 287 287 287 286 284 284 283 283 282 281 281 280 279 278 277 277 276 276 275 275 275 274 274 274 274 273 273 272 272 272 272 272
300 299 298 296 295 294 292 291 291 291 288 288 286 286 285 285 284 283 282 281 280 280 279 278 277 277 276 276 275 275 274 274 274 273 273 273 273 272 272 272 271 271 271 270
296 296 296 295 292 291 290 289 289 288 287 286 285 284 283 283 282 281 280 280 279 278 278 277 275 275 274 274 274 273 273 273 273 273 272 272 271 271 270 270 270 270 270 270
295 294 292 292 291 290 289 286 285 285 285 284 283 282 282 281 280 279 279 278 278 277 276 275 274 273 273 272 272 272 272 272 272 271 271 271 270 270 270 269 269 269 269 269
293 292 292 291 289 287 286 285 284 284 283 283 282 281 280 280 279 278 278 277 276 275 274 273 272 271 271 271 271 271 271 271 271 270 270 269 269 269 269 269 269 269 269 269
291 290 289 288 286 285 285 284 284 283 283 283 282 281 280 279 278 277 276 275 274 274 273 272 271 270 270 270 270 270 270 270 270 269 269 269 269 268 268 268 268 268 268 268
287 286 286 285 285 284 284 283 283 282 281 281 280 279 278 278 277 275 274 274 273 272 271 270 270 269 269 269 270 270 270 269 268 268 268 268 268 267 267 267 268 268 268 268

GFSNGP_850_thetae_039.txt.gz
Theta_e
315 314 315 316 318 317 318 319 322 321 316 318 318 317 315 313 313 315 316 320 322 323 325 326 327 327 328 327 327 326 325 324 323 320 319 317 316 313 309 305 301 301 300 299
315 314 315 318 316 317 317 316 316 316 317 315 313 312 312 311 315 317 319 320 321 322 323 323 323 323 323 322 322 321 320 318 318 316 314 313 310 306 304 302 301 299 297 296
318 312 315 318 316 316 315 315 318 319 319 314 313 312 312 313 314 313 315 316 316 316 316 317 317 317 317 317 317 317 317 317 315 314 311 309 306 306 304 301 298 297 298 300
316 312 321 317 312 313 316 315 313 313 313 312 312 310 310 311 312 312 312 313 314 314 313 313 314 314 315 316 316 315 314 313 311 309 308 306 304 302 300 299 298 301 300 299
319 318 315 314 313 314 315 316 313 313 311 310 310 310 308 309 310 311 312 312 313 313 313 314 314 314 314 314 313 312 310 308 307 305 304 303 301 302 298 300 299 298 299 299
310 319 321 317 313 310 312 316 312 311 312 312 311 317 314 308 310 311 312 312 312 312 312 312 312 312 312 311 309 307 304 303 302 300 299 299 298 299 300 300 299 296 294 292
310 319 316 313 310 311 317 319 311 311 312 312 313 311 312 309 309 309 309 310 310 310 311 310 309 308 308 306 304 302 301 300 299 299 300 300 297 293 291 291 291 291 290 290
311 317 322 310 310 316 316 311 311 311 312 311 311 310 309 308 308 307 308 308 308 308 307 305 304 304 303 302 300 300 301 301 299 295 292 291 290 290 290 290 289 289 289 289
318 321 315 310 314 313 312 312 311 312 312 312 310 309 308 307 306 306 306 306 304 305 304 302 301 301 301 300 299 297 295 293 291 290 290 290 289 289 289 290 290 290 290 290
316 315 313 312 311 312 312 312 312 313 313 313 311 309 307 305 304 304 303 303 302 302 301 299 299 299 298 295 293 291 291 290 290 290 290 290 289 289 289 288 288 287 287 286
314 312 312 312 313 313 313 312 312 312 313 312 311 308 307 305 303 302 301 300 300 300 298 296 294 294 292 292 291 290 290 290 290 289 288 287 286 285 284 283 282 282 282 283
317 314 315 315 315 314 313 313 313 313 311 310 311 310 307 304 302 300 299 298 298 297 296 293 293 292 291 291 290 290 289 287 287 286 285 284 284 283 283 282 281 281 281 281
314 315 313 313 313 314 313 313 313 312 312 311 308 308 306 303 299 298 298 297 296 295 293 292 291 291 290 289 288 287 286 285 285 284 283 283 282 282 281 281 281 280 279 279
314 315 311 312 312 311 311 312 312 311 310 310 308 305 303 300 298 298 296 295 294 293 292 291 290 289 288 287 286 285 284 284 283 282 282 281 281 280 280 279 279 278 278 278
314 313 315 314 311 310 310 310 310 309 307 305 303 302 300 298 297 296 294 293 292 291 290 289 288 287 286 285 284 284 283 282 282 281 280 280 279 279 278 278 278 277 277 277
310 310 311 310 310 308 308 307 309 305 303 302 300 299 298 298 296 294 292 291 290 289 288 287 286 285 284 284 283 282 282 281 280 280 279 278 278 278 277 277 277 276 276 276
308 304 304 304 304 302 302 301 303 303 301 299 298 298 297 295 293 292 291 290 289 287 287 285 285 284 283 283 282 281 280 280 279 278 278 277 277 277 276 276 276 275 275 275
308 308 306 305 302 303 301 302 302 299 298 297 295 295 294 293 292 291 289 288 287 286 285 284 284 283 282 281 280 280 279 278 278 277 277 277 276 276 275 275 275 274 274 274
307 310 309 304 302 304 301 299 299 298 297 296 294 293 292 290 289 288 287 287 286 284 284 283 282 281 280 280 279 278 278 277 277 276 276 276 275 275 274 274 274 273 273 273
305 305 304 302 301 301 299 298 297 296 294 294 293 289 289 289 287 288 286 285 284 283 282 281 280 280 279 278 278 277 277 276 276 275 275 275 274 274 273 273 272 272 272 272
302 299 299 298 297 297 297 296 295 294 292 289 290 290 289 289 287 285 284 283 282 281 280 280 279 278 278 277 277 276 276 275 275 274 274 273 273 272 272 272 271 271 271 271
296 296 296 296 296 294 294 293 292 291 290 290 289 288 288 285 284 283 282 281 280 280 279 278 278 277 276 276 275 275 274 274 274 273 272 272 272 271 271 270 270 270 270 270
295 295 295 294 294 292 290 290 291 290 288 287 286 285 284 283 282 281 280 280 279 278 278 277 276 275 275 274 274 273 273 273 272 272 271 270 270 270 269 269 269 269 269 269
293 293 292 291 291 290 289 286 286 286 285 284 283 282 281 281 280 280 279 278 278 277 276 275 275 274 274 273 273 272 272 272 271 270 270 269 269 269 269 269 269 269 269 269
291 290 289 289 288 287 286 285 284 283 283 283 282 281 281 280 281 280 279 278 277 276 275 274 274 273 272 272 272 271 270 270 269 269 269 268 268 268 268 268 268 268 268 268
288 287 287 286 286 285 284 284 284 283 282 282 282 281 281 280 279 278 277 276 275 274 274 273 272 271 271 270 270 269 269 269 268 268 268 268 268 268 268 268 268 268 268 268
285 285 284 284 283 283 282 282 282 281 281 280 280 279 278 277 277 276 275 274 273 272 272 271 270 270 269 269 268 268 268 268 268 267 267 267 267 267 267 267 267 268 267 267

GFSNGP_850_thetae_042.txt.gz
Theta_e
319 318 318 318 318 321 321 322 322 322 321 321 320 321 320 318 317 318 320 322 325 327 327 327 327 326 326 327 327 326 326 325 324 323 321 320 319 318 317 315 313 312 309 303
320 319 319 319 319 319 321 320 321 321 320 320 320 320 319 317 318 320 320 321 322 324 324 324 324 323 325 325 324 322 321 320 319 319 318 316 315 313 312 309 306 302 304 300
319 319 319 321 321 320 321 321 321 321 321 320 320 320 319 318 319 318 318 317 317 317 317 318 318 318 318 318 317 317 317 316 316 315 314 312 310 308 306 304 302 303 300 302
321 318 326 319 319 320 320 321 321 320 320 319 319 318 316 317 317 315 314 313 312 313 314 314 314 314 315 315 315 315 314 313 312 311 309 307 306 305 303 302 302 300 298 298
327 321 320 318 317 318 320 321 320 320 319 318 316 314 313 312 313 312 311 310 311 311 312 313 313 314 313 313 311 309 307 307 306 304 303 302 301 301 300 299 299 299 299 299
319 323 326 319 320 317 318 323 320 319 319 318 315 319 319 310 308 308 309 310 311 311 311 312 312 311 310 308 307 305 304 303 302 301 301 300 300 301 300 300 298 295 294 294
324 326 322 320 317 315 321 323 319 318 317 317 318 318 315 309 308 307 308 309 309 308 309 309 308 307 305 305 304 303 302 302 302 302 302 300 296 294 293 293 292 292 290 290
323 327 327 316 315 320 322 319 318 317 317 317 316 312 309 308 306 306 306 306 305 306 305 305 305 306 306 305 302 302 302 302 299 294 292 291 291 290 290 291 291 292 291 292
322 323 322 315 320 318 319 319 317 317 316 316 312 310 308 307 306 305 305 304 304 304 304 302 302 302 303 303 302 301 298 294 292 291 290 290 290 290 292 292 291 290 289 289
320 321 320 318 317 316 315 316 316 315 316 314 311 309 307 306 305 304 304 303 302 301 301 300 298 299 301 299 296 294 292 291 290 290 290 289 288 287 287 286 286 286 286 286
321 321 317 317 317 317 315 313 313 314 315 313 311 308 307 305 304 303 302 301 300 299 298 297 299 299 296 293 292 291 290 290 289 288 287 286 286 285 284 283 283 282 282 282
325 322 321 321 319 317 315 313 313 313 313 312 310 308 306 304 303 302 300 299 298 296 297 297 296 294 292 291 290 290 289 287 287 286 285 284 284 284 283 282 281 281 280 279
319 317 316 317 313 316 315 313 313 312 312 311 309 306 304 303 301 300 298 297 295 295 296 294 293 291 290 289 288 287 287 286 285 285 283 283 282 282 282 282 280 280 279 279
315 315 314 318 314 313 314 312 311 310 309 307 305 303 302 301 298 298 297 295 295 295 294 292 290 289 288 287 286 286 285 285 284 283 282 281 281 280 280 280 280 280 279 278
314 314 314 313 312 309 312 311 308 307 306 304 302 301 300 298 297 296 293 294 294 293 291 289 289 287 286 285 285 285 284 283 282 282 281 280 280 279 279 278 278 278 277 277
312 310 312 312 308 305 305 304 305 302 301 300 299 298 297 296 293 291 290 291 291 289 287 287 286 285 285 284 283 283 282 282 281 280 280 279 279 278 278 277 277 277 276 275
307 306 305 307 308 304 305 302 301 300 299 298 297 296 293 292 289 288 289 289 289 288 285 284 284 284 284 283 282 281 281 280 280 279 279 278 278 277 277 276 276 275 274 274
307 308 308 308 304 302 300 301 299 299 297 295 294 294 292 291 291 291 291 289 287 286 285 284 284 283 282 282 281 280 280 279 279 278 278 277 277 276 276 276 275 274 273 273
306 305 304 303 302 300 301 300 300 300 296 294 293 293 293 293 292 290 289 287 286 285 284 282 281 281 281 280 279 279 279 278 277 277 276 276 276 275 275 275 274 273 272 272
304 304 302 299 298 298 298 297 296 295 294 294 294 292 292 290 290 289 286 285 284 283 281 281 280 280 280 279 278 278 277 277 276 276 275 275 274 274 274 273 273 272 271 270
297 297 296 296 295 294 295 295 295 293 293 292 292 291 289 288 287 286 285 283 281 281 280 280 279 279 278 277 277 276 276 275 275 275 274 274 273 273 273 272 271 270 270 269
293 294 293 293 293 292 292 293 293 292 291 290 290 289 288 287 286 284 283 281 281 280 279 279 278 277 277 276 275 274 274 274 273 273 272 272 272 272 271 271 270 270 269 269
292 292 292 293 292 291 291 291 290 289 289 288 287 287 286 285 283 282 281 280 280 279 278 278 278 277 276 274 274 273 273 272 272 271 271 271 271 271 270 269 269 269 268 268
291 291 290 290 290 290 288 287 287 286 286 285 285 283 282 282 281 280 280 279 279 279 278 278 276 275 274 273 272 272 271 270 270 270 269 270 269 269 268 268 268 268 268 268
288 288 288 288 287 285 285 285 285 284 284 283 282 282 281 281 281 280 280 279 278 277 276 275 274 273 272 271 271 270 270 269 268 269 268 268 267 267 267 267 267 267 267 268
286 286 285 285 284 284 283 283 282 282 281 281 281 280 280 280 279 278 277 276 276 275 274 273 272 271 270 270 269 269 269 267 267 266 267 267 266 267 267 267 267 267 267 267
283 283 282 282 282 282 282 281 281 280 280 279 279 278 278 277 277 276 275 274 273 272 272 271 270 270 269 269 268 267 266 265 266 267 267 266 266 266 266 266 266 267 267 267

GFSNGP_850_thetae_045.txt.gz
Theta_e
320 321 321 321 321 321 321 321 323 322 322 322 322 321 320 321 320 319 320 320 322 327 328 330 330 331 331 328 327 326 326 325 324 322 320 319 317 316 317 318 316 315 313 309
320 321 320 319 319 319 319 320 321 321 321 321 320 319 319 320 320 320 322 323 325 327 329 330 329 328 326 325 323 322 321 319 317 316 315 314 314 315 313 311 310 309 308 307
323 321 321 323 319 319 319 320 321 321 321 321 321 320 320 320 320 322 322 323 324 326 327 327 325 324 322 320 318 317 315 313 312 313 314 313 312 310 308 306 303 301 302 301
324 322 325 320 320 320 319 320 320 320 321 321 320 319 320 320 320 321 321 321 320 320 320 321 320 318 316 315 314 312 311 310 311 311 312 310 308 306 304 303 303 303 301 299
327 325 320 319 320 320 320 320 320 320 320 320 320 319 319 318 320 319 318 317 317 316 316 315 315 314 313 312 311 310 309 308 308 307 306 304 303 303 302 301 301 301 301 300
324 324 325 321 320 319 320 323 320 320 320 320 319 322 320 317 317 316 315 314 313 313 313 313 312 312 311 310 309 307 307 306 305 304 304 303 302 302 301 299 297 296 297 297
326 325 322 320 320 320 323 322 321 320 319 318 319 320 319 316 314 313 312 312 312 312 312 311 311 310 309 308 307 306 305 304 304 303 303 301 299 298 297 297 296 296 293 294
325 327 328 320 320 321 322 321 322 321 319 319 318 319 316 314 313 312 311 310 311 311 310 310 309 309 307 306 304 304 304 303 300 297 295 296 296 295 294 295 295 295 294 294
323 324 323 319 320 319 320 321 322 321 320 319 320 317 315 313 312 311 310 310 310 310 309 308 307 306 305 303 303 302 299 296 295 295 294 294 295 294 294 293 292 291 290 290
322 322 322 322 319 320 321 321 322 321 319 319 319 316 314 312 311 310 310 310 309 308 307 306 305 304 302 301 299 297 296 296 294 294 293 292 291 290 290 290 288 287 287 287
321 320 320 320 321 321 321 320 320 319 318 319 318 315 313 312 311 310 310 309 307 306 304 303 301 300 298 297 297 296 294 293 292 290 289 289 288 287 286 286 284 283 283 282
323 319 322 323 321 320 321 320 318 317 317 318 316 314 313 311 310 309 308 306 305 303 301 299 298 297 296 295 295 293 291 290 289 288 288 287 287 287 285 284 283 283 282 281
319 319 319 319 320 318 320 320 319 317 317 317 315 313 312 310 309 308 306 304 303 301 298 296 294 292 291 291 290 290 289 288 286 286 286 285 285 285 285 285 283 282 281 280
315 317 317 316 317 317 316 318 317 316 316 316 314 312 310 309 307 305 304 302 299 296 293 291 289 289 288 288 288 287 287 286 286 285 284 283 283 283 283 283 282 282 281 280
317 317 316 314 314 314 313 314 313 314 313 314 312 310 308 306 304 303 301 298 294 291 288 287 287 287 286 286 285 285 284 284 284 283 283 282 281 281 280 280 281 280 280 279
313 312 312 312 312 310 310 310 311 310 309 309 308 307 305 303 301 298 295 293 290 287 285 286 286 287 285 284 284 284 284 283 282 282 281 281 280 279 279 279 279 279 279 278
311 312 311 310 310 308 308 308 308 306 305 304 303 302 301 297 294 291 288 287 287 287 286 288 288 285 286 287 284 283 283 282 281 280 280 279 278 278 277 277 277 277 277 276
308 309 309 309 309 307 305 305 303 302 302 301 299 298 296 293 290 289 288 287 288 288 286 286 288 287 286 283 282 281 281 280 279 279 278 278 277 276 276 276 275 276 275 274
305 305 304 304 304 303 301 300 299 299 298 298 296 294 292 291 289 288 288 289 288 287 286 286 285 283 282 281 280 280 279 278 278 277 277 277 276 275 275 274 274 273 273 273
298 298 298 298 299 298 297 295 295 294 293 293 292 291 289 288 288 288 287 286 285 286 285 283 281 281 280 280 279 279 278 277 277 276 275 275 274 273 273 273 272 272 272 272
293 293 293 293 291 291 291 292 292 290 289 290 290 289 288 286 287 287 286 285 284 284 282 281 280 280 279 278 277 277 277 276 275 274 273 273 272 272 272 271 271 271 270 270
289 289 289 289 289 289 289 290 291 290 291 290 289 288 287 286 285 284 284 284 283 281 280 279 279 278 278 277 277 276 275 274 273 272 272 272 271 271 270 270 269 269 268 268
288 288 288 289 289 289 289 289 289 289 288 287 286 285 285 283 282 282 282 281 281 279 277 278 279 279 278 277 276 274 273 272 271 271 270 270 269 269 269 268 268 267 267 267
288 288 287 288 288 288 286 286 286 286 286 285 284 283 282 282 282 282 281 280 279 278 277 277 277 276 276 274 272 271 270 270 270 270 270 269 268 268 267 267 266 266 266 265
285 285 285 285 284 283 283 283 283 283 282 282 281 281 281 281 281 279 279 278 278 276 275 276 275 274 272 271 270 270 269 269 269 268 267 267 267 267 266 266 265 265 265 266
283 282 282 282 282 282 282 281 281 281 281 280 279 279 279 279 278 277 277 276 275 274 272 271 271 271 270 269 269 268 268 268 267 267 266 266 266 266 265 265 264 264 264 265
280 280 280 279 278 278 278 278 278 278 279 278 277 276 276 275 275 274 274 272 272 271 271 270 269 269 268 267 267 267 267 267 266 265 265 264 264 264 264 263 263 265 266 266

GFSNGP_850_thetae_048.txt.gz
Theta_e
321 321 323 323 323 322 322 323 325 324 322 323 322 323 322 322 321 321 320 320 321 323 329 331 332 332 332 332 332 332 330 330 331 329 324 323 321 320 320 319 317 316 316 314
322 321 321 323 323 321 321 321 321 322 322 322 321 321 322 320 320 321 320 320 321 322 328 330 331 331 332 331 330 328 327 326 325 322 320 317 316 314 314 315 314 313 311 309
322 321 321 321 323 322 321 320 321 321 323 322 321 322 321 320 320 320 320 322 324 326 330 331 331 330 327 326 325 324 323 322 319 317 316 315 314 313 311 309 308 305 304 303
323 322 324 321 322 321 321 320 320 320 320 321 321 321 320 320 320 321 322 323 325 328 329 329 327 325 323 321 320 319 317 315 314 314 313 312 310 309 307 305 304 303 303 301
325 322 322 320 321 320 321 320 320 320 320 320 320 320 321 320 320 322 322 323 324 324 325 324 322 320 318 316 314 313 312 311 311 311 310 308 307 306 304 303 302 302 301 300
327 323 323 322 321 319 321 321 321 320 321 321 321 323 321 320 320 322 321 320 320 320 320 318 317 315 314 313 311 310 310 309 308 307 306 305 304 303 303 302 301 298 297 297
324 325 326 320 320 319 322 322 321 321 320 321 321 320 320 319 320 319 318 317 317 316 315 315 314 313 312 311 309 308 307 306 306 305 304 303 302 299 299 298 298 297 296 294
324 325 326 321 320 321 322 321 321 321 322 320 320 320 319 319 318 317 316 315 314 314 314 313 312 311 310 309 307 307 306 306 305 303 300 299 297 296 296 295 295 294 294 294
322 323 323 320 320 320 320 322 322 322 322 321 320 320 319 317 316 315 314 313 313 313 312 311 311 310 308 307 306 306 304 301 298 296 296 296 296 295 295 295 294 293 292 289
319 319 321 322 321 320 320 319 321 322 322 321 320 320 318 316 315 314 313 312 312 312 311 310 309 308 307 305 304 301 298 297 296 295 294 294 293 292 292 291 290 289 287 287
320 319 318 317 317 320 321 321 321 320 320 320 320 320 317 315 314 313 312 312 312 310 309 308 307 306 304 302 300 298 297 296 295 294 292 291 290 290 289 288 286 285 285 284
323 319 320 321 320 320 320 318 319 321 320 319 319 320 317 315 313 312 312 311 310 309 307 306 304 302 300 299 298 296 295 294 292 290 290 289 289 288 287 286 285 284 283 282
319 319 318 318 318 318 318 318 320 321 320 318 318 319 317 314 313 312 311 309 308 306 304 302 299 298 297 296 295 294 292 291 289 288 288 288 287 286 286 286 285 284 283 282
313 313 316 315 318 317 317 317 319 319 319 318 318 317 315 314 312 311 309 307 305 303 300 297 295 293 293 293 292 290 289 287 287 287 286 285 285 284 284 284 284 283 282 281
316 317 317 317 316 315 315 315 316 317 317 316 317 316 314 312 310 308 306 304 301 298 294 291 290 289 288 289 288 286 286 287 287 286 285 284 283 282 282 281 281 281 281 281
313 313 314 314 314 313 312 311 312 313 314 314 315 313 311 309 307 304 302 299 296 290 288 286 285 285 285 286 285 286 285 287 287 287 284 282 282 281 281 280 280 279 279 279
311 312 311 311 313 312 310 309 310 310 310 310 309 308 307 305 302 299 295 292 289 286 286 286 284 283 283 286 287 289 288 286 284 281 281 281 280 279 279 279 278 278 278 277
306 308 307 308 309 309 307 306 305 305 305 305 304 304 301 299 294 292 290 288 288 286 285 286 287 288 287 288 288 287 284 282 282 281 280 279 279 278 277 277 277 276 276 276
301 301 302 303 303 304 303 302 302 302 301 301 301 299 296 293 291 289 288 287 286 287 285 285 286 286 286 284 282 282 282 281 279 278 278 278 277 277 276 276 275 275 274 274
294 296 296 296 297 297 295 294 295 295 294 296 294 292 290 289 288 287 287 286 285 286 285 285 285 284 283 282 280 280 279 278 277 277 276 276 276 275 275 274 274 273 273 272
289 289 290 290 290 290 290 290 291 289 289 290 290 287 286 286 286 286 286 286 283 283 283 283 283 282 281 279 279 278 279 278 277 276 275 274 274 273 273 273 272 272 271 271
287 287 287 288 287 287 288 288 288 288 288 287 286 286 285 284 284 284 284 284 282 282 281 281 280 280 279 279 279 278 277 275 275 274 273 273 272 272 271 271 271 270 270 269
286 287 287 288 287 287 287 287 286 286 285 285 284 284 283 282 282 283 282 280 280 278 279 279 279 278 278 277 276 275 274 273 272 272 272 271 271 270 270 269 269 268 268 267
286 286 285 286 286 286 285 284 285 284 284 283 282 282 282 282 281 280 279 279 278 278 277 277 276 276 275 274 272 272 271 271 271 271 270 270 270 269 269 268 268 267 267 266
284 284 284 283 283 283 283 282 282 282 282 281 281 281 281 280 279 278 278 277 276 275 275 274 273 272 272 271 271 270 270 270 269 269 268 268 268 267 267 267 266 266 265 265
282 281 281 281 281 281 281 281 281 281 280 279 278 278 277 277 276 276 275 274 273 272 272 272 271 270 270 269 269 269 268 268 268 268 267 267 266 266 265 265 265 265 264 264
279 279 278 278 278 278 278 278 277 278 278 277 276 276 275 275 274 274 273 272 272 272 271 270 270 269 269 268 268 267 267 267 267 266 266 265 264 264 264 264 263 263 264 264

GFSNGP_850_thetae_051.txt.gz
Theta_e
319 319 321 323 323 321 322 323 323 323 323 322 319 318 320 321 321 321 321 321 322 326 326 326 325 330 332 333 333 332 332 332 331 329 330 328 326 325 323 321 321 320 319 318
319 320 321 320 320 321 321 322 323 322 322 321 320 321 321 321 321 320 320 319 319 320 328 330 330 329 331 332 332 331 330 330 330 330 331 328 325 322 321 320 319 318 317 315
319 319 319 318 319 320 321 321 319 319 318 318 319 318 319 320 320 320 320 320 319 320 329 331 331 331 331 330 331 331 331 330 329 329 326 324 320 319 316 316 315 314 313 310
317 318 320 318 318 320 321 321 318 317 317 317 317 319 320 320 319 320 320 321 322 323 328 330 330 330 330 330 328 327 327 327 325 323 323 320 316 313 313 311 309 307 304 303
319 319 319 319 320 320 319 319 318 317 316 316 318 319 320 320 320 321 321 322 323 326 330 330 331 330 330 327 326 324 323 321 321 320 317 314 313 310 308 306 304 303 303 302
316 319 320 318 319 319 318 319 317 317 317 317 318 315 314 320 319 321 322 322 323 327 328 328 328 327 326 324 322 321 320 317 314 313 312 310 308 306 304 303 302 301 300 299
314 316 318 319 318 319 320 318 318 319 319 320 316 317 319 319 319 319 320 322 323 324 325 325 324 323 321 319 317 315 312 311 310 309 309 307 306 304 303 302 300 298 297 296
318 320 321 317 319 318 317 318 318 319 320 320 320 319 319 319 319 320 320 321 320 321 321 320 319 318 316 314 312 310 309 308 307 306 306 305 303 299 299 299 298 297 297 295
317 316 318 317 318 320 320 321 320 321 322 321 320 319 319 319 319 319 319 318 318 318 317 315 315 314 312 311 309 309 308 307 306 305 303 301 299 298 297 297 296 295 294 294
317 317 315 314 316 315 318 317 320 321 320 321 321 320 319 319 319 318 317 316 315 315 314 313 312 312 311 309 308 307 306 305 302 300 298 297 296 295 295 295 295 294 294 291
317 316 316 315 314 315 317 319 319 319 319 320 319 321 320 318 317 316 315 314 314 313 312 312 311 310 309 308 307 305 303 299 297 296 296 296 295 294 294 294 292 290 289 287
313 317 317 317 317 317 318 317 317 318 318 320 319 320 319 318 317 315 314 313 313 312 311 310 309 308 307 306 304 301 298 296 295 295 293 293 292 291 290 288 287 286 285 284
314 314 318 319 318 318 318 317 318 316 318 320 319 318 319 318 316 314 313 312 312 311 309 308 306 304 303 301 299 298 296 295 293 291 290 289 289 288 288 286 286 285 284 283
315 315 316 316 316 316 316 316 316 316 317 318 319 319 319 318 314 313 312 311 310 308 306 304 302 300 298 298 297 295 294 293 291 289 288 288 287 286 286 285 285 284 283 282
312 313 314 314 314 314 314 314 314 314 314 316 316 318 317 314 313 311 309 308 307 305 301 300 298 295 293 293 293 292 291 289 288 287 286 285 285 285 284 283 282 282 281 281
310 310 311 312 312 312 312 311 310 311 312 314 315 314 312 311 308 306 305 305 305 299 294 294 292 289 289 289 289 289 288 286 286 287 288 288 287 284 282 283 282 280 280 280
306 303 306 308 308 308 308 308 308 308 309 309 306 305 307 306 303 300 296 293 293 289 289 289 288 287 287 286 285 286 288 288 288 287 286 285 285 284 283 280 279 279 278 278
300 301 302 303 305 305 305 304 304 305 306 303 302 301 300 299 295 291 290 288 289 288 288 288 288 287 287 287 287 287 287 286 285 284 284 283 280 279 278 278 277 277 277 276
296 298 299 300 300 301 300 300 300 298 298 298 298 297 294 291 289 288 289 290 289 288 284 284 285 285 286 286 286 285 284 283 283 281 280 278 278 277 277 276 276 276 275 274
291 291 292 292 293 294 293 292 293 293 291 293 292 291 289 288 288 288 287 286 285 285 284 284 284 285 284 284 283 283 282 281 279 277 277 277 277 276 275 275 274 274 273 273
287 288 288 288 288 288 288 289 290 289 288 289 289 287 286 285 286 286 286 285 282 283 283 283 283 282 282 281 280 279 278 278 277 276 275 275 274 274 273 273 272 272 272 271
286 286 285 286 285 285 285 286 287 286 286 286 285 285 286 285 285 284 283 283 280 281 281 280 280 279 278 278 277 277 276 275 274 273 273 272 272 272 271 271 270 270 270 269
285 285 285 285 285 284 285 285 284 284 284 284 284 284 283 282 282 282 280 278 279 278 278 278 277 277 277 276 275 274 273 272 272 271 271 271 270 270 270 269 269 268 268 267
284 283 283 284 284 284 283 283 283 282 282 282 282 281 281 281 279 279 278 277 277 277 276 275 274 273 273 273 272 271 271 270 270 270 269 269 269 269 268 268 267 266 266 266
283 283 283 282 282 281 281 281 281 281 281 280 280 279 279 278 278 276 276 275 275 274 273 272 272 271 271 270 270 270 269 269 268 268 267 267 267 267 266 266 265 265 265 265
281 280 281 281 281 281 280 280 279 278 278 277 276 276 276 275 275 274 274 273 272 272 271 271 270 270 269 268 268 267 267 267 267 266 266 266 265 265 264 264 264 264 264 264
279 279 278 278 277 277 278 278 278 276 276 275 275 274 274 273 273 273 272 271 271 270 270 269 268 268 268 267 267 266 266 265 265 265 264 264 264 263 263 263 263 263 263 263

GFSNGP_850_thetae_054.txt.gz
Theta_e
317 318 318 318 320 321 319 319 321 321 322 321 319 318 318 320 320 320 320 321 324 325 326 327 327 326 326 327 326 326 328 326 326 324 326 329 328 327 323 325 324 322 322 321
318 318 319 318 317 320 320 320 321 320 321 319 320 320 317 319 320 320 320 320 320 322 324 326 325 325 324 325 329 327 327 327 327 325 327 328 327 327 327 325 323 321 321 321
319 317 318 318 318 318 318 319 320 321 320 319 319 318 318 319 321 320 320 320 320 321 322 326 326 326 326 326 328 330 330 329 329 329 329 327 326 326 324 323 320 320 319 318
315 316 320 318 317 317 317 318 318 317 316 316 316 319 319 321 320 320 320 320 320 319 319 325 328 329 329 330 330 328 328 329 328 327 326 327 325 323 321 319 317 316 315 314
315 317 317 317 317 317 318 317 317 316 316 315 318 316 318 319 319 320 320 320 319 319 320 324 329 330 331 331 330 329 329 329 327 326 325 323 322 319 318 316 314 313 311 310
316 318 318 316 316 318 317 317 316 316 317 316 315 313 313 320 319 319 320 320 320 321 322 327 330 331 330 330 328 327 327 327 325 324 322 322 319 316 314 311 309 306 304 303
316 316 315 316 316 318 319 317 317 317 318 318 315 316 319 319 320 319 319 319 320 321 322 327 330 330 329 328 327 326 324 323 322 320 318 317 314 312 310 306 304 303 302 300
315 318 317 317 319 318 316 318 318 319 320 318 319 319 318 319 319 318 319 320 321 322 326 328 329 329 328 326 325 322 320 319 317 315 313 311 310 308 306 304 303 301 300 299
315 316 315 317 318 317 316 318 319 318 319 321 320 318 318 319 319 319 320 320 321 323 324 325 325 325 324 322 320 318 316 313 311 310 309 308 306 304 302 301 300 299 298 296
314 315 316 316 316 314 315 316 316 318 318 319 320 319 318 319 319 320 320 320 320 320 321 320 320 319 318 317 315 313 311 310 308 307 305 304 302 301 300 299 298 297 296 295
314 314 315 315 315 313 313 315 315 317 318 317 318 319 320 318 319 319 319 319 318 318 318 317 316 315 314 313 312 310 309 307 305 304 303 300 298 298 297 297 296 295 294 293
313 314 315 314 314 315 314 315 316 316 317 317 316 318 319 319 318 318 318 317 316 316 315 314 313 312 311 310 309 308 306 305 303 301 299 297 296 295 294 293 292 291 290 289
311 314 316 318 319 317 316 317 316 316 316 317 316 318 318 318 318 317 316 315 314 313 313 312 310 309 308 307 306 306 305 300 297 296 295 295 294 293 292 290 288 286 284 284
310 314 315 313 313 314 314 315 316 315 315 315 316 316 318 318 315 314 313 313 312 312 311 309 308 306 304 304 304 302 300 296 295 293 291 290 289 288 287 287 286 286 286 285
307 309 309 312 312 311 312 312 313 313 313 314 314 315 315 315 313 311 309 309 309 307 304 303 303 301 298 298 298 296 294 292 290 289 289 289 288 288 288 286 286 285 283 283
304 307 308 308 306 308 308 308 308 307 309 309 309 309 306 306 307 304 301 300 303 299 295 296 294 291 292 292 292 291 291 290 290 289 288 287 287 286 286 285 283 283 282 281
302 302 303 302 300 301 302 303 304 302 301 303 302 301 299 297 296 295 293 293 292 289 288 290 289 289 291 291 291 291 290 289 288 287 287 286 285 284 283 282 281 280 279 279
296 296 298 298 297 297 298 298 299 300 300 296 295 296 295 294 290 288 288 289 290 290 289 288 288 288 288 287 287 287 287 286 286 285 284 283 282 281 280 279 278 277 277 277
293 293 293 293 294 295 293 292 293 293 292 292 294 292 290 289 288 288 289 290 288 287 284 285 286 286 286 286 285 285 284 284 283 282 281 280 280 278 277 277 276 276 275 275
289 290 290 289 290 290 288 288 289 289 288 288 289 288 287 287 287 287 287 285 284 283 283 283 284 284 283 283 283 282 281 281 280 279 278 277 276 275 275 275 274 274 273 273
285 285 286 286 286 286 286 287 288 287 287 287 287 286 285 284 285 284 284 282 279 281 281 281 282 281 281 281 280 279 279 278 277 276 275 275 274 273 273 272 272 272 271 270
284 284 284 284 284 284 284 285 285 285 285 284 284 284 284 282 282 281 280 280 278 279 280 280 279 279 278 278 277 277 276 275 274 273 273 272 272 271 271 270 270 269 269 268
284 284 284 284 284 283 284 284 284 284 283 283 283 283 282 281 280 280 279 277 278 278 278 277 276 276 276 275 274 273 272 272 271 271 270 270 269 269 269 268 268 267 267 267
283 282 282 282 282 283 282 281 282 282 281 281 280 280 280 280 278 277 277 276 276 275 275 273 272 272 272 272 271 271 270 270 269 269 268 268 267 267 267 266 266 266 265 265
282 282 282 282 281 280 280 280 280 280 279 279 278 277 277 277 277 275 275 274 274 273 272 271 271 270 270 269 269 269 268 268 267 267 267 266 266 266 265 265 264 264 264 264
281 280 280 280 280 279 279 279 278 277 277 276 275 275 274 274 274 273 273 272 272 271 270 270 269 269 269 268 268 268 267 267 266 266 266 265 265 265 265 264 264 264 264 264
279 278 277 277 277 277 277 277 276 275 275 274 274 273 273 273 272 271 271 270 270 269 269 268 268 268 267 267 267 267 266 266 265 265 265 265 265 265 264 264 264 264 264 264

GFSNGP_850_thetae_057.txt.gz
Theta_e
316 316 317 318 318 316 317 318 319 318 319 319 318 318 318 321 320 320 319 319 322 323 324 324 324 324 325 325 325 326 326 326 326 326 326 326 325 325 326 326 323 324 325 325
316 317 316 317 317 317 317 317 318 318 318 317 319 320 318 320 321 320 320 319 322 323 324 323 323 323 323 323 324 325 326 326 326 327 327 327 324 325 328 327 326 323 322 324
318 317 316 317 317 317 317 318 319 320 318 318 318 316 317 319 319 320 320 320 320 320 324 324 323 323 323 323 323 323 324 326 327 327 328 327 326 327 326 326 326 323 323 321
318 315 321 318 316 316 317 316 316 317 317 316 316 318 318 319 318 320 321 321 320 320 320 322 324 324 324 325 325 325 326 326 326 327 327 327 326 324 324 325 324 324 324 321
319 319 316 318 316 316 316 317 315 316 316 314 315 316 315 318 318 318 321 321 320 319 320 320 324 323 325 326 327 327 328 328 328 328 327 326 324 325 325 324 324 322 320 318
314 318 319 315 314 315 315 317 314 314 315 315 314 316 314 318 318 318 319 319 319 319 319 320 320 321 324 327 329 329 329 328 328 327 327 326 326 322 322 321 320 317 315 313
316 317 314 315 315 317 319 318 315 316 317 316 316 319 320 319 319 318 319 319 319 318 318 319 321 322 327 329 330 330 330 329 326 326 325 325 325 323 320 317 314 312 310 308
314 316 316 314 314 319 315 316 317 318 317 317 318 319 320 319 318 318 319 318 318 318 318 318 320 324 328 329 329 328 327 327 325 325 324 322 321 318 314 312 309 306 304 302
311 313 314 312 313 312 313 316 316 316 318 317 317 318 318 319 319 318 319 318 317 317 318 320 322 325 328 328 327 325 324 322 321 319 317 314 313 311 309 305 303 302 300 300
311 310 312 311 311 311 311 315 315 315 315 318 316 316 318 318 317 318 319 320 320 320 322 324 327 327 326 326 325 322 320 317 315 312 310 308 306 304 303 301 301 301 299 299
310 310 311 312 312 314 314 316 315 316 317 316 317 317 316 318 319 318 319 320 321 321 323 324 324 324 323 321 320 317 314 312 309 307 306 304 303 302 302 301 300 299 298 297
309 311 310 313 314 315 315 313 315 316 316 316 315 316 317 317 318 317 317 319 319 320 321 320 320 318 317 316 315 313 311 308 307 306 304 303 302 300 298 298 297 296 295 294
308 310 308 311 310 312 312 313 313 314 313 315 316 316 317 317 316 315 315 315 317 317 316 315 314 313 311 310 310 309 309 307 305 304 303 301 298 298 297 292 291 290 290 289
305 307 310 309 306 308 310 311 311 311 312 312 313 315 316 317 316 315 315 314 313 312 312 311 310 309 308 307 306 306 305 303 302 299 297 295 293 291 290 290 289 287 287 287
304 303 303 306 307 308 307 310 310 309 308 310 309 310 310 310 307 305 303 305 307 306 305 304 306 304 302 303 304 302 297 295 295 293 292 291 290 290 289 289 288 287 286 285
300 302 303 306 304 304 302 304 303 300 302 301 303 302 299 300 298 296 295 296 300 297 295 297 298 294 293 293 294 295 295 294 292 291 290 289 289 289 288 287 286 285 283 282
297 300 299 299 299 299 298 297 298 294 294 293 292 292 292 293 292 292 292 292 291 290 290 291 290 291 292 292 293 291 290 289 289 289 288 287 286 285 284 283 282 281 280 279
293 293 293 293 292 291 292 294 292 293 293 290 290 290 290 291 288 287 287 288 288 288 287 287 288 289 289 289 289 288 287 287 286 285 284 283 282 282 281 280 279 278 278 277
289 289 289 290 289 290 288 288 290 288 287 288 289 287 287 286 286 286 287 288 287 285 283 285 285 286 286 285 285 285 284 284 283 282 281 280 280 279 278 277 276 276 275 274
285 285 285 285 286 287 286 285 286 286 286 287 287 286 285 284 284 285 285 283 281 281 282 283 283 283 283 282 283 282 282 281 280 280 279 278 277 276 275 274 274 273 273 272
284 284 284 284 284 284 285 285 286 285 285 286 285 283 282 282 282 282 282 280 279 280 281 281 281 281 281 280 280 280 279 278 278 277 276 275 274 273 273 272 271 271 270 270
283 283 283 284 284 284 284 284 284 284 284 283 282 281 281 280 280 280 279 278 278 279 279 279 278 278 278 277 277 276 275 274 273 273 272 272 271 271 270 270 269 268 268 268
282 282 283 283 283 282 283 283 283 283 282 282 281 281 280 279 278 279 278 276 277 277 277 275 274 274 273 273 273 273 272 272 271 270 270 269 269 268 268 267 267 267 266 266
283 283 282 282 282 282 281 280 281 280 280 279 279 279 279 278 277 276 275 274 274 274 273 272 272 271 271 271 271 270 270 269 269 268 268 267 267 266 266 266 265 265 265 264
282 282 282 281 280 279 279 279 279 279 279 278 277 276 276 276 276 274 273 273 272 272 271 270 270 269 269 269 269 268 268 268 267 267 267 267 266 266 266 266 266 266 265 265
281 281 280 280 279 279 279 278 278 276 276 276 275 274 274 273 273 272 272 271 270 270 269 268 268 268 268 268 268 268 268 267 267 267 267 266 266 266 266 265 265 265 265 265
279 279 278 278 277 277 276 276 276 274 274 273 273 272 272 271 271 271 270 270 269 268 268 268 268 268 268 268 268 268 267 267 267 266 266 266 266 266 265 265 265 265 265 265

GFSNGP_850_thetae_060.txt.gz
Theta_e
318 317 317 316 317 315 315 315 316 316 316 317 316 316 316 321 321 320 321 321 320 321 322 323 323 323 323 323 322 323 324 324 324 324 323 323 322 322 323 324 324 324 323 323
316 317 317 317 314 314 314 315 315 316 316 314 316 317 317 318 319 319 320 321 321 320 321 322 322 322 322 322 322 322 323 323 323 324 324 324 324 324 324 325 325 324 324 325
318 316 316 316 316 315 316 315 315 317 316 315 316 315 316 319 320 320 321 321 321 321 320 320 322 321 322 321 323 323 322 323 324 324 325 325 325 325 325 325 325 325 324 326
315 314 319 316 313 314 315 315 314 315 316 316 316 319 318 317 317 319 320 318 321 321 320 320 321 322 322 322 323 323 323 323 323 324 325 325 325 326 325 326 325 325 324 322
313 313 313 313 315 314 316 316 314 313 313 313 316 314 315 318 318 318 318 318 317 319 320 320 319 320 323 323 324 324 324 324 324 324 325 326 326 326 325 325 322 324 321 321
315 314 314 311 314 314 316 316 314 314 314 313 313 313 312 319 319 319 319 318 318 318 319 318 319 319 319 324 325 325 326 326 326 326 326 326 325 325 325 322 322 322 321 320
314 314 312 312 313 315 319 312 313 314 315 315 313 312 316 317 319 318 319 319 318 318 318 318 318 319 320 323 325 326 327 327 328 327 325 324 324 321 321 321 320 319 317 316
312 314 312 312 314 319 315 314 314 314 314 315 316 316 317 318 318 318 318 318 318 318 318 317 318 320 321 322 324 327 328 328 328 327 324 322 322 323 321 319 318 316 313 310
309 310 309 312 313 311 312 314 315 314 313 314 315 316 316 316 318 318 318 317 319 319 321 319 321 321 322 324 327 328 329 328 326 324 323 321 318 318 315 313 312 311 308 307
308 308 309 310 311 311 311 311 311 312 314 314 314 316 316 316 317 318 317 318 319 322 322 322 321 322 324 326 327 326 326 325 323 322 319 317 313 311 310 309 307 307 305 302
307 309 310 311 311 311 311 312 313 313 312 314 316 315 316 316 317 317 317 316 318 321 322 322 320 324 325 325 325 324 323 321 319 317 314 312 309 306 304 303 302 302 302 301
306 309 308 309 309 309 309 308 310 312 313 313 315 314 315 314 314 315 316 315 315 317 319 320 321 321 321 321 320 319 318 315 313 310 308 307 307 306 303 302 301 300 299 298
306 305 306 307 308 308 309 304 307 305 306 311 313 313 313 313 312 311 313 313 316 314 314 314 315 315 315 314 315 313 313 311 309 307 305 304 302 302 302 297 296 295 294 293
303 304 307 305 303 303 308 307 304 300 303 304 301 306 307 310 309 308 307 307 304 311 312 311 310 310 310 309 309 308 307 307 305 303 301 300 298 296 295 295 294 293 291 290
301 301 301 302 301 302 303 300 301 303 303 300 298 301 303 303 302 299 297 298 299 299 299 300 301 301 300 302 303 303 301 299 297 295 294 294 293 292 291 290 289 288 287 285
295 299 300 299 297 295 297 296 297 297 301 292 294 296 295 295 294 293 293 294 299 295 293 293 293 291 293 294 294 294 294 293 293 292 290 289 289 288 287 286 285 284 283 282
293 296 295 295 293 291 293 292 288 290 289 287 287 289 291 292 291 291 290 289 290 289 289 289 289 290 290 291 291 290 290 289 289 289 288 287 286 286 284 284 282 281 280 280
290 291 291 290 290 289 288 288 288 288 287 287 288 290 289 289 286 286 286 287 287 287 286 287 287 288 288 288 288 288 287 287 286 286 285 284 283 282 282 281 280 279 278 277
287 287 287 287 286 286 284 283 284 285 285 287 287 286 285 285 284 284 285 286 285 284 282 284 285 286 285 285 285 285 285 284 283 282 282 281 280 279 279 278 277 276 275 274
284 284 284 284 284 284 283 283 284 284 283 285 285 284 284 283 283 284 284 282 280 280 281 282 283 283 282 282 283 283 282 282 281 280 279 278 277 277 276 275 274 273 273 272
282 282 282 282 282 282 282 283 283 283 283 284 284 282 281 281 281 281 282 280 278 279 280 281 281 281 280 280 280 280 279 278 277 276 274 274 273 272 272 271 271 270 270 269
282 282 282 283 282 282 282 283 283 282 282 281 281 280 280 279 279 279 278 278 277 278 279 278 277 276 275 275 275 274 274 273 273 272 272 271 270 270 270 269 269 268 268 267
282 282 282 282 282 281 281 281 281 281 280 280 280 280 279 278 277 278 277 274 274 274 274 274 273 272 272 272 272 271 271 271 270 270 270 269 269 269 268 268 268 268 267 267
281 281 281 281 281 282 281 280 280 280 279 278 278 277 277 277 275 274 273 272 272 272 272 271 271 270 270 270 270 270 269 269 269 269 268 268 268 268 268 268 267 267 267 266
281 281 281 281 280 279 279 279 278 278 278 277 276 275 274 274 274 272 272 271 270 270 270 269 269 269 269 269 269 269 269 268 268 268 268 268 267 267 267 267 267 267 266 266
281 280 280 279 278 278 277 277 276 275 275 274 273 273 272 272 271 270 270 269 269 268 268 268 269 269 269 269 268 268 268 268 268 267 267 267 267 267 267 266 266 266 266 266
279 278 277 277 276 275 275 275 274 274 272 272 272 271 270 270 270 269 269 268 268 268 268 268 268 268 268 268 268 268 268 267 267 267 267 267 267 266 266 266 266 266 266 266

GFSNGP_850_thetae_063.txt.gz
Theta_e
318 317 317 317 317 317 316 317 318 319 318 318 318 319 319 319 318 318 319 319 320 320 320 320 321 322 322 322 322 323 323 324 324 323 321 320 318 317 316 315 316 317 316 317
317 316 316 317 317 316 315 316 316 317 318 317 317 316 316 317 317 318 319 320 320 321 320 319 321 322 322 322 320 321 322 321 322 323 323 323 323 322 321 320 320 319 319 321
316 315 315 318 316 315 316 316 316 318 318 317 318 317 317 318 318 318 320 321 321 321 321 321 321 320 321 321 322 321 321 321 322 322 322 323 323 323 323 323 322 322 322 323
316 314 314 316 314 313 316 316 315 315 315 315 316 316 316 317 318 318 319 318 319 318 318 321 321 321 320 320 322 322 322 321 322 323 323 323 324 324 324 323 324 322 322 324
316 315 313 312 314 317 318 317 316 317 317 316 316 313 315 315 314 315 314 316 317 318 318 318 319 321 320 319 321 322 322 322 322 323 323 324 324 324 324 324 323 324 324 323
315 317 315 313 315 314 316 316 315 315 315 315 315 319 317 315 317 318 318 318 319 318 318 318 318 319 319 319 319 321 322 322 322 323 323 324 324 324 324 324 323 323 322 321
315 316 314 312 313 314 315 314 314 315 315 315 316 315 315 315 317 317 318 317 318 319 318 318 318 317 318 317 317 320 322 323 324 324 324 324 324 324 324 322 322 321 320 318
314 316 314 310 314 315 314 312 313 314 314 313 314 313 314 315 316 317 317 317 317 317 318 318 318 318 318 318 319 322 325 326 326 326 326 325 323 322 321 321 320 319 317 314
313 314 310 311 311 310 311 311 312 312 312 312 312 313 313 314 316 316 317 317 318 319 321 321 321 322 322 324 324 325 325 324 325 324 323 322 321 322 320 320 316 314 310 308
310 309 310 310 310 310 309 310 309 310 311 312 311 311 313 315 315 315 316 316 316 320 320 320 321 323 324 325 325 324 323 322 322 321 320 320 320 318 315 314 310 309 307 306
309 309 310 310 308 308 310 309 309 310 309 306 308 310 311 312 313 313 315 315 315 315 318 318 316 316 320 321 323 323 322 321 320 318 318 317 314 311 308 307 306 307 305 304
311 305 305 307 307 306 306 306 305 305 309 306 303 305 307 309 310 311 311 315 314 312 314 315 314 314 314 314 315 319 321 318 316 315 313 311 309 307 304 303 302 301 301 300
304 303 304 305 306 304 303 302 302 301 303 303 301 300 302 298 304 309 306 305 307 309 310 311 311 313 312 310 312 315 314 314 311 308 306 305 304 303 301 295 297 296 294 294
300 302 305 303 301 302 301 299 299 300 303 300 297 297 296 297 298 302 298 298 300 301 303 303 306 309 309 310 308 307 307 305 304 303 300 298 296 295 294 294 292 289 288 289
295 296 297 300 300 300 298 298 297 297 298 305 294 291 297 295 293 291 292 294 298 300 298 298 300 299 298 298 299 297 296 295 295 294 293 292 291 291 291 291 290 288 286 286
292 295 296 296 296 295 294 293 290 289 290 289 289 285 291 292 288 288 289 292 296 292 291 291 292 291 292 294 294 293 292 292 292 291 290 289 289 289 288 287 286 285 284 283
291 293 291 291 290 290 289 288 286 285 285 287 285 284 288 288 288 288 287 288 288 288 288 288 288 289 290 291 291 290 290 289 289 289 288 287 287 286 285 284 283 282 281 280
287 288 288 288 288 287 285 285 284 283 282 283 284 285 285 286 284 284 284 285 286 286 286 286 286 287 288 288 288 288 288 287 287 286 285 285 284 283 282 281 280 279 278 277
285 285 285 285 285 284 283 283 282 281 281 283 285 284 282 282 282 282 283 284 283 282 281 283 285 285 285 285 285 285 285 285 284 283 283 282 281 280 279 278 277 276 275 275
282 282 283 283 283 282 281 282 282 282 282 283 283 282 281 281 281 282 282 280 279 279 280 281 282 282 282 282 283 282 282 281 281 280 279 278 278 277 275 274 274 273 272 271
281 281 281 281 281 281 281 282 282 282 281 282 283 281 281 280 280 280 281 280 278 279 280 280 279 278 277 277 277 277 276 276 275 274 274 273 273 272 272 271 271 270 270 269
281 281 281 281 281 281 281 281 282 281 281 281 280 280 280 279 279 279 278 276 275 275 275 275 274 274 273 274 274 273 273 273 272 272 271 271 270 270 270 269 269 269 269 268
281 281 281 281 281 280 280 280 280 280 280 280 279 279 279 277 276 276 275 273 273 273 273 272 272 272 272 272 271 271 271 271 270 270 270 269 269 269 269 269 268 268 268 267
281 281 280 280 280 281 280 279 279 279 278 277 277 276 275 275 274 273 272 271 271 271 271 271 270 271 271 270 270 270 270 270 269 269 269 269 268 268 268 268 267 267 267 267
280 280 280 280 280 279 278 278 278 277 276 275 274 274 273 273 273 271 271 270 270 270 270 270 270 269 269 269 269 269 269 268 268 268 268 268 268 267 267 267 267 267 267 267
280 280 279 279 278 277 276 276 275 274 274 274 273 272 272 271 270 270 269 269 269 269 269 269 269 269 268 268 268 268 267 267 267 267 267 267 267 267 267 266 266 266 266 266
278 277 277 276 275 275 274 274 273 273 272 271 271 270 270 269 269 268 268 268 268 268 268 268 268 268 268 267 267 267 267 267 267 267 266 266 266 266 266 266 266 266 266 266

GFSNGP_850_thetae_066.txt.gz
Theta_e
319 319 318 319 319 319 318 318 320 320 320 319 319 320 320 319 320 321 320 320 321 321 323 325 326 326 326 325 324 323 322 322 322 320 318 317 317 316 317 318 318 318 318 317
316 316 317 319 319 319 319 319 319 319 320 319 319 319 319 319 320 320 321 321 320 320 320 322 324 325 325 325 324 323 323 323 323 322 321 321 319 318 317 316 316 316 317 318
314 314 313 317 319 319 318 318 319 320 320 319 319 320 320 320 319 319 320 319 320 320 320 320 321 321 323 322 324 322 321 322 322 323 322 322 322 321 321 320 319 318 318 318
315 315 315 318 316 317 318 318 317 317 319 319 319 319 318 317 318 317 318 318 317 318 319 318 317 319 321 324 323 321 321 322 322 322 322 322 322 322 321 321 321 321 320 320
313 314 314 314 316 317 317 319 316 317 318 318 318 319 319 318 317 318 318 318 318 317 317 318 318 317 317 321 324 324 320 321 322 323 323 322 322 323 323 323 323 323 323 323
315 314 312 313 316 316 317 315 313 315 316 316 317 321 321 317 316 317 317 318 318 317 318 318 318 317 316 317 321 323 324 324 324 324 323 323 324 324 323 323 324 323 324 324
314 315 313 313 315 315 314 315 313 313 313 314 315 316 316 316 316 316 317 318 318 320 318 318 318 318 317 318 319 321 322 323 324 324 324 325 324 324 324 323 324 323 323 323
312 313 316 314 313 313 315 313 314 314 314 315 315 315 314 314 315 316 316 317 317 319 319 319 320 320 320 322 320 320 319 320 321 321 322 323 323 323 324 323 323 322 321 320
313 313 314 313 313 313 312 313 313 312 311 311 313 315 314 314 315 316 315 315 316 317 320 320 320 319 318 322 322 322 322 322 322 322 322 323 323 323 322 321 320 319 319 317
311 311 312 312 313 311 310 310 309 308 308 307 306 308 309 312 313 313 312 310 310 312 315 318 319 318 318 318 320 322 323 323 322 322 321 320 319 319 319 318 317 315 312 309
310 310 311 312 310 308 308 308 306 305 304 302 302 303 305 306 304 303 305 307 303 304 308 314 316 318 316 315 316 316 318 320 320 320 319 318 316 314 310 310 309 309 306 305
311 308 307 309 307 305 305 305 304 301 300 300 299 299 299 299 298 297 297 308 308 305 306 307 312 313 314 314 312 312 313 312 314 315 314 311 310 306 301 304 302 302 302 301
307 305 305 305 303 303 303 302 300 299 297 296 295 295 295 294 298 297 298 299 302 304 302 302 302 308 310 310 310 310 307 304 301 303 301 301 301 303 299 294 294 294 295 294
299 300 305 301 301 299 299 300 300 299 298 297 292 291 290 293 295 294 295 295 295 300 300 298 298 300 299 301 302 306 305 300 300 295 296 295 295 293 292 291 290 287 286 287
296 295 296 298 297 296 296 295 295 295 292 291 289 288 290 290 289 289 290 289 293 296 294 294 293 293 294 295 297 298 297 295 294 294 292 291 291 290 289 289 288 286 285 285
293 295 294 294 293 293 292 291 289 288 287 286 286 285 285 286 286 287 285 288 292 289 288 290 290 290 291 292 293 292 291 291 291 290 290 290 289 288 287 286 284 283 282 281
291 295 292 292 290 288 287 287 286 284 283 285 284 283 282 283 284 285 285 285 286 286 286 287 287 288 289 289 289 288 288 288 288 288 288 287 286 285 284 284 282 281 280 279
288 288 288 288 288 286 284 283 283 283 282 283 284 284 284 283 281 281 282 284 284 285 284 284 285 286 287 287 287 287 286 286 286 285 285 284 284 282 281 281 280 279 278 278
285 285 284 284 283 283 282 281 281 281 282 282 283 283 282 282 281 282 282 283 283 283 282 283 284 285 285 285 285 284 284 284 283 281 280 281 280 279 277 276 275 274 273 273
282 282 281 280 281 281 280 280 281 281 281 282 282 282 281 280 280 281 282 281 280 279 281 282 282 282 281 282 282 282 281 281 280 279 277 275 274 274 274 273 272 271 271 270
280 280 280 280 280 280 280 281 281 281 280 281 281 280 280 279 279 278 278 278 276 276 276 276 276 276 275 275 276 275 275 274 274 273 273 272 271 271 270 270 270 269 269 268
280 280 280 280 280 280 280 280 281 280 280 280 279 278 278 278 277 276 275 273 273 273 273 273 273 273 273 273 273 273 272 272 271 271 271 270 270 269 269 269 269 268 268 268
280 280 280 280 280 279 280 280 279 279 279 279 278 278 277 275 273 273 272 272 271 272 272 272 271 271 272 272 271 271 271 271 271 270 270 270 270 269 269 269 268 268 268 268
280 280 280 280 279 279 279 277 277 277 277 276 276 274 272 272 271 271 271 270 270 271 271 270 270 270 271 271 270 270 270 270 270 269 269 269 269 269 268 268 268 268 268 268
280 279 279 279 278 276 276 275 275 274 274 273 272 272 272 271 271 270 270 270 270 270 270 270 270 270 270 270 269 269 269 269 269 268 268 268 268 268 268 268 268 267 267 267
279 279 278 277 276 275 274 274 274 273 272 271 271 271 271 270 269 269 269 269 269 269 269 269 269 269 269 269 268 268 268 268 268 268 267 267 267 267 267 267 267 267 267 267
278 276 275 275 275 274 274 273 272 271 271 270 269 269 269 269 269 269 269 269 269 269 268 268 268 268 268 268 267 267 267 267 267 267 267 266 266 266 266 266 266 266 266 266

GFSNGP_850_thetae_069.txt.gz
Theta_e
317 319 319 319 319 320 320 321 321 321 321 320 320 320 320 320 320 321 321 321 322 322 325 327 328 329 329 329 327 326 325 324 324 323 323 324 323 323 322 322 322 322 322 321
319 317 318 319 318 318 319 319 320 320 320 320 320 320 320 320 320 321 321 322 321 322 322 322 325 328 328 329 328 327 326 325 325 324 324 323 323 323 322 322 321 321 320 321
322 317 317 318 319 319 319 319 321 321 321 320 320 320 321 321 321 320 320 320 320 320 320 322 323 323 327 328 328 328 327 327 326 325 324 324 323 323 322 322 322 321 321 321
317 318 318 320 318 318 319 319 319 320 319 319 319 318 320 319 319 320 319 320 321 321 320 320 321 320 321 325 328 328 328 327 327 326 325 324 324 324 323 323 322 322 321 321
313 317 317 315 317 319 321 320 317 319 318 317 316 318 321 320 318 319 319 319 320 321 321 322 323 323 320 319 323 326 328 328 327 326 326 325 325 324 323 323 323 323 323 322
316 317 316 315 317 316 316 320 315 316 316 316 315 317 318 316 317 317 317 318 319 321 322 321 321 320 321 321 319 320 324 327 328 327 326 326 326 325 325 324 323 323 323 323
314 315 313 315 316 316 317 318 315 315 316 316 317 316 315 316 316 317 318 318 319 320 319 317 319 320 323 323 322 321 321 323 326 326 327 327 326 326 326 325 325 325 324 324
312 313 314 315 314 316 316 315 315 314 313 313 313 314 315 315 316 317 317 317 317 318 316 315 318 319 319 320 320 321 321 321 324 325 326 326 327 327 326 326 325 324 324 323
312 312 315 315 315 313 314 314 312 312 311 311 311 311 311 312 315 315 315 313 313 314 312 315 317 317 316 316 318 320 320 320 321 324 325 325 325 325 324 323 323 323 321 320
314 314 314 314 313 311 312 311 310 309 308 308 307 308 308 310 309 308 308 306 306 308 306 312 315 315 314 313 315 317 317 316 317 319 320 321 321 319 322 320 318 316 315 315
311 312 313 313 311 309 309 309 308 307 306 305 304 305 304 305 303 302 302 300 300 299 300 307 309 310 312 312 311 312 313 311 308 309 311 311 311 310 311 310 311 312 309 306
313 311 311 311 308 305 306 305 305 304 303 302 301 301 300 300 297 295 295 295 296 297 295 300 304 305 307 308 309 308 309 310 308 303 301 301 302 302 302 302 302 300 300 300
309 305 307 306 303 302 302 301 300 300 298 297 296 296 296 295 291 290 289 290 292 293 296 297 298 301 304 302 304 305 307 306 303 302 303 295 291 291 291 290 292 292 292 291
301 302 305 302 301 299 300 298 297 296 294 292 293 294 292 292 292 290 288 288 290 290 291 292 293 297 299 298 298 299 299 298 297 297 295 294 293 290 288 289 286 284 285 287
297 298 298 298 296 296 296 295 294 292 290 288 288 288 287 287 287 287 286 287 288 289 289 290 287 291 292 292 293 293 293 292 291 291 291 291 290 289 288 287 286 284 283 284
295 297 297 296 294 292 291 291 292 290 289 287 285 284 284 284 285 285 286 286 287 285 285 287 287 287 288 288 289 288 288 287 287 287 286 285 285 284 283 283 282 281 281 280
292 294 292 293 293 291 290 289 288 287 285 284 282 282 282 281 283 284 284 285 284 284 284 285 285 287 287 288 288 287 287 287 287 287 285 284 283 282 281 281 281 280 279 279
289 289 289 289 289 289 286 285 284 283 281 281 282 283 283 283 281 282 282 283 284 284 283 283 284 285 286 286 286 285 285 285 285 284 283 282 281 281 280 279 278 278 277 276
286 286 285 285 285 284 283 281 280 280 280 281 282 281 281 281 281 282 282 283 283 282 281 280 282 283 283 283 281 281 281 280 279 279 279 279 278 277 277 276 275 275 274 273
283 283 282 281 280 280 279 279 279 279 279 279 279 279 279 278 278 279 280 280 278 276 276 277 276 277 277 277 277 276 276 276 276 275 275 275 275 274 274 273 273 273 272 271
280 279 279 279 279 280 280 280 280 280 280 280 280 280 279 278 279 277 277 276 274 274 274 275 275 274 274 274 274 274 274 274 273 273 273 273 273 272 272 272 271 271 270 270
280 279 279 279 280 279 280 280 280 280 279 279 278 277 277 277 276 275 274 273 272 273 274 274 273 272 272 272 272 272 272 271 271 271 271 271 271 271 270 270 269 269 269 268
279 279 279 280 280 279 279 279 279 279 278 277 276 275 274 273 273 273 272 272 271 272 271 272 272 272 272 271 270 270 270 270 269 269 269 269 269 268 268 268 268 267 267 267
279 279 279 279 279 278 277 276 276 276 275 275 274 274 274 274 272 271 270 270 271 271 271 271 271 271 270 269 269 269 269 268 268 268 268 267 267 267 267 267 266 266 266 266
279 279 279 279 279 278 277 276 275 275 274 273 272 271 271 271 271 270 270 270 270 269 269 270 270 270 269 268 268 268 268 268 269 267 267 266 266 266 266 265 266 267 267 267
279 279 277 277 278 278 277 277 277 276 275 274 272 271 270 270 269 269 269 269 269 269 268 268 269 268 268 268 267 268 267 267 267 267 267 266 266 265 266 267 267 267 267 267
277 278 277 276 275 274 275 275 276 274 273 273 272 271 270 270 269 269 269 268 268 268 268 268 267 268 268 268 267 267 266 266 267 267 267 266 266 266 267 267 267 267 266 266

GFSNGP_850_thetae_072.txt.gz
Theta_e
317 316 319 321 321 320 322 323 325 324 325 324 321 322 322 320 320 321 321 322 322 322 324 328 329 331 330 330 328 326 325 325 326 325 325 325 324 323 324 323 323 323 323 322
314 315 318 321 320 320 321 322 322 321 322 321 321 320 322 322 322 321 321 322 322 322 321 321 326 328 329 330 330 328 327 326 325 325 326 325 325 325 325 325 324 324 324 323
315 317 319 320 320 320 319 319 320 323 322 321 321 320 321 321 320 320 320 320 321 322 322 321 321 322 322 329 329 330 329 328 326 325 325 325 326 325 324 324 324 324 324 324
315 315 320 318 318 318 321 321 320 321 321 320 319 320 320 319 319 319 319 319 320 321 323 323 324 323 323 320 321 329 329 329 328 327 326 326 326 325 325 325 325 324 323 323
316 316 316 316 318 321 320 322 320 320 319 318 316 319 317 316 317 318 318 319 320 321 321 320 320 321 321 322 323 320 327 329 329 329 328 327 326 326 326 325 325 325 325 324
315 316 318 315 318 315 315 318 316 317 317 317 317 321 317 316 316 317 318 319 319 319 317 317 319 321 323 324 323 321 320 321 323 329 328 328 328 327 326 326 325 325 325 324
314 316 314 314 317 316 317 318 316 316 314 314 315 314 314 314 316 317 318 317 316 316 314 314 318 319 320 320 321 320 321 321 322 325 328 328 328 327 327 327 326 325 325 324
312 314 315 315 316 317 317 315 314 313 312 312 312 311 311 314 314 313 312 311 312 312 308 309 313 315 316 317 317 318 320 320 320 322 324 326 327 328 327 327 327 326 325 324
311 313 316 314 314 314 313 312 311 311 310 309 310 309 309 310 309 308 307 305 304 304 303 306 307 309 312 314 313 315 316 318 318 318 320 323 323 324 325 325 325 326 325 324
314 316 315 312 312 312 311 310 309 308 308 307 307 306 307 306 304 302 301 300 299 299 298 302 305 306 306 308 309 309 311 311 309 311 313 315 316 313 315 319 318 317 314 314
314 313 310 309 308 309 308 307 307 306 305 304 304 303 304 300 298 296 295 295 295 296 296 298 302 303 303 303 305 306 307 308 309 308 308 307 305 301 298 299 304 306 303 299
313 309 309 307 305 306 305 304 303 302 301 300 298 299 299 295 293 293 293 294 294 295 296 297 298 300 301 301 301 302 303 304 304 305 305 304 302 300 296 289 291 295 296 296
304 305 306 305 302 301 301 300 300 298 296 295 293 293 293 292 289 290 291 291 292 291 290 291 293 294 295 296 297 298 298 298 299 298 296 295 294 295 292 288 289 287 288 289
300 303 303 299 298 297 297 298 296 294 292 291 290 289 288 287 288 287 288 286 287 288 288 289 288 288 289 290 292 292 293 294 294 292 291 290 289 287 287 287 287 286 285 286
298 299 298 297 296 294 295 295 294 291 289 288 286 285 284 284 284 284 285 284 285 286 286 287 286 285 286 287 288 289 288 288 288 288 288 287 287 286 285 284 283 282 283 284
297 296 296 296 295 293 293 292 292 290 288 286 284 283 282 282 282 283 284 285 286 284 284 286 286 285 285 286 285 286 286 286 286 286 285 285 285 285 284 283 283 282 281 280
293 292 292 292 292 290 289 288 287 286 284 284 283 283 282 281 280 280 281 282 283 283 283 284 283 285 286 285 284 284 284 285 284 284 284 283 283 282 282 281 280 279 278 277
289 288 288 288 288 287 285 284 283 282 281 281 281 281 281 281 280 280 280 281 282 283 283 282 282 283 284 283 283 282 282 282 282 281 280 280 279 279 278 278 277 277 276 276
285 285 284 284 284 283 282 280 280 280 280 280 281 280 280 280 280 280 280 282 282 282 280 280 281 282 282 282 281 281 280 280 279 278 278 278 278 277 276 275 275 274 274 273
282 282 281 281 281 280 279 279 279 279 279 280 280 280 280 278 278 279 280 280 278 276 275 276 276 276 276 276 277 277 277 276 276 275 275 275 275 274 274 273 273 273 272 271
280 279 279 279 278 279 279 279 280 280 279 280 280 279 279 278 278 278 276 275 274 274 274 274 274 274 274 274 274 274 274 274 274 273 273 273 273 272 272 272 271 271 271 270
280 279 279 279 279 279 279 279 279 279 279 278 278 277 277 276 276 275 273 273 272 273 273 274 273 273 273 272 272 272 272 272 272 272 271 271 271 270 270 270 269 269 269 268
280 279 279 279 279 279 279 279 279 279 278 277 276 276 275 274 274 273 273 272 272 272 272 272 271 271 271 271 271 270 270 270 270 270 269 269 269 268 268 269 268 267 268 268
280 279 279 279 279 278 278 277 276 276 275 275 275 275 275 274 273 272 271 271 271 272 271 271 271 271 271 271 270 270 270 270 269 269 268 268 267 267 267 267 267 267 267 266
280 280 280 280 280 278 278 277 277 276 275 274 273 273 272 272 272 271 270 270 270 270 270 270 270 269 270 269 269 269 268 268 268 268 267 267 267 266 266 266 266 267 266 266
280 280 279 279 279 279 278 278 278 277 276 275 273 272 271 271 270 271 270 270 270 269 269 269 269 269 269 268 268 268 267 267 268 267 267 266 266 265 265 266 266 266 266 267
279 279 278 278 276 276 276 277 277 275 274 274 273 272 271 271 270 270 269 269 269 268 268 268 268 268 268 268 267 267 266 266 266 266 267 266 266 265 266 266 267 266 266 266

GFSNGP_850_thetae_075.txt.gz
Theta_e
314 313 315 316 317 319 321 321 325 325 325 324 323 321 320 321 320 321 321 322 322 322 322 327 329 329 329 329 329 328 326 324 325 325 325 325 323 322 323 323 323 322 322 321
312 313 314 316 318 318 322 320 321 323 324 321 321 320 320 319 319 320 320 321 322 323 323 323 325 326 328 328 329 329 328 327 325 325 325 326 325 325 323 322 322 322 322 322
313 313 313 318 319 320 321 321 322 324 322 320 322 320 319 319 319 319 320 319 321 322 322 322 322 322 323 323 327 328 328 328 328 327 325 325 326 325 325 325 324 323 323 323
312 313 321 316 317 319 320 321 321 321 321 320 318 316 316 317 318 319 320 320 320 319 317 318 319 320 320 322 322 323 328 327 326 326 326 326 325 325 325 325 325 325 325 325
311 314 314 317 318 318 321 318 315 318 320 318 318 316 314 316 317 318 319 319 319 318 316 316 317 319 321 322 322 322 322 323 326 326 327 326 326 326 326 325 326 325 325 325
312 314 318 316 316 314 316 319 314 315 315 315 315 315 314 314 312 312 314 315 315 316 315 315 317 317 318 319 319 319 320 320 320 322 325 326 328 327 326 326 326 326 326 326
311 312 313 317 315 314 318 317 316 313 312 311 312 311 312 310 308 310 309 307 310 312 311 311 313 314 315 316 316 315 316 318 319 320 320 323 325 327 327 327 326 326 326 326
310 311 312 316 315 318 316 313 311 310 310 310 309 309 308 307 306 307 306 305 305 306 306 307 308 310 311 313 312 313 314 314 314 316 319 319 321 323 326 324 325 325 325 325
310 310 314 314 314 311 310 309 308 307 307 307 306 306 305 303 302 302 302 302 301 301 301 303 305 306 308 307 309 309 309 310 310 309 311 314 316 318 321 321 319 316 313 311
312 313 312 310 309 308 308 307 306 305 304 304 303 303 301 299 299 299 299 298 299 300 300 301 302 303 303 303 303 305 307 307 308 308 308 308 309 311 311 312 311 308 304 302
307 304 306 305 306 305 305 305 303 302 302 301 301 299 298 295 295 296 296 297 297 296 296 297 299 300 301 302 302 302 302 303 303 302 302 302 302 300 300 300 300 303 301 298
308 304 303 302 302 302 301 301 300 299 297 297 297 294 295 293 292 292 292 292 294 293 292 291 293 295 296 298 299 299 299 299 299 297 295 295 295 294 292 290 291 292 294 296
303 302 301 299 299 299 299 297 296 295 293 291 292 291 291 290 288 288 289 289 289 289 289 289 289 290 291 292 294 295 294 293 292 292 292 291 290 290 289 287 288 287 286 286
300 301 298 297 295 296 297 295 294 291 291 290 287 289 289 287 286 285 285 285 286 287 287 287 287 287 287 288 290 289 289 289 289 288 288 288 287 287 287 287 286 285 285 285
296 297 297 295 294 294 294 292 291 289 288 287 285 284 284 284 284 283 284 284 285 286 286 286 286 286 286 286 287 288 288 287 286 286 286 286 285 285 284 284 283 283 283 284
294 293 293 293 291 290 290 289 287 286 285 284 283 282 282 282 282 283 283 284 286 284 284 284 285 284 285 286 286 286 285 285 286 285 284 284 283 283 282 282 281 281 281 280
290 289 290 290 287 286 286 285 285 284 284 283 282 281 281 281 281 281 282 282 283 283 282 283 282 283 284 285 285 285 284 284 284 284 283 282 282 281 280 280 279 279 278 278
286 286 286 286 285 284 282 281 281 281 281 281 281 281 281 281 280 280 280 280 281 282 282 281 281 282 282 283 283 283 283 282 282 282 281 281 280 279 279 278 277 276 275 275
283 283 283 283 283 282 280 279 279 280 280 280 280 280 280 280 280 280 280 281 281 280 279 278 277 279 279 279 279 280 279 279 279 278 278 277 277 276 276 275 274 274 273 273
281 280 281 280 280 280 280 279 279 279 279 279 279 279 279 278 278 279 279 280 277 275 274 275 275 276 275 275 276 276 276 276 275 275 275 275 274 274 273 273 272 272 271 270
280 280 280 280 280 280 280 280 280 279 279 279 279 279 278 277 275 275 276 275 274 274 274 274 274 274 274 274 274 274 274 274 274 273 273 272 272 272 271 271 271 270 270 269
279 280 280 280 280 279 279 279 280 279 279 279 278 277 276 276 276 275 274 273 273 273 272 272 273 272 273 273 273 272 272 272 272 272 271 271 271 270 270 270 270 269 269 269
279 279 279 280 280 279 279 279 279 278 277 276 276 276 275 275 274 273 273 271 271 271 271 271 271 272 272 272 271 271 271 271 271 270 270 270 270 270 269 269 269 269 269 268
279 280 280 279 279 278 278 277 277 276 276 275 275 275 274 274 273 272 271 271 271 271 270 270 271 271 270 270 270 271 269 269 269 269 268 268 268 267 267 268 267 267 267 268
280 280 280 280 279 279 278 278 277 276 276 275 274 273 273 272 271 271 270 270 270 270 270 269 269 270 270 270 269 268 269 269 268 268 268 268 267 267 267 267 267 267 268 268
280 279 280 279 279 278 278 278 277 276 276 274 273 273 271 271 270 270 269 269 269 269 269 269 269 269 269 268 269 268 268 268 268 268 267 267 267 267 267 267 267 267 267 267
279 279 278 277 277 276 276 277 276 275 275 274 273 272 271 270 270 269 269 269 269 268 268 268 268 268 267 268 267 267 267 267 267 267 267 267 266 266 266 266 266 266 265 265

GFSNGP_850_thetae_078.txt.gz
Theta_e
311 312 312 313 316 316 316 318 322 321 323 324 323 322 321 319 320 322 323 322 322 324 326 327 325 325 325 325 326 326 325 325 323 322 323 324 323 321 321 321 321 321 321 322
310 311 314 315 315 314 315 317 317 319 322 320 322 321 319 318 320 321 321 318 318 319 321 323 324 326 327 327 326 325 326 325 325 324 325 325 325 324 323 321 320 322 322 322
308 312 311 315 315 315 315 318 319 321 320 320 322 319 317 317 320 320 317 314 315 317 318 319 321 322 322 322 324 327 325 325 324 324 325 325 325 325 325 325 324 323 322 321
308 310 315 316 313 317 320 318 320 321 321 318 316 314 312 317 318 315 311 311 312 314 316 317 318 320 321 321 320 323 325 325 325 325 324 324 324 325 325 325 325 325 325 324
306 310 309 314 315 318 313 315 318 319 319 317 315 312 309 309 311 310 308 308 310 312 313 315 316 317 318 319 319 319 319 321 323 324 324 325 325 324 325 325 325 325 325 325
308 311 310 314 314 314 316 317 314 317 317 315 314 313 308 304 307 307 307 308 307 309 311 312 311 314 315 315 315 316 316 315 318 319 319 320 323 325 325 324 325 325 325 325
308 310 311 312 315 315 318 317 312 311 311 312 312 308 304 302 302 304 305 304 306 308 309 308 309 310 311 311 310 309 309 311 313 315 317 318 317 318 321 323 324 324 324 325
308 311 311 314 314 316 313 311 310 310 309 308 305 303 302 302 301 301 303 305 304 305 305 305 306 307 305 306 304 307 308 309 310 310 311 313 315 316 316 318 320 319 319 320
308 309 312 311 312 310 309 307 306 307 306 305 302 300 299 298 299 300 300 300 300 301 302 303 304 305 304 303 302 303 305 307 307 307 308 308 310 312 314 314 314 314 313 310
310 308 308 306 307 306 307 303 302 302 302 302 298 297 295 295 294 295 296 297 298 299 299 300 301 302 302 303 303 302 302 303 303 304 303 303 304 303 303 303 302 301 301 301
306 303 303 301 301 302 301 301 301 300 299 297 297 294 294 292 292 292 293 295 296 296 296 295 296 299 300 301 301 302 302 302 301 300 299 298 298 297 296 294 295 295 294 295
306 300 301 299 299 299 299 295 296 296 296 293 293 292 292 291 290 290 289 290 291 291 292 292 293 293 294 295 296 297 297 297 297 297 296 294 291 290 289 289 290 290 289 290
298 298 297 297 297 298 297 294 293 293 291 291 290 290 290 288 287 287 288 288 288 288 288 289 289 289 289 291 292 293 293 292 292 292 291 291 290 288 287 286 287 286 286 286
297 299 295 295 294 294 293 292 292 290 289 288 287 287 286 285 285 286 286 285 286 286 286 287 287 287 287 287 289 289 289 289 289 289 289 288 288 287 286 286 286 285 285 285
294 294 293 293 294 292 291 291 290 287 286 285 285 285 284 284 284 284 284 284 285 285 285 285 285 285 286 286 287 288 288 287 287 287 286 286 286 286 285 285 284 283 283 284
291 292 291 290 290 289 289 287 286 284 283 283 282 282 282 283 283 283 283 283 285 284 283 284 285 284 284 285 285 286 286 285 285 285 284 284 284 284 284 284 283 283 283 282
289 288 289 287 287 286 285 285 284 283 283 282 281 281 281 281 281 282 282 282 283 283 283 283 282 283 284 284 284 284 284 284 284 284 283 283 282 282 281 281 281 280 280 279
285 285 286 285 283 282 281 281 281 281 282 281 281 281 281 282 281 281 281 281 281 282 282 282 281 282 282 282 282 282 282 282 282 281 281 280 280 279 279 278 277 277 276 275
283 282 282 282 281 280 279 280 281 280 280 281 281 281 281 281 280 281 280 281 281 281 279 277 277 277 277 278 278 279 280 279 279 278 278 277 277 276 276 275 274 273 273 272
281 281 281 281 280 280 280 280 280 280 280 280 281 280 280 280 279 279 277 277 276 275 274 275 275 275 275 275 276 276 276 276 276 275 275 275 274 274 273 273 272 272 272 271
280 280 280 280 280 280 280 279 280 280 279 278 279 278 277 276 275 274 274 274 273 273 273 273 274 274 274 274 274 274 274 274 274 273 273 273 272 272 272 271 271 270 270 270
280 280 280 280 280 279 279 279 279 279 279 278 277 275 275 275 275 274 273 273 272 272 272 272 272 272 272 272 272 273 273 272 272 272 271 271 271 271 270 270 270 269 269 269
280 280 280 280 280 280 279 278 278 277 276 276 276 275 275 274 273 272 272 271 271 271 271 271 271 272 271 272 272 271 271 271 271 271 270 270 270 269 269 268 268 268 268 268
280 279 279 279 278 278 278 277 277 276 276 275 274 274 273 273 273 271 271 270 270 270 270 270 270 270 270 270 270 270 270 269 269 269 269 269 269 268 268 268 268 268 268 267
280 279 279 278 278 278 277 277 276 276 275 275 274 273 272 271 271 271 270 270 269 269 269 269 269 269 269 268 269 269 269 268 268 268 267 267 268 267 267 267 267 267 267 267
279 279 279 278 278 277 277 277 276 275 275 274 274 273 272 271 270 270 269 269 269 268 268 268 268 268 268 268 268 268 267 267 267 267 267 266 266 266 266 266 266 266 266 266
279 278 278 277 277 276 276 276 276 275 274 273 273 272 271 271 270 269 269 268 268 268 268 268 267 267 267 267 267 266 266 266 266 266 266 266 266 266 266 266 266 266 266 266

GFSNGP_850_thetae_081.txt.gz
Theta_e
309 309 310 311 312 312 313 314 316 315 319 321 320 319 319 319 319 317 316 317 319 321 323 324 325 325 325 325 325 325 324 323 323 322 321 321 321 321 321 320 321 321 320 320
309 308 309 311 309 312 313 314 315 315 316 318 320 319 319 318 317 314 312 312 313 316 320 322 323 324 324 325 325 325 325 325 325 325 324 323 323 323 322 321 321 321 320 321
306 306 307 310 312 314 315 315 313 315 316 320 321 321 319 318 313 310 309 308 308 311 313 316 318 319 322 323 325 325 324 323 323 323 324 324 324 324 324 323 323 323 322 321
305 306 304 310 312 313 315 316 315 317 317 319 315 311 312 312 309 305 304 303 306 308 310 313 315 317 318 320 323 323 323 322 323 323 323 323 323 323 324 324 324 324 324 323
304 306 305 307 313 313 313 315 313 317 316 313 309 307 305 304 304 302 302 303 305 306 308 310 313 314 315 316 317 318 320 320 321 321 322 322 322 322 323 323 323 323 324 323
305 307 306 310 312 311 311 316 312 316 315 313 313 310 304 300 300 299 300 303 305 306 306 307 306 308 310 310 312 313 313 315 317 318 318 318 319 319 321 321 321 322 322 322
306 306 307 310 314 312 316 315 310 311 312 308 306 303 299 300 297 297 300 302 303 305 306 306 306 307 309 308 308 307 307 309 310 311 313 314 314 315 316 317 319 319 319 320
305 307 307 311 313 311 311 309 308 308 306 303 300 298 297 296 296 298 299 299 300 301 302 302 302 303 303 304 303 305 306 307 308 308 309 309 310 311 311 313 315 315 312 311
307 307 309 308 311 308 306 305 305 305 303 301 298 296 295 295 295 294 295 295 296 297 299 300 301 302 303 302 302 302 302 304 304 304 304 304 305 306 307 307 307 307 306 304
309 304 303 303 301 300 301 298 299 300 299 298 295 294 292 292 292 293 294 295 295 297 297 297 298 299 300 300 300 301 302 301 301 302 302 302 303 302 302 301 300 298 298 297
306 303 301 298 297 297 296 295 295 295 294 293 294 291 293 291 290 289 290 292 293 294 294 294 294 295 296 296 295 296 297 296 297 298 298 299 299 298 297 294 295 295 293 293
304 299 299 296 295 295 295 292 292 292 292 290 290 289 290 288 287 288 289 289 290 290 291 291 291 292 292 293 293 294 295 295 294 293 292 292 291 290 289 290 291 291 290 290
297 296 296 294 294 295 294 292 291 290 289 287 286 287 286 285 285 286 287 287 287 287 288 288 289 290 290 291 291 292 292 291 291 291 290 289 289 288 288 287 287 287 287 287
295 297 294 294 292 292 293 291 290 289 287 286 286 285 284 285 285 286 285 285 286 286 286 287 287 288 287 288 288 289 289 288 289 288 288 288 287 287 286 286 286 286 285 286
292 292 291 291 291 289 289 289 288 285 284 284 284 284 284 284 284 283 283 284 284 285 285 286 286 286 286 286 287 287 287 286 286 286 286 286 286 286 285 285 285 285 284 284
290 291 290 289 288 287 287 286 284 282 282 282 283 283 283 283 283 283 283 283 284 284 284 284 284 284 284 284 285 285 285 285 285 284 284 284 284 284 284 284 284 283 283 282
289 288 287 286 285 283 282 283 283 283 282 282 282 281 282 282 282 282 282 282 282 283 283 283 282 282 283 283 284 284 284 283 283 283 283 283 282 282 282 281 281 280 280 279
285 285 285 284 283 281 280 281 282 282 282 281 281 281 282 282 282 281 281 280 280 281 281 280 280 280 281 281 281 281 281 281 281 281 280 280 280 279 279 278 278 277 276 274
283 283 283 283 282 281 281 281 281 281 280 280 280 280 280 280 279 279 279 279 279 278 277 276 276 276 276 277 277 277 278 278 278 278 278 277 277 276 275 275 274 273 273 272
280 281 282 281 281 281 281 280 280 280 279 280 280 279 279 278 276 275 275 275 275 275 274 274 274 275 275 275 275 275 275 275 275 275 275 274 274 274 273 273 272 272 271 271
280 280 280 280 280 280 280 279 280 280 279 279 279 278 277 277 276 275 274 274 274 273 273 273 274 274 274 274 274 274 274 274 274 274 273 273 272 272 272 271 271 270 270 270
280 281 281 280 280 280 279 279 279 279 278 277 276 276 276 275 274 273 273 273 272 272 272 272 272 273 272 272 272 272 272 272 272 272 271 271 271 270 270 270 269 269 269 268
281 280 280 279 279 279 278 277 276 276 275 275 275 274 274 274 273 272 271 271 271 271 271 271 271 271 271 271 271 271 271 271 270 270 270 270 269 269 269 269 268 268 268 268
280 279 279 278 278 277 277 277 276 276 276 275 274 274 273 272 272 271 270 270 270 270 270 270 270 270 270 270 270 270 270 270 270 269 269 269 268 268 268 268 268 268 268 268
279 279 279 278 278 278 278 277 276 276 275 275 274 274 273 272 271 270 270 270 269 269 269 269 269 269 269 269 269 269 268 269 269 269 269 268 268 267 267 268 267 267 267 267
279 279 279 278 278 277 277 277 276 275 275 274 273 273 272 271 270 270 269 269 269 268 268 268 268 268 268 267 267 267 267 267 267 267 267 267 267 267 267 266 266 266 266 266
279 278 278 277 277 276 276 275 275 274 274 273 272 272 271 270 270 269 269 268 268 268 268 267 267 267 267 267 267 266 266 266 266 266 266 266 266 266 266 266 266 266 266 266

GFSNGP_850_thetae_084.txt.gz
Theta_e
308 308 308 309 309 310 311 312 313 311 312 313 315 319 318 318 314 313 312 313 316 319 321 323 323 323 324 324 323 323 323 323 322 321 321 320 320 320 320 320 320 321 321 321
308 307 307 309 307 306 306 308 310 311 313 313 314 319 318 313 310 310 308 307 309 312 316 319 322 323 323 324 325 324 324 324 323 323 322 322 322 321 321 321 321 321 320 320
304 305 305 305 308 311 310 312 312 315 313 316 319 320 317 311 307 305 304 303 303 304 307 311 316 320 322 322 324 324 323 323 322 323 323 323 323 323 323 323 323 323 322 322
305 304 302 304 311 312 311 311 310 314 315 313 314 308 305 304 304 301 299 298 299 301 303 307 310 318 318 318 320 322 322 321 322 322 322 323 323 323 323 322 322 323 323 323
303 305 304 305 312 310 309 310 311 311 313 314 307 304 300 301 300 300 298 298 299 301 301 304 309 312 315 316 317 317 318 318 319 319 320 320 321 321 322 322 322 321 321 321
304 306 302 302 312 311 311 312 307 311 315 310 312 310 301 299 299 300 300 299 302 301 303 302 302 306 310 310 312 313 313 314 314 316 316 318 318 318 319 320 320 319 319 320
305 306 305 307 310 311 314 311 301 303 302 301 301 300 296 296 295 296 297 298 301 302 302 300 301 303 305 305 307 306 307 307 308 310 311 312 312 313 314 315 317 317 315 315
307 307 306 307 311 312 309 301 300 299 298 297 295 295 293 292 292 292 294 297 298 300 300 300 300 301 301 301 301 301 303 305 305 305 306 306 308 309 309 311 311 312 311 310
306 306 304 300 302 300 301 299 300 299 297 296 294 292 291 290 291 291 292 293 296 297 297 298 298 299 300 298 300 301 301 300 302 303 303 303 303 303 304 304 305 305 304 303
307 302 299 297 296 295 295 294 295 295 295 294 292 291 291 291 291 292 292 292 293 295 295 295 296 297 298 298 298 299 299 299 299 300 300 300 301 300 299 299 297 296 296 296
304 302 299 295 294 293 293 293 293 293 292 291 291 289 288 287 287 288 289 290 291 290 290 290 292 293 292 294 294 295 295 295 295 295 295 296 295 294 292 290 292 292 291 291
300 297 296 293 291 291 291 290 290 291 290 289 289 287 287 286 287 288 288 288 288 288 289 289 290 291 291 291 292 294 294 294 293 292 292 292 291 290 288 289 290 289 288 289
295 294 293 291 289 289 289 288 288 288 287 287 286 287 286 285 285 286 286 286 287 287 287 287 288 289 289 290 290 291 291 290 290 290 290 289 289 289 289 287 287 287 286 286
293 295 292 291 288 288 289 288 287 286 285 285 285 285 285 285 285 285 285 285 285 286 286 287 287 287 287 287 288 289 289 288 288 288 287 287 287 287 286 287 287 286 286 286
291 291 289 288 288 287 286 285 284 283 283 283 283 284 284 284 283 283 283 283 284 284 285 285 285 285 285 285 286 286 286 286 286 286 286 286 285 286 285 285 285 285 284 284
289 288 288 287 285 285 284 283 282 281 281 282 282 282 282 282 282 282 282 283 284 284 283 284 284 283 283 283 284 284 284 284 284 284 284 284 284 284 283 283 283 283 282 282
288 286 286 284 283 282 281 281 282 281 281 281 280 280 281 281 281 281 281 281 281 282 282 282 282 282 282 282 282 282 282 282 282 282 282 282 281 281 281 280 280 280 279 278
284 284 283 283 281 280 280 281 281 281 281 280 280 280 280 281 280 280 279 279 279 279 278 277 276 277 277 278 278 279 280 280 280 280 280 279 279 278 278 277 275 275 274 274
282 282 282 282 282 282 282 281 281 281 280 280 280 281 280 280 279 277 276 276 277 277 276 276 276 276 276 276 276 276 277 277 277 277 277 276 276 275 275 274 274 273 272 272
282 282 282 282 281 282 282 281 281 281 280 280 280 279 278 277 276 276 275 275 275 275 274 274 274 275 275 275 275 275 275 275 275 275 274 274 274 273 273 272 272 271 271 271
282 282 282 282 282 281 281 280 280 280 279 278 276 276 276 275 275 274 273 273 273 273 273 273 273 273 273 273 273 273 273 273 273 273 273 272 272 271 271 270 270 270 269 269
282 282 281 281 281 281 280 279 278 277 276 276 275 275 274 274 274 273 272 272 271 271 271 271 271 272 272 272 272 272 272 271 271 271 271 270 270 270 269 269 269 269 269 269
280 280 280 279 279 278 278 277 277 277 276 276 275 275 274 273 272 272 271 271 271 270 270 270 270 270 270 270 270 270 270 270 270 269 269 269 269 269 269 268 268 268 268 268
279 279 278 278 278 277 277 277 276 276 275 275 275 274 273 273 272 271 271 270 270 269 269 269 269 269 269 269 269 269 269 269 269 269 269 268 268 268 268 268 268 268 268 268
279 279 278 278 278 277 277 277 276 276 275 275 274 273 273 272 271 270 270 269 269 269 269 268 268 268 268 268 268 268 268 268 268 268 268 268 267 267 267 267 267 267 267 267
279 279 278 278 277 277 276 276 275 275 275 274 273 272 272 271 270 269 269 269 268 268 268 268 268 267 267 267 267 267 267 267 267 267 267 267 267 267 267 267 267 267 267 266
279 278 277 277 277 276 275 275 274 273 273 273 272 272 271 270 270 269 269 269 268 268 268 268 267 267 267 267 267 267 267 267 267 267 266 266 266 266 266 266 265 265 265 266

GFSNGP_850_thetae_087.txt.gz
Theta_e
308 308 309 309 309 309 309 309 309 308 309 310 312 312 316 312 310 308 307 306 309 311 318 320 321 322 322 321 320 320 320 321 320 320 320 320 320 320 320 320 320 320 321 321
308 307 307 307 307 307 306 307 308 309 311 312 313 314 314 310 307 305 303 303 303 305 310 316 318 320 322 321 322 322 321 322 322 322 321 321 321 321 320 320 320 320 320 320
307 305 306 305 307 307 308 310 312 311 312 310 314 311 310 306 304 301 299 298 299 301 303 307 314 318 321 322 322 322 322 321 321 322 322 322 322 321 322 321 321 321 321 321
306 305 303 305 305 310 312 311 310 310 311 311 311 304 302 302 301 300 299 297 297 298 300 303 307 315 316 319 321 321 321 320 320 321 321 320 320 321 321 322 321 321 321 322
307 306 304 306 312 310 311 310 306 306 306 306 305 301 299 298 298 299 302 296 297 297 298 301 306 310 315 313 316 315 318 318 317 318 319 320 320 320 321 321 321 321 321 321
306 305 304 303 309 309 311 312 303 301 301 311 306 308 298 295 295 296 298 301 297 298 300 300 301 305 308 311 312 315 314 313 314 316 317 317 317 318 318 319 319 318 318 318
305 305 305 305 307 310 312 309 299 297 297 295 296 297 293 293 292 293 295 296 299 300 298 298 300 304 307 302 303 305 305 306 308 310 310 311 311 312 313 313 313 312 313 311
305 307 306 301 307 309 306 299 298 296 295 293 292 291 291 291 291 291 292 293 295 300 298 298 301 302 302 301 300 302 303 303 303 305 305 306 306 307 308 308 308 308 307 307
308 307 300 297 297 295 296 296 296 295 293 291 290 290 289 289 290 290 290 291 293 295 296 297 299 299 300 298 298 300 301 302 303 304 303 302 303 304 303 303 304 303 302 301
301 299 296 295 294 293 293 292 292 292 291 290 289 288 287 287 288 288 290 292 292 294 295 295 295 295 295 294 296 297 298 298 298 299 299 299 300 299 298 298 297 297 296 295
301 299 296 292 291 291 290 290 290 289 288 288 288 287 286 286 286 287 288 289 290 290 290 290 292 292 292 293 293 294 295 294 294 294 295 294 294 292 292 291 292 292 291 291
297 295 293 290 289 289 288 287 287 287 286 285 285 285 286 285 286 287 287 286 287 287 287 287 288 289 289 290 291 292 292 291 291 291 291 290 290 289 289 289 290 290 289 290
295 292 290 289 288 287 286 286 285 286 285 284 283 285 285 284 285 285 286 286 286 286 286 287 288 288 288 288 289 290 290 289 289 288 288 288 288 288 288 287 288 288 287 287
292 292 289 289 286 285 285 284 285 284 285 284 284 284 285 285 285 285 285 284 285 285 286 286 286 286 286 286 287 288 288 287 287 287 287 286 286 286 286 286 286 286 285 286
289 289 287 286 285 284 284 283 284 283 283 283 283 283 284 284 283 283 283 283 283 284 284 285 285 285 285 285 286 286 286 286 286 286 286 286 285 285 285 285 285 285 284 284
287 286 285 284 283 283 283 282 281 280 282 282 282 282 282 282 282 282 282 282 283 283 283 283 283 283 283 283 284 284 284 284 284 284 284 284 284 284 284 283 283 282 282 282
288 286 285 283 282 281 280 280 281 281 281 282 282 282 282 282 282 281 281 281 280 280 279 279 279 279 279 280 280 281 282 282 282 282 282 282 282 281 281 280 280 279 278 276
283 283 283 282 281 280 279 281 281 281 281 281 281 281 281 281 281 280 279 278 278 277 277 277 277 277 277 277 278 278 278 279 279 279 279 279 278 278 277 275 275 274 274 274
282 282 282 282 282 282 281 281 280 280 280 280 280 280 278 277 276 275 275 275 275 276 276 275 275 275 276 276 276 276 276 276 276 276 276 275 275 274 274 273 273 273 272 272
282 282 282 281 281 281 280 280 280 280 279 277 277 276 276 276 275 275 274 274 274 274 273 273 273 274 274 274 274 274 274 274 274 274 274 273 273 273 272 272 271 271 271 271
281 281 281 281 280 280 280 279 279 278 277 276 276 276 275 275 275 274 273 273 273 273 273 273 273 273 273 273 273 273 273 273 273 272 272 272 271 271 271 271 270 270 270 270
281 281 281 280 280 280 279 278 277 277 276 276 276 275 275 274 273 273 273 272 272 271 271 271 271 272 272 272 272 271 271 271 271 271 271 270 270 270 270 270 269 269 269 269
281 281 281 280 279 279 278 278 277 277 277 276 276 275 274 274 273 272 271 271 270 270 270 270 270 271 271 271 271 271 271 270 270 270 270 270 269 269 269 269 269 269 268 268
281 280 280 280 279 279 278 277 277 276 276 275 275 274 273 273 272 271 271 270 270 269 269 269 269 269 269 269 269 269 269 269 269 269 269 269 268 268 268 268 268 268 267 267
280 280 279 278 278 277 277 276 276 275 275 274 274 273 273 272 271 270 270 269 269 269 269 268 268 268 268 268 268 268 268 268 267 267 267 267 267 267 267 267 267 267 267 267
279 278 278 277 277 276 276 275 275 274 274 273 273 272 272 271 270 270 269 269 269 268 268 268 268 268 267 267 267 267 267 267 267 266 266 266 266 266 266 266 266 266 266 266
278 278 277 277 276 276 275 274 274 273 272 272 272 271 271 270 270 270 269 269 268 268 268 268 267 267 267 267 267 266 267 266 266 266 266 266 266 266 265 265 265 265 265 265

GFSNGP_850_thetae_090.txt.gz
Theta_e
309 309 309 309 309 310 311 310 310 310 310 311 313 315 315 316 313 310 306 304 303 310 314 316 320 321 322 322 324 322 322 322 321 320 320 320 321 321 320 321 321 321 321 321
307 308 308 307 307 308 308 308 310 310 312 311 312 312 313 309 308 306 303 301 300 305 307 311 314 319 321 321 322 323 323 323 322 321 322 321 320 320 320 320 320 321 321 321
307 306 306 306 307 308 308 309 311 312 312 312 312 311 308 306 303 302 299 297 300 298 301 304 309 313 319 320 320 321 321 321 321 320 321 321 321 321 320 320 320 319 319 319
307 307 306 311 309 310 309 311 308 308 309 308 308 303 299 298 300 298 297 299 299 296 296 301 304 309 313 317 319 320 320 321 321 321 321 320 321 321 321 321 321 321 321 321
308 306 305 310 310 309 310 310 304 304 303 302 303 299 296 295 294 294 294 296 297 295 294 296 301 303 306 311 314 316 317 318 318 319 319 319 320 320 320 320 321 321 320 320
307 307 305 309 308 309 311 314 301 301 299 297 304 306 295 292 292 292 293 293 299 297 295 295 296 299 303 304 308 308 310 312 312 314 315 315 316 317 317 317 318 317 316 316
306 307 308 305 306 307 314 308 299 298 295 292 293 293 291 291 290 290 291 292 293 300 297 296 295 297 299 299 301 301 305 303 305 309 311 308 310 311 311 311 311 310 310 310
307 308 309 299 306 308 301 298 296 295 293 292 291 290 289 289 289 290 290 291 292 295 296 297 297 296 295 296 298 301 303 300 304 305 304 302 304 305 305 305 306 305 305 304
304 303 298 296 296 294 295 295 294 293 291 290 289 288 288 287 287 287 288 288 290 291 292 294 296 299 298 298 299 299 302 301 301 300 299 299 299 300 301 301 300 299 299 300
304 298 296 295 294 293 291 291 291 290 290 289 287 287 286 286 285 285 286 286 286 288 289 290 291 293 293 294 295 297 298 297 296 297 295 294 294 295 296 294 293 291 291 292
300 298 297 292 290 290 289 289 288 287 287 287 286 285 285 285 285 286 287 288 289 289 289 290 291 292 293 293 294 295 296 295 295 293 293 292 292 291 292 292 291 290 291 291
300 295 294 291 288 288 287 286 286 286 285 285 285 284 284 283 283 284 286 288 289 289 289 289 291 291 292 292 293 293 293 293 292 290 290 288 289 289 290 289 290 290 290 290
295 291 290 288 287 287 286 285 284 283 283 283 283 283 283 282 282 283 283 284 285 285 286 287 287 288 288 288 289 290 289 289 288 288 287 286 284 283 286 286 287 288 288 288
292 291 290 288 287 285 284 284 283 283 283 282 282 282 281 281 281 282 284 284 284 285 285 285 286 286 285 286 287 287 287 287 287 287 286 286 286 285 285 285 286 286 285 286
289 289 288 287 286 286 285 284 284 283 282 281 280 280 280 282 283 283 283 283 283 284 284 284 284 284 284 284 284 285 285 285 285 285 284 284 284 284 283 283 282 281 281 282
288 288 287 287 286 286 285 284 284 282 281 280 280 281 281 282 282 282 282 282 283 282 281 281 282 282 282 282 282 282 283 283 283 282 282 282 281 281 280 279 278 279 280 279
289 288 287 286 285 284 283 282 282 280 279 279 280 280 281 282 282 282 281 280 279 278 278 278 278 278 278 279 279 279 279 280 281 280 280 279 278 278 278 277 277 276 276 276
286 285 285 284 283 282 280 280 280 280 281 281 281 281 280 279 278 277 277 277 277 277 277 277 277 277 277 277 278 277 277 277 278 278 277 277 276 276 275 274 274 273 273 274
283 283 282 282 281 280 279 280 281 281 280 279 279 278 278 277 276 276 275 275 275 275 275 275 275 275 275 275 276 275 275 275 275 275 275 275 274 273 273 273 272 272 272 272
280 280 280 281 281 281 281 281 280 279 278 277 277 277 277 276 276 275 275 275 274 274 273 273 273 273 274 274 274 273 273 274 273 273 273 272 272 272 272 272 271 270 270 270
282 282 282 282 282 281 281 279 278 278 277 276 276 276 275 275 274 274 273 273 272 272 272 272 273 272 273 273 272 272 272 272 271 271 271 271 271 270 270 269 269 269 269 269
281 281 281 281 280 280 278 277 277 277 276 276 276 276 275 274 274 274 273 272 271 272 271 271 271 271 271 271 271 271 271 271 270 270 270 269 269 269 269 268 268 268 268 268
281 281 280 278 278 278 277 277 277 276 276 276 275 275 274 274 273 273 273 271 270 271 270 271 271 271 271 271 270 270 270 270 269 269 269 269 268 268 267 267 268 268 268 267
280 279 279 279 279 278 277 277 277 276 276 275 275 274 273 273 272 271 271 271 270 270 270 270 270 270 270 269 269 269 268 268 268 268 268 269 268 268 267 268 267 267 267 267
280 280 279 279 278 278 277 277 276 276 275 274 274 273 273 272 272 271 270 270 270 269 269 269 269 268 268 267 267 267 267 267 267 267 266 266 266 266 266 266 267 266 266 267
280 279 279 279 278 277 276 276 276 276 275 274 273 272 272 272 271 271 270 270 269 269 269 268 268 268 267 267 267 266 267 266 266 266 266 266 265 266 265 266 266 266 266 265
280 279 278 277 277 276 275 274 275 274 273 273 273 272 271 271 270 270 270 269 269 269 268 268 268 267 268 267 266 266 266 266 266 266 265 265 265 265 264 265 265 265 265 266

GFSNGP_850_thetae_093.txt.gz
Theta_e
314 314 314 314 314 314 314 314 312 312 311 312 314 315 315 314 313 311 308 303 303 303 306 311 319 320 321 322 323 322 322 322 322 324 323 323 322 322 322 323 323 323 323 322
310 309 309 309 309 310 310 310 310 311 312 314 312 312 311 310 308 306 303 301 299 301 303 305 312 318 320 323 324 324 322 323 322 323 321 322 322 322 322 322 322 323 322 322
309 307 307 307 308 308 309 311 313 314 312 311 311 308 302 301 302 300 300 298 295 297 298 300 304 311 314 319 323 324 324 321 321 322 321 320 320 320 321 321 321 321 323 323
308 307 311 310 310 310 312 311 310 309 309 307 305 298 296 294 295 294 293 293 293 295 296 298 299 306 309 314 321 321 322 323 322 322 322 322 322 323 323 321 321 320 320 320
309 309 308 311 309 309 310 310 305 305 304 302 301 298 294 292 291 291 291 291 291 293 294 298 296 300 302 307 316 318 319 320 320 320 320 321 322 321 321 321 322 321 320 320
309 307 309 310 308 308 310 309 302 301 299 297 302 304 294 290 290 291 291 291 291 291 294 295 294 296 300 298 303 307 308 311 315 316 318 318 318 319 319 319 320 319 319 318
308 309 311 304 306 306 314 305 299 297 295 294 293 292 290 290 290 289 290 291 291 290 292 294 294 294 295 296 295 295 297 298 304 306 310 309 308 309 308 308 309 309 309 308
310 310 312 299 305 305 299 298 297 295 294 292 291 290 289 289 289 289 289 290 291 290 289 291 292 296 295 294 292 293 297 295 298 297 300 301 300 301 301 299 302 301 302 302
304 303 299 297 297 295 296 296 295 294 292 290 289 288 288 288 287 287 287 287 289 290 290 290 291 290 293 291 293 294 295 296 297 297 301 299 297 297 301 292 296 296 297 297
303 299 297 295 294 293 292 291 291 290 290 289 288 287 286 286 285 286 286 287 287 288 290 289 289 291 289 291 290 297 293 294 296 297 298 298 299 297 299 298 297 295 293 293
300 299 296 292 291 291 290 289 288 288 288 287 287 286 285 285 284 284 284 285 285 285 286 286 287 288 288 288 288 290 289 290 288 291 292 294 294 295 294 292 293 292 291 292
300 296 295 291 289 288 288 287 287 287 286 286 285 285 285 284 284 284 283 283 284 285 287 286 288 288 288 289 288 288 289 288 287 287 288 289 289 289 288 289 290 290 289 289
295 292 291 289 288 287 286 285 285 285 284 284 285 285 284 283 282 282 282 282 282 282 283 286 287 287 287 288 288 288 288 287 286 287 287 286 285 285 286 285 286 287 287 287
293 293 292 289 288 287 286 285 285 285 285 285 284 284 283 282 281 281 281 280 281 282 283 285 286 286 285 286 287 287 287 287 287 286 285 285 284 284 284 284 285 285 285 285
291 291 290 288 288 287 287 287 286 285 284 283 282 282 282 281 281 282 282 281 282 283 283 283 284 283 284 282 284 285 285 284 284 284 285 284 283 282 281 281 280 280 280 281
290 291 290 290 289 288 287 287 286 284 283 282 281 280 280 281 281 282 281 281 281 280 279 279 279 279 279 280 280 280 281 281 281 281 280 280 280 280 279 279 278 279 279 279
291 290 289 288 287 286 285 285 284 283 282 280 280 280 279 279 279 278 278 278 278 278 278 278 278 278 278 278 279 280 280 279 279 279 279 279 279 278 278 277 276 274 275 274
289 288 288 287 285 284 283 283 281 280 281 281 280 279 278 278 277 277 277 276 276 276 276 276 276 277 277 277 277 278 278 278 278 278 277 277 277 277 276 276 276 275 274 273
287 286 286 285 284 283 282 280 281 281 279 278 278 278 277 277 276 276 276 276 276 276 276 275 275 275 275 275 276 277 277 277 277 277 277 276 276 276 275 275 274 274 273 272
284 284 283 282 281 282 282 281 280 279 278 278 277 277 277 276 276 276 275 276 275 274 274 274 274 274 274 274 275 276 275 275 276 275 274 275 274 274 274 273 273 273 272 271
281 281 282 282 282 282 280 279 278 278 277 277 277 277 276 276 275 275 276 277 273 273 272 272 273 273 273 273 274 273 273 274 274 273 273 273 273 273 272 272 272 271 271 270
282 282 281 281 281 279 279 278 278 277 277 277 276 276 276 276 275 275 274 273 273 272 272 271 272 272 271 272 272 271 272 272 272 272 272 272 272 272 271 270 270 270 269 269
282 281 281 279 279 279 278 278 278 277 277 276 276 275 275 275 274 275 276 272 272 271 272 270 271 271 271 270 270 270 270 270 270 270 270 269 270 269 269 269 268 268 268 268
281 280 279 279 279 279 278 277 276 276 276 276 275 275 274 275 276 274 273 272 271 271 271 270 270 270 270 269 269 269 269 269 269 269 269 268 269 268 268 268 267 267 267 267
280 280 279 279 280 281 279 278 277 277 276 277 276 275 274 274 273 273 272 271 271 271 271 270 270 270 269 269 269 269 268 269 268 267 267 268 268 268 267 267 267 266 266 266
279 281 281 280 280 279 279 278 279 278 278 278 278 276 275 273 273 272 272 272 271 271 271 270 270 269 269 269 269 268 268 268 268 268 267 267 267 267 267 267 266 266 265 265
281 281 280 279 278 278 277 276 276 278 276 276 276 276 275 274 273 272 272 271 272 271 271 271 270 270 269 268 268 268 268 268 268 267 267 266 266 266 266 266 266 265 265 265

GFSNGP_850_thetae_096.txt.gz
Theta_e
310 311 317 317 316 316 316 315 314 312 314 313 313 312 310 308 307 306 304 301 299 297 300 306 310 316 320 323 324 324 323 323 324 324 324 323 324 324 324 323 323 322 322 322
313 314 314 315 313 314 312 312 311 312 313 310 308 304 302 301 300 299 297 296 295 294 296 300 304 307 312 319 322 323 323 322 323 323 325 324 323 323 323 324 323 323 323 322
309 308 309 310 309 310 313 310 311 311 309 306 305 299 296 295 295 294 293 292 292 291 293 295 300 303 306 309 316 321 322 322 322 324 323 324 323 322 322 323 323 323 323 323
309 309 314 311 311 312 309 306 305 306 304 303 299 294 293 292 292 291 290 290 289 290 291 293 296 301 302 303 308 314 322 322 322 321 320 320 321 322 321 321 322 323 322 323
311 314 312 311 309 310 312 306 302 302 300 299 298 297 292 290 290 289 289 290 290 290 290 292 294 297 301 299 300 305 312 318 319 320 321 320 320 320 321 320 321 321 321 320
311 309 312 306 304 306 308 305 300 298 297 297 297 300 294 290 290 289 289 289 291 291 291 292 292 294 298 298 297 295 298 305 307 311 315 318 319 319 319 319 319 318 318 318
310 313 308 300 303 306 311 303 298 296 294 293 293 292 290 289 289 289 288 289 291 291 291 290 291 293 294 295 295 293 293 298 301 301 302 305 308 311 314 314 315 313 311 309
310 311 308 297 301 302 299 297 297 294 293 292 290 290 289 288 288 287 287 288 289 290 290 291 290 289 291 292 292 293 297 297 296 296 294 294 295 296 298 301 302 302 302 300
302 302 298 296 296 294 295 294 293 293 291 290 289 288 287 287 286 286 286 286 287 288 288 289 290 290 289 288 290 292 295 296 297 298 296 294 296 293 292 294 296 295 297 298
303 298 295 295 294 292 291 290 290 290 289 288 288 287 286 286 286 285 285 285 286 287 287 287 288 289 288 288 290 290 292 293 294 295 295 296 296 295 292 292 296 289 292 294
300 297 295 292 291 290 290 289 289 288 288 287 287 286 286 285 285 284 284 284 284 284 284 285 287 288 289 288 290 290 289 289 290 290 292 291 292 291 291 290 291 290 289 289
298 296 293 291 289 289 288 288 288 287 286 286 286 285 284 284 283 283 283 283 283 282 284 284 285 285 286 286 288 288 287 288 287 286 287 287 288 288 288 289 289 289 289 290
294 292 291 289 288 288 287 286 286 286 286 286 285 285 284 283 283 282 282 281 281 281 282 284 284 285 284 286 286 286 286 285 285 285 285 285 285 286 286 286 287 288 288 288
294 292 291 291 289 288 287 286 286 285 285 285 284 283 282 281 281 281 280 281 282 283 283 284 284 284 283 283 285 285 285 285 286 285 284 284 284 284 283 283 283 284 284 284
292 291 290 290 289 289 288 287 286 285 284 283 282 282 281 280 281 281 281 281 281 281 281 281 281 282 282 282 281 282 283 283 283 283 283 282 282 282 282 282 282 281 281 281
293 292 291 290 290 289 288 287 286 285 284 283 282 281 281 281 280 279 279 279 279 279 279 279 279 278 279 281 281 281 280 280 280 280 280 280 280 280 279 279 279 279 278 278
292 291 290 289 288 287 286 285 284 283 281 282 282 282 280 279 279 279 279 278 278 278 278 278 278 277 278 279 279 279 279 279 279 279 279 278 278 278 278 277 277 276 275 275
290 290 289 287 286 285 284 283 281 281 281 280 279 279 279 279 278 277 277 276 277 277 276 277 276 276 276 277 278 278 278 278 278 277 277 277 277 277 276 276 276 275 274 274
288 287 287 286 285 284 282 281 282 280 279 279 278 278 277 277 277 277 276 276 276 276 275 274 275 275 275 276 277 277 277 277 277 277 277 277 276 276 276 275 275 274 274 273
285 285 284 284 283 283 282 281 280 279 278 278 278 277 277 277 276 276 277 277 277 274 274 274 274 274 274 274 275 275 275 275 276 275 275 275 275 275 274 274 273 273 273 272
283 283 283 283 283 282 281 280 279 279 278 278 278 277 277 277 276 276 277 277 276 274 274 273 274 273 273 274 274 273 273 274 274 274 274 274 274 273 273 272 272 272 271 271
282 283 282 282 281 280 279 279 279 278 278 277 276 276 277 277 276 276 276 275 274 273 273 273 273 273 273 273 272 272 272 272 272 272 272 272 272 272 272 271 271 270 270 270
282 282 282 280 280 280 280 279 278 278 277 276 276 275 275 276 276 275 275 274 273 272 272 272 271 271 271 271 271 271 271 271 271 271 271 270 270 270 270 270 269 269 269 269
282 281 280 281 280 280 280 279 278 278 277 277 277 276 275 275 276 275 274 273 273 272 272 272 271 271 270 270 271 270 270 270 270 270 269 269 269 269 269 269 268 268 268 268
281 281 281 281 281 281 280 279 279 279 279 278 278 277 276 276 275 274 273 273 272 272 272 272 271 271 270 270 270 270 270 269 269 269 268 268 269 269 268 268 268 267 267 267
281 281 281 281 282 281 280 279 280 280 279 278 278 278 277 276 275 274 273 273 273 272 272 272 271 271 271 270 270 269 269 269 269 269 268 268 268 268 268 268 267 267 266 266
282 282 282 281 280 279 279 278 277 278 278 277 276 276 276 275 275 274 274 273 273 273 272 272 272 271 271 270 270 269 269 269 269 268 268 268 267 267 267 267 267 267 266 266

GFSNGP_850_thetae_099.txt.gz
Theta_e
306 306 308 309 311 315 317 315 317 312 308 308 303 301 299 298 297 296 295 294 293 293 295 299 302 307 311 317 322 324 324 325 324 323 323 322 322 322 322 321 322 321 321 321
312 312 312 315 314 312 310 310 310 309 306 304 299 296 295 294 294 293 293 292 291 290 293 295 297 300 306 311 318 322 323 323 324 324 324 323 322 323 323 323 323 322 322 321
313 312 312 315 311 307 305 304 306 305 302 301 297 294 293 292 291 291 291 289 289 289 290 292 294 296 300 305 310 316 321 323 323 324 323 324 324 324 323 323 323 323 322 321
310 310 313 308 306 305 303 300 300 300 298 298 294 292 291 290 290 289 288 288 289 290 290 291 293 295 297 301 306 309 310 316 320 322 324 324 324 324 324 322 323 323 322 321
312 313 310 306 303 302 307 301 298 297 296 298 295 296 291 290 288 288 287 288 289 289 290 291 292 293 296 298 301 303 302 305 310 317 322 322 321 322 321 321 321 321 320 319
310 311 310 303 299 300 302 300 297 295 294 292 295 293 290 289 288 287 287 288 288 289 290 291 291 292 293 295 297 298 298 297 299 303 310 318 318 317 317 316 317 316 316 316
308 308 304 297 298 300 298 300 295 293 292 291 290 290 288 287 287 287 287 287 288 289 289 289 290 292 292 292 293 293 295 295 297 296 295 300 307 306 305 305 304 305 307 308
305 304 303 295 297 298 298 295 293 292 290 289 288 287 287 286 286 286 286 287 288 288 288 289 290 290 290 290 291 293 294 295 297 296 294 294 298 299 299 299 299 298 298 298
301 299 295 293 293 292 292 292 291 291 289 288 287 286 286 285 285 285 286 286 286 287 287 288 289 289 289 288 290 293 294 294 294 295 294 295 296 296 298 297 296 295 295 295
299 295 293 293 292 290 290 290 289 289 288 287 286 286 285 285 285 284 284 285 286 287 287 287 288 288 287 288 290 291 291 291 292 294 293 293 293 294 294 294 294 295 294 291
297 294 292 290 290 290 289 288 288 287 287 287 286 285 285 284 284 283 283 284 285 285 286 286 286 287 287 288 288 288 289 288 289 290 291 292 291 291 290 289 291 291 289 291
294 293 291 290 289 289 288 288 287 287 286 286 285 284 284 283 283 283 283 284 285 285 285 285 285 285 285 286 287 288 287 287 286 286 286 286 287 287 287 287 288 288 288 289
293 292 290 288 288 287 287 287 286 286 285 285 284 284 283 283 282 282 283 283 284 284 284 284 284 285 284 284 285 285 285 285 285 285 285 284 285 285 285 285 285 285 285 285
292 290 289 290 287 287 286 286 285 285 284 283 283 283 283 283 283 283 281 280 280 280 281 282 282 282 282 282 282 283 283 283 283 283 283 283 283 284 284 285 285 285 285 284
292 292 290 289 289 288 286 285 284 283 283 283 282 282 282 281 280 279 279 279 279 279 279 279 280 281 281 281 281 280 281 281 281 281 281 281 281 281 281 281 281 281 281 281
291 290 289 289 288 287 286 285 284 283 282 281 281 280 279 279 279 279 278 278 279 279 278 278 278 279 279 280 280 280 279 279 279 279 279 279 279 279 278 277 277 278 278 277
291 290 289 287 287 286 285 284 283 283 282 282 281 279 279 279 278 278 278 278 278 277 277 278 277 277 278 278 279 278 278 278 278 278 278 278 277 277 277 276 276 275 275 275
291 290 288 287 286 285 284 283 283 282 281 280 279 279 279 278 278 278 277 277 276 276 276 276 277 276 276 277 277 277 277 277 277 277 277 277 276 276 276 275 275 274 274 274
288 287 286 285 285 284 284 283 282 281 280 279 278 279 278 278 277 277 278 278 277 276 276 276 275 275 275 276 276 276 276 276 276 276 276 276 275 275 275 274 274 273 273 272
286 286 285 285 284 284 283 282 281 280 279 279 279 278 278 277 276 277 277 277 276 275 275 276 274 274 274 274 275 274 275 275 274 274 274 274 274 274 273 273 273 272 272 271
285 285 285 284 284 283 281 280 280 280 279 279 278 277 277 277 276 276 276 276 276 274 274 274 274 273 273 273 273 273 273 273 273 273 273 273 273 273 272 272 272 271 271 270
284 284 284 283 282 281 280 280 279 279 279 278 277 277 277 277 276 276 276 276 275 274 273 273 273 272 272 272 272 271 271 271 271 271 271 271 271 271 271 271 270 270 270 269
284 283 283 282 281 281 280 280 279 278 278 277 277 277 276 276 276 275 275 275 274 273 273 273 272 272 272 271 271 271 270 270 270 270 270 270 269 269 269 269 269 269 269 268
283 283 281 281 281 281 280 279 279 279 279 278 278 278 277 276 276 276 275 274 273 273 272 272 272 271 271 271 270 270 270 269 269 269 269 269 269 269 268 268 268 268 268 267
283 282 282 281 282 281 281 280 280 280 279 279 279 278 277 276 276 275 274 273 273 273 272 272 272 271 271 271 270 270 270 269 269 269 269 268 268 268 268 268 268 267 267 267
282 282 282 282 281 281 280 279 280 280 279 279 278 277 277 276 276 275 274 274 273 273 273 272 272 272 271 271 270 270 269 269 269 269 269 268 268 268 267 267 267 267 267 266
282 282 282 281 280 280 280 279 278 278 278 278 277 276 275 276 275 274 274 274 273 273 273 272 272 272 271 271 270 270 270 269 269 268 268 268 267 267 267 267 267 266 266 266

GFSNGP_850_thetae_102.txt.gz
Theta_e
305 305 305 306 311 312 313 312 312 307 305 301 297 296 294 293 293 293 291 290 290 290 292 295 298 302 307 312 316 317 324 325 325 325 324 323 322 322 321 321 321 321 321 321
307 308 306 309 310 306 306 307 307 304 303 298 294 293 292 291 291 291 290 289 289 290 291 292 295 298 301 305 310 311 319 324 324 324 324 323 322 321 322 321 322 321 321 321
313 311 312 309 305 303 302 301 301 302 301 296 293 292 290 289 289 288 288 287 287 288 289 290 293 295 297 300 303 308 311 319 322 324 324 323 322 322 323 323 322 322 321 321
312 311 307 305 302 301 300 298 298 298 299 293 291 290 289 288 287 286 286 287 288 288 289 290 292 294 296 299 301 303 307 309 314 316 321 323 324 324 322 322 322 322 321 321
313 310 307 304 300 299 303 297 296 295 295 294 292 292 288 287 286 286 286 287 288 288 289 290 291 292 294 296 298 300 302 303 303 304 308 315 315 320 322 321 321 318 319 319
311 309 307 301 296 297 299 296 295 293 291 291 294 290 288 286 286 286 287 287 288 289 289 290 290 291 293 293 294 294 295 297 299 300 299 301 304 306 311 317 319 316 315 315
307 306 303 295 295 299 299 296 293 291 289 288 288 287 286 286 286 286 286 287 288 289 289 289 289 290 291 291 291 292 293 294 296 297 299 294 294 298 302 301 309 310 309 309
302 302 302 293 295 297 295 293 291 289 287 286 286 285 285 285 285 286 286 287 288 288 288 289 290 290 290 289 290 292 293 294 293 294 295 295 296 295 295 296 298 301 301 300
299 297 293 291 291 291 291 291 290 288 287 286 285 285 285 284 285 285 286 286 287 288 288 288 289 289 288 288 290 291 292 293 293 294 293 293 293 295 296 294 293 294 295 295
296 294 293 292 290 289 289 289 288 287 287 286 285 285 284 285 285 285 285 286 286 287 288 288 288 288 287 288 290 291 291 291 291 292 292 292 293 291 292 292 290 289 290 290
294 292 291 290 289 288 288 287 287 286 286 286 285 284 284 284 284 284 284 285 285 285 285 285 286 287 287 287 288 289 289 288 288 289 290 291 290 289 288 287 288 288 287 288
294 292 290 289 288 288 287 287 286 286 285 285 284 284 283 283 283 283 284 284 285 284 284 284 284 285 285 285 286 287 287 287 287 287 287 288 288 288 288 287 287 287 286 287
291 292 289 288 287 287 287 286 286 285 285 284 284 284 283 283 282 281 281 281 282 283 282 282 282 282 282 283 284 285 285 285 285 285 285 285 285 286 286 286 287 287 286 286
290 290 288 288 287 286 286 285 285 285 284 284 283 283 283 283 282 281 280 279 279 280 281 281 281 282 282 281 281 281 281 281 282 282 283 283 283 283 283 284 284 284 284 284
291 291 289 287 287 286 285 285 284 283 283 283 283 282 281 280 280 279 279 279 279 279 279 279 280 280 280 280 280 280 280 280 280 280 280 280 280 280 280 280 281 280 280 280
289 289 289 288 286 285 285 284 284 283 283 283 281 280 280 280 280 279 279 278 278 278 277 277 278 278 279 279 279 279 278 278 278 278 278 278 278 278 278 276 277 277 277 277
290 289 288 287 286 285 285 284 284 284 283 282 280 280 279 279 279 278 278 277 277 277 277 276 276 277 277 277 278 278 277 277 277 277 277 277 277 276 276 276 276 275 275 274
290 290 289 289 287 286 285 284 284 282 281 280 279 278 278 277 278 278 278 278 276 276 276 276 275 275 276 276 276 276 276 276 276 276 276 276 275 275 275 275 274 274 273 273
291 289 288 287 286 286 285 284 281 280 279 279 278 278 278 278 277 277 278 277 276 276 275 275 274 274 274 275 275 275 275 275 275 275 275 274 274 274 273 273 273 273 272 272
288 288 287 286 285 285 283 281 280 280 279 279 278 278 278 277 277 277 277 276 276 275 274 274 274 274 274 274 274 274 274 274 274 274 273 273 273 273 272 272 272 271 271 271
287 286 285 285 284 283 282 281 281 280 280 279 278 277 277 277 277 276 276 276 275 274 273 273 273 273 273 273 272 272 272 272 272 272 272 272 271 271 271 271 271 270 270 270
286 285 285 284 283 282 281 281 280 279 278 278 278 277 277 276 277 277 276 276 275 274 273 273 273 273 272 271 271 271 271 270 270 270 270 270 270 270 270 270 269 269 269 269
285 285 284 283 282 282 282 280 279 278 279 278 278 278 278 277 277 276 275 275 274 273 273 273 272 272 271 271 271 270 270 269 269 269 269 269 269 269 269 268 268 268 268 268
284 283 282 282 282 282 280 279 279 280 279 279 278 278 277 277 276 276 275 274 274 273 273 272 272 272 271 271 270 270 270 269 269 269 269 268 268 268 268 268 268 267 267 267
284 282 282 282 282 281 280 280 280 280 279 279 278 278 277 276 276 275 275 274 273 273 273 272 272 272 271 271 271 270 270 269 269 269 269 268 268 268 268 267 267 267 267 267
283 282 282 282 282 281 281 280 279 279 279 278 278 278 277 276 276 275 274 274 273 273 273 272 272 272 271 271 271 270 270 270 269 269 269 268 268 267 267 267 267 267 266 266
281 281 282 281 281 281 280 279 279 279 278 278 277 276 275 274 275 274 274 273 273 273 272 272 271 271 271 270 270 270 270 270 269 269 269 268 268 268 267 267 267 266 266 266

GFSNGP_850_thetae_105.txt.gz
Theta_e
303 303 304 306 308 309 310 312 308 304 301 297 294 293 291 291 290 290 289 288 288 288 289 292 295 298 302 306 311 315 317 323 325 325 325 325 324 323 322 322 321 320 320 322
305 305 307 304 302 302 305 306 305 301 298 294 292 290 289 289 288 288 288 287 287 288 288 289 291 295 298 302 305 308 310 312 321 324 325 324 323 322 321 321 320 320 319 319
310 308 305 299 301 300 300 298 300 302 297 293 291 290 289 287 287 287 286 286 287 287 288 288 290 293 295 298 302 303 304 309 312 319 322 323 323 322 321 321 320 321 322 321
311 309 305 302 300 299 297 296 296 297 294 291 289 288 287 286 285 285 285 286 286 286 288 288 291 292 293 296 298 301 303 304 307 307 312 315 318 320 321 320 321 321 321 321
311 306 304 305 298 298 300 296 294 293 293 292 290 292 287 285 285 285 286 287 287 287 287 288 289 291 293 295 295 296 298 299 301 302 304 304 306 307 309 308 317 317 318 319
308 308 306 299 294 295 298 295 293 291 290 290 293 291 286 285 285 285 286 287 288 288 289 290 289 290 292 293 293 294 294 295 296 298 300 301 301 301 299 300 302 304 312 312
305 305 301 293 293 298 298 296 291 289 287 286 286 286 285 285 285 285 286 287 288 289 288 288 289 290 290 290 291 291 293 295 296 295 296 296 298 300 298 297 294 295 300 305
302 303 303 291 294 297 294 291 289 287 286 285 285 284 284 285 285 285 286 287 287 288 288 289 289 290 290 290 290 292 293 294 294 294 294 294 295 295 296 298 295 292 291 295
297 295 291 290 290 291 292 289 288 287 286 286 285 285 284 284 284 285 285 286 286 287 287 287 288 288 288 288 290 291 292 292 293 293 293 294 294 293 292 291 292 292 289 289
294 292 292 290 289 289 289 288 287 286 286 285 284 284 283 284 284 285 285 285 286 286 287 286 286 287 287 287 288 290 290 290 290 291 292 293 293 293 291 291 290 290 289 289
293 291 290 289 288 288 287 287 287 286 285 284 284 283 283 283 283 284 284 285 285 284 284 284 285 286 286 287 287 288 288 288 288 288 288 289 289 289 288 286 287 287 287 288
293 291 290 289 288 287 287 286 286 285 284 284 284 283 283 283 282 282 283 283 283 282 282 282 282 283 283 283 283 284 285 286 286 286 286 287 287 286 286 286 286 285 286 286
291 291 290 288 288 287 287 286 285 285 284 284 284 283 284 282 281 280 280 280 281 281 281 281 282 282 282 282 282 282 282 282 282 283 284 284 285 285 285 285 285 286 285 285
290 289 287 287 286 286 286 285 285 284 284 283 283 282 282 281 280 280 280 279 279 279 280 280 280 280 280 280 280 280 280 280 280 280 280 280 280 280 282 283 283 283 283 283
291 291 289 287 286 286 285 284 284 283 283 283 282 280 280 280 280 279 279 278 278 278 279 279 279 279 279 279 279 279 279 279 279 279 278 278 279 279 278 278 278 278 278 278
289 288 287 286 285 285 284 283 284 283 283 282 281 281 281 280 279 279 279 279 279 279 278 278 278 278 277 277 277 277 277 277 277 277 277 277 277 277 277 277 276 276 276 276
288 288 287 286 285 284 284 284 285 284 283 282 281 280 280 280 279 279 279 278 278 277 277 277 277 276 276 276 276 276 276 276 276 276 276 276 276 276 275 275 274 274 274 274
290 289 288 288 286 286 284 284 284 283 282 281 280 280 279 279 279 278 278 278 276 276 276 276 276 275 275 275 275 275 275 275 275 275 275 275 274 274 274 273 273 273 272 272
290 289 288 287 287 286 286 285 283 282 281 280 280 279 279 278 277 277 277 277 277 276 276 276 275 275 274 274 274 274 274 274 274 274 274 273 273 273 273 272 272 272 271 271
289 289 288 287 286 286 285 283 282 281 281 280 279 278 278 277 277 277 277 276 276 275 275 275 274 274 274 273 273 273 273 273 273 273 272 272 272 272 271 271 271 271 270 270
289 288 287 286 285 284 282 281 281 280 280 279 277 277 277 277 277 277 276 276 275 275 274 274 273 273 273 272 271 271 272 271 271 271 271 271 270 270 270 270 270 269 269 269
287 287 286 285 284 283 282 281 280 280 279 278 277 277 277 276 276 276 276 276 275 274 273 273 273 272 272 271 271 271 270 270 270 269 269 269 269 269 269 269 269 268 268 268
286 286 285 284 283 282 282 281 280 279 279 278 278 278 278 278 277 276 276 275 274 274 273 273 272 272 271 271 271 270 270 270 269 269 269 269 268 268 268 268 268 268 267 267
286 285 283 282 281 282 281 280 279 279 280 279 278 278 278 278 277 276 276 275 274 273 273 272 272 272 272 271 271 270 270 270 269 269 269 268 268 268 268 267 267 267 267 267
285 284 282 282 282 281 280 279 280 280 280 279 279 278 278 278 277 276 275 274 274 274 273 273 272 272 272 271 271 270 270 270 270 269 269 268 268 268 268 267 267 267 266 266
284 283 282 282 281 281 280 280 280 280 279 279 279 278 277 277 276 275 275 274 274 273 273 272 272 272 271 271 271 270 270 270 270 269 269 269 268 268 268 267 267 267 266 266
283 281 282 282 282 281 281 280 280 280 279 278 277 276 276 275 275 274 274 274 273 272 272 272 271 270 270 270 270 270 270 269 269 269 269 269 268 268 268 267 267 267 266 266

GFSNGP_850_thetae_108.txt.gz
Theta_e
302 302 303 305 304 302 310 310 308 303 299 295 293 291 290 289 288 288 288 287 286 286 287 289 291 294 299 301 304 308 312 319 323 325 325 327 326 325 323 323 322 322 320 319
302 303 305 301 301 299 299 302 300 298 296 293 291 290 289 287 287 287 287 286 286 287 287 287 289 291 296 297 300 303 307 306 310 312 319 324 323 322 321 321 321 320 319 319
306 304 303 302 300 299 297 297 299 301 296 292 290 288 287 286 286 286 285 285 285 286 286 286 288 290 293 295 298 300 301 304 307 310 307 313 319 320 321 320 320 319 318 318
307 305 305 300 300 297 296 295 295 295 293 291 288 287 286 285 285 284 284 285 285 286 287 288 289 291 292 295 295 296 299 302 302 305 304 306 308 313 316 316 316 315 313 317
310 305 301 302 297 297 299 295 293 293 293 292 289 291 286 284 284 284 285 286 286 286 287 289 290 289 291 293 294 293 294 295 297 297 302 302 302 304 304 305 308 309 309 308
308 307 305 298 294 294 296 294 291 290 290 289 292 291 286 284 285 285 285 286 288 289 289 290 290 290 290 291 291 293 293 292 293 295 296 297 299 299 300 300 301 301 298 296
306 304 299 293 292 295 300 295 290 288 286 287 285 284 284 284 284 285 285 286 288 288 288 288 289 289 290 290 290 291 292 294 294 295 294 294 296 296 297 297 298 298 300 295
301 303 302 291 294 297 292 289 288 286 285 284 284 284 284 284 284 285 286 286 286 287 286 287 287 288 288 289 288 290 292 293 293 294 294 293 293 293 294 295 295 294 293 294
295 294 291 289 290 291 291 288 286 286 285 285 284 283 284 284 284 284 284 284 285 286 286 286 286 286 287 286 288 289 290 290 290 291 292 293 293 292 292 292 292 292 292 292
293 292 290 289 288 289 289 288 287 286 285 285 284 283 283 284 284 284 284 284 283 283 283 283 283 284 284 285 286 287 287 287 288 289 289 290 290 290 290 289 289 289 290 290
292 291 289 288 287 287 287 287 287 286 286 285 285 284 283 283 283 283 283 282 282 282 282 282 282 282 282 282 282 283 283 284 285 285 286 287 287 286 286 285 286 287 286 287
288 289 288 288 287 287 287 286 286 286 285 285 285 284 283 282 280 281 281 281 281 281 281 281 281 281 281 281 281 281 281 281 281 281 282 283 284 285 285 284 285 285 285 285
291 290 289 288 287 287 287 286 285 285 285 285 283 283 282 281 280 280 280 280 280 280 280 280 280 280 280 280 280 280 280 280 280 280 280 280 280 281 282 282 282 283 284 284
291 289 287 287 286 287 286 285 285 285 284 284 283 282 280 280 280 279 279 278 278 278 279 278 279 279 278 278 278 278 278 278 278 278 279 279 279 278 278 278 279 279 279 278
290 291 289 287 287 286 286 285 285 284 283 281 281 280 280 279 280 279 278 278 278 278 278 277 277 278 277 277 277 277 277 277 277 277 277 277 277 277 277 277 277 277 277 277
289 289 288 287 286 285 285 284 284 283 283 281 281 280 279 279 279 278 278 278 278 277 277 277 277 277 276 276 276 276 276 276 276 276 276 276 276 275 275 275 275 275 275 275
287 286 286 286 285 285 285 284 284 284 282 281 280 279 279 278 279 278 278 277 277 276 276 276 276 276 276 276 276 276 275 275 275 275 275 274 274 274 274 273 273 273 273 272
289 289 288 288 287 286 285 284 284 283 281 280 279 279 279 278 278 277 277 277 276 276 276 276 276 276 275 276 276 275 275 275 274 274 274 274 273 273 273 272 272 271 271 271
290 289 288 288 287 286 285 284 283 281 280 280 280 279 278 278 277 277 277 276 276 276 276 276 275 275 275 275 275 274 274 274 273 273 273 272 272 272 272 271 271 271 270 270
290 289 288 287 286 285 285 283 281 281 280 279 279 278 277 277 277 277 276 276 276 276 275 275 275 274 274 274 273 273 272 272 272 271 271 271 271 270 270 270 270 269 269 269
290 289 288 287 286 284 283 281 281 280 279 279 278 277 277 277 276 276 276 276 276 275 275 274 274 273 273 272 272 272 272 271 270 270 270 269 269 269 269 269 268 268 268 268
289 288 287 286 285 283 281 281 281 279 278 278 278 279 279 278 277 277 276 276 275 275 274 274 273 273 272 272 271 271 270 270 270 269 269 269 269 269 268 268 268 268 267 267
287 286 286 285 283 282 281 281 280 279 279 278 278 279 279 278 277 277 276 276 275 275 274 273 273 272 272 272 271 271 270 270 270 269 269 268 268 268 268 268 267 267 267 267
286 285 284 283 282 282 281 279 279 279 279 279 279 279 279 278 278 277 276 276 275 274 274 273 273 272 272 272 271 271 271 270 270 270 269 269 269 268 268 267 267 267 267 266
285 285 284 283 282 281 280 279 279 280 279 279 279 279 278 278 277 276 276 275 274 274 273 273 272 272 271 271 271 271 270 270 270 269 270 269 269 269 268 268 268 267 267 266
285 284 283 282 282 281 280 280 280 279 279 279 278 278 278 277 276 275 274 274 274 273 273 272 272 271 271 270 270 270 269 269 269 269 269 269 269 269 269 268 267 267 267 266
284 283 281 282 282 281 281 280 280 280 279 278 277 276 276 275 275 274 274 273 273 273 272 272 271 270 270 270 269 269 269 268 268 268 268 268 268 268 268 268 267 267 266 266

GFSNGP_850_thetae_111.txt.gz
Theta_e
301 301 302 304 303 302 301 305 308 301 297 295 293 291 289 288 288 288 287 286 285 285 286 287 289 291 293 295 299 301 305 313 314 316 321 323 325 325 325 324 324 324 323 323
300 302 303 301 300 301 299 301 299 297 295 292 291 289 288 287 287 287 286 285 284 285 286 286 288 291 292 293 296 298 298 302 306 308 313 320 320 321 321 321 321 321 320 320
305 303 302 304 300 299 298 297 300 301 295 292 290 288 287 286 286 285 284 284 284 285 286 287 287 289 290 292 295 297 298 299 303 303 303 305 306 311 317 317 319 320 318 318
306 304 307 301 298 297 296 295 296 295 293 291 289 287 285 284 284 283 283 284 285 286 288 289 290 290 292 294 294 294 295 296 299 299 300 304 304 304 305 305 312 312 314 314
308 306 302 301 298 298 299 295 293 294 294 291 290 290 286 284 283 283 284 284 286 287 288 289 290 290 290 292 293 294 294 296 296 298 299 298 299 302 300 300 302 303 302 304
305 306 305 299 294 294 296 299 292 291 291 293 292 294 287 283 284 284 285 285 287 287 288 290 289 289 290 290 291 291 291 292 293 294 294 294 294 293 294 296 298 298 298 298
307 304 300 294 292 295 302 299 289 288 288 289 288 286 283 284 284 284 285 285 285 286 286 287 288 288 289 289 288 288 290 291 292 293 293 292 292 293 292 293 294 295 295 295
303 303 303 291 295 299 293 289 287 286 284 284 283 283 283 284 284 284 285 285 284 284 284 284 285 286 286 286 287 288 289 290 290 291 291 291 292 291 292 292 292 292 292 291
296 296 291 290 291 291 290 288 286 285 285 285 284 284 284 284 284 283 282 282 282 282 282 282 282 283 283 283 284 285 286 287 288 288 289 290 291 291 291 291 291 290 291 290
294 291 290 289 288 288 288 287 286 286 285 286 285 284 284 284 283 282 282 282 282 282 282 281 281 281 281 281 282 283 283 283 284 285 286 287 287 288 288 288 288 288 289 288
292 290 289 288 288 286 287 287 286 285 285 285 284 283 283 283 282 282 281 281 281 281 281 281 281 281 281 281 281 281 281 281 281 281 282 282 283 284 284 284 284 285 285 285
295 290 290 288 287 287 287 286 286 286 285 284 284 283 281 280 280 280 280 280 279 279 279 279 279 279 280 279 279 280 280 280 280 280 280 279 279 280 280 280 280 281 282 283
290 290 289 288 287 286 286 285 285 285 285 284 283 282 281 281 280 279 279 279 279 278 278 278 279 279 278 278 278 279 279 279 279 279 279 279 279 279 279 278 278 278 278 279
290 288 287 286 286 286 286 285 285 285 284 284 283 280 280 280 279 279 279 278 278 278 278 278 278 278 277 277 277 278 278 278 278 277 277 277 277 277 277 277 277 277 277 277
289 290 288 287 286 285 286 285 285 284 283 283 281 281 280 280 280 279 278 278 277 277 277 277 277 277 276 276 276 276 276 276 276 276 276 276 276 276 276 276 276 275 276 276
289 288 287 286 285 285 285 285 286 284 282 282 282 280 280 279 279 278 278 277 277 277 276 276 276 276 275 275 275 275 275 275 275 275 275 275 275 275 274 274 274 274 274 274
288 286 286 285 285 285 285 286 285 284 282 281 280 280 279 279 278 277 277 277 276 276 276 276 276 276 275 275 275 275 275 275 274 274 274 273 273 273 272 272 272 272 272 271
289 288 288 288 286 286 285 285 285 283 281 281 280 279 278 278 277 277 277 277 276 276 276 276 275 275 275 275 275 274 274 274 274 273 273 273 272 272 271 271 271 270 270 270
289 289 288 287 287 286 285 286 284 282 281 280 279 278 278 277 277 277 276 276 276 275 275 275 275 274 274 274 274 273 273 273 272 272 272 271 271 271 270 269 269 269 270 269
289 288 288 287 286 286 286 285 283 281 280 280 279 278 278 277 277 277 276 276 276 275 275 274 274 274 273 273 273 272 272 272 271 271 271 270 270 270 270 269 269 269 269 268
290 289 288 287 286 285 285 283 281 281 280 279 278 278 277 277 277 277 277 276 276 275 275 274 274 273 273 272 272 272 272 271 271 270 270 270 269 269 269 268 268 268 268 268
290 289 288 287 286 285 282 281 281 280 279 278 278 277 277 277 278 277 277 276 276 275 275 274 274 273 273 272 272 272 271 271 270 270 270 269 269 269 269 268 268 268 267 267
289 288 288 287 286 284 282 281 280 279 278 278 278 278 278 278 278 277 277 276 276 275 275 274 273 273 272 272 272 271 271 271 270 270 270 270 269 269 269 268 268 268 267 267
288 287 286 285 283 282 282 281 279 279 278 278 278 278 278 278 277 277 276 276 275 275 274 274 273 273 272 272 271 271 271 270 270 270 270 269 269 269 269 269 269 268 268 267
286 286 285 283 282 281 281 280 279 279 279 279 279 278 278 278 277 276 275 275 274 274 274 273 273 272 272 271 271 270 270 270 269 269 269 269 268 268 268 268 268 268 268 267
286 285 284 282 281 282 281 279 279 279 279 279 278 278 277 276 275 275 275 274 274 273 273 272 272 271 271 270 270 269 269 269 268 268 268 268 268 268 267 267 267 267 268 267
285 283 282 281 281 281 280 280 280 279 279 278 277 277 276 275 275 274 274 273 273 273 272 272 271 270 270 269 269 268 268 268 267 267 267 266 266 266 266 266 266 266 266 266

GFSNGP_850_thetae_114.txt.gz
Theta_e
303 303 303 305 305 305 304 304 306 306 302 296 294 293 291 290 290 290 289 288 287 286 286 286 286 288 290 293 296 300 299 303 304 307 313 318 322 324 324 325 326 326 327 328
304 305 305 306 302 304 302 300 301 300 298 295 293 291 291 290 289 288 288 286 286 285 285 286 286 287 289 292 294 296 300 301 300 303 304 304 310 314 320 322 322 323 324 322
308 304 305 306 302 301 300 300 302 306 298 295 293 291 289 288 288 287 286 285 284 285 285 285 286 287 288 291 294 295 295 297 298 300 302 301 302 301 304 307 311 313 314 315
307 306 310 302 299 299 299 298 298 297 296 294 291 288 288 286 286 286 284 284 283 284 284 285 285 287 288 290 293 295 294 294 296 298 299 300 302 301 301 298 302 304 306 306
308 308 304 302 300 301 302 298 296 297 296 293 292 292 288 286 284 283 282 282 282 282 284 286 287 288 289 292 292 293 293 293 293 295 296 296 297 297 299 299 300 301 302 301
307 308 309 303 298 297 299 303 295 295 296 295 294 299 291 284 283 283 284 284 284 285 286 287 286 287 289 289 290 290 291 291 293 293 292 293 294 292 293 296 296 295 297 296
307 310 304 297 296 297 304 302 293 294 294 295 294 291 285 283 283 282 282 283 282 283 283 283 284 284 285 286 287 288 289 291 291 291 291 291 292 292 292 293 294 293 292 293
307 308 307 294 297 302 296 292 291 291 290 288 286 284 283 282 282 282 282 282 281 282 282 282 282 283 282 283 283 285 286 287 288 289 290 290 291 290 291 291 291 290 291 290
301 301 293 293 294 293 293 291 290 289 287 286 285 284 283 283 282 282 282 281 280 280 281 281 281 281 281 281 282 282 283 283 284 284 285 285 286 286 287 288 288 288 289 288
298 294 293 291 291 292 291 290 289 287 286 285 284 283 282 282 282 281 281 281 281 280 280 280 280 280 280 281 281 281 282 281 281 281 282 282 282 282 282 282 282 283 284 285
294 292 291 291 290 289 288 287 286 285 285 284 284 284 283 281 281 280 280 280 280 280 279 279 279 280 280 280 280 281 281 281 280 280 280 280 280 279 279 279 279 279 279 279
302 294 295 291 289 288 287 286 286 285 284 284 283 282 282 281 280 280 279 279 279 279 279 279 278 279 278 279 279 279 279 279 279 279 279 279 279 279 279 278 278 279 279 279
294 292 292 289 288 288 287 286 286 286 285 283 283 282 281 280 279 279 278 279 279 279 279 278 278 279 279 278 278 279 278 278 278 278 278 278 278 278 278 278 278 278 278 278
291 290 289 288 288 288 287 286 286 285 284 283 281 280 280 279 279 278 278 278 278 278 278 278 277 277 277 277 277 278 277 278 278 277 277 277 277 277 277 277 277 277 277 277
291 291 290 289 288 287 287 286 285 284 283 281 280 280 280 280 279 279 278 278 278 278 278 278 277 277 277 277 277 277 277 277 276 276 276 276 276 276 276 276 275 275 275 275
290 290 289 288 288 287 286 285 285 283 281 280 280 280 279 279 279 279 278 278 278 278 277 277 277 277 277 277 277 276 276 276 276 276 276 276 276 275 275 275 275 274 273 272
290 289 289 288 287 287 286 286 284 282 281 281 280 280 280 279 279 279 278 278 278 277 277 276 277 277 277 276 276 275 275 275 274 275 274 274 274 274 274 274 274 274 273 272
291 290 289 288 287 286 285 284 283 281 282 281 280 280 279 279 279 279 278 278 277 277 277 277 276 276 276 275 275 274 274 274 273 273 273 273 272 273 273 273 273 272 272 271
290 289 289 287 286 286 284 283 283 283 282 281 280 279 279 279 279 278 277 277 276 276 276 276 275 275 274 274 274 273 273 273 273 273 272 272 272 272 272 271 271 271 271 271
288 288 287 286 286 286 286 285 283 283 282 281 280 279 279 279 278 277 277 276 276 276 276 275 274 274 274 273 273 273 272 272 272 272 272 271 271 271 271 271 270 270 270 270
288 288 287 287 286 286 285 285 283 282 281 280 279 278 278 278 278 277 277 277 276 276 275 274 274 273 273 273 273 272 272 272 272 272 272 271 271 271 271 271 270 270 270 269
289 288 287 287 286 285 284 282 281 281 280 279 279 278 278 278 278 277 277 277 276 275 275 273 273 273 273 273 272 272 272 272 272 272 272 272 271 271 271 270 270 270 269 269
290 288 288 287 286 285 282 281 281 280 279 279 279 279 278 278 277 277 278 277 276 275 274 274 274 273 273 272 272 271 271 271 271 271 271 271 270 270 270 270 270 270 269 269
289 288 287 286 285 283 282 281 280 279 278 279 279 279 278 277 277 277 276 276 275 275 274 274 273 273 272 271 271 270 270 270 270 270 270 270 270 269 269 269 269 269 269 269
288 287 286 285 284 281 281 281 279 279 279 279 279 278 278 278 277 276 275 275 274 274 273 273 273 272 271 270 269 269 269 269 268 268 268 268 268 268 268 268 268 268 267 267
287 287 286 284 282 281 282 280 279 279 279 279 278 278 278 277 276 275 275 274 274 273 273 272 272 271 270 269 269 267 267 267 267 266 266 266 266 266 266 266 266 266 266 266
285 285 284 282 281 281 281 279 280 279 279 279 279 277 276 276 275 274 274 273 273 272 272 271 270 270 270 269 268 267 266 265 264 264 264 263 263 263 263 263 263 263 263 264

GFSNGP_850_thetae_117.txt.gz
Theta_e
304 304 304 305 307 307 308 308 310 309 305 299 297 295 294 292 291 291 290 288 288 287 287 287 288 289 288 289 291 291 293 296 296 301 305 309 313 315 318 321 324 324 325 328
305 306 307 309 308 307 307 306 303 304 301 297 295 294 293 291 291 289 288 287 287 287 287 286 287 288 289 289 289 291 292 294 297 299 302 301 302 302 308 308 311 314 318 321
309 307 307 309 306 305 305 302 304 305 300 297 295 293 291 290 289 288 287 286 286 286 285 285 287 287 288 289 291 291 291 291 293 294 299 299 300 301 301 301 302 304 305 309
309 307 310 304 302 303 303 302 301 299 299 297 293 291 289 288 287 287 285 285 284 284 284 284 286 285 287 287 291 292 292 291 293 296 294 295 295 297 299 298 298 300 299 300
309 310 307 303 302 302 302 301 301 300 297 295 293 293 290 287 286 284 283 283 282 282 283 284 285 286 287 288 289 290 290 291 292 292 293 292 292 291 294 293 296 297 296 297
309 309 311 306 303 301 302 305 299 299 298 296 296 301 293 286 285 284 282 282 282 282 282 283 283 284 286 287 288 288 288 289 290 291 292 291 291 292 292 293 293 294 294 293
308 310 307 302 300 300 306 304 298 299 298 297 297 292 287 286 284 283 281 281 281 281 281 281 282 282 282 283 283 284 285 285 287 288 288 290 291 292 292 291 292 291 292 293
308 311 311 298 300 303 299 297 297 297 294 291 288 286 285 284 283 283 282 281 280 281 281 281 281 281 281 281 281 282 282 283 283 283 284 284 284 285 286 287 288 288 289 289
304 303 296 296 298 297 296 296 295 293 291 289 287 287 286 285 284 283 282 282 281 280 280 280 280 281 281 281 281 282 282 282 282 282 282 283 283 283 283 283 283 283 284 284
301 297 295 295 295 296 295 294 293 291 290 289 287 286 285 285 284 283 282 282 282 282 281 280 280 280 280 281 281 281 281 281 281 281 282 282 281 281 281 281 281 281 281 281
298 295 294 294 294 293 292 291 290 289 289 287 286 285 284 284 283 283 282 282 281 281 281 280 280 280 280 280 280 281 281 281 281 281 281 281 281 280 278 278 278 279 279 279
305 296 297 294 292 291 290 289 289 288 287 287 286 285 285 284 283 283 282 282 281 281 281 280 280 280 280 280 280 280 281 281 281 281 281 281 281 281 280 278 278 277 277 277
297 296 294 291 291 291 290 289 289 288 287 286 285 285 284 283 282 280 281 280 280 280 279 279 279 280 279 278 279 279 280 280 281 280 280 280 280 280 280 279 279 278 277 277
295 293 291 291 291 290 290 289 289 288 287 286 285 284 283 282 281 280 279 278 279 279 279 278 279 279 278 278 278 279 279 279 280 280 279 279 279 279 279 279 279 278 277 276
293 294 292 292 290 290 290 289 288 288 286 284 284 283 282 281 280 280 279 279 279 279 279 278 278 278 278 278 278 278 278 277 278 278 278 278 278 278 278 278 278 278 277 275
293 293 292 291 291 290 290 289 288 287 285 283 282 281 280 279 279 279 279 279 278 279 279 279 278 278 278 278 278 278 278 277 277 278 277 277 277 277 277 277 277 277 276 274
293 293 292 291 291 290 289 289 288 286 284 283 281 280 280 280 279 279 279 279 279 278 278 278 278 277 277 277 277 277 277 277 276 276 276 276 276 276 276 276 276 275 275 274
293 293 292 291 291 290 289 288 286 284 283 282 281 281 280 280 279 278 278 278 278 278 278 277 277 277 276 276 276 276 276 276 276 276 276 275 275 275 275 275 275 274 274 274
293 292 291 291 290 289 288 287 284 283 283 282 281 280 279 279 279 278 278 278 278 278 277 276 276 276 275 275 275 276 276 276 276 276 275 274 275 274 274 274 274 273 273 273
292 291 290 289 288 287 286 284 285 284 282 281 280 280 280 279 279 278 278 278 277 277 277 276 276 275 275 274 274 275 275 275 275 275 275 274 274 274 274 273 273 273 272 272
289 289 288 287 287 286 286 286 284 283 281 280 280 279 279 279 279 278 278 281 280 277 276 276 276 275 275 274 274 275 275 274 275 274 274 274 274 274 273 273 273 272 272 272
288 287 287 287 286 286 285 284 283 281 281 280 279 279 279 279 278 278 278 279 277 276 276 276 276 275 274 273 274 274 274 274 273 273 273 273 273 273 273 272 272 272 272 271
289 288 287 287 286 286 285 283 281 281 280 279 279 279 279 280 280 280 281 280 277 277 275 276 275 274 273 273 273 273 273 273 273 272 272 272 271 271 272 271 271 271 271 270
289 288 287 286 286 285 283 281 281 280 279 279 279 279 279 279 279 278 278 277 276 275 275 275 274 273 273 272 272 272 271 271 271 271 270 270 270 270 270 270 270 270 269 269
289 288 287 286 285 283 282 281 280 279 279 279 279 279 279 279 279 278 277 276 275 275 275 275 274 273 271 271 271 270 270 269 269 268 268 268 268 268 268 268 267 267 267 267
289 288 287 286 283 281 281 281 280 279 279 280 280 279 278 278 277 276 276 275 274 274 274 272 271 271 270 269 268 268 268 267 267 266 265 265 265 265 265 265 264 264 264 265
286 286 285 282 282 281 281 281 282 281 281 282 281 279 277 276 276 276 275 274 274 272 272 271 270 270 268 268 267 266 266 265 265 264 264 263 263 263 262 262 262 262 262 262